     2.11           OBSERVATION DATA    G (GPS)             RINEX VERSION / TYPE
teqc 2010Oct21 OPUS Account 20111027 17:16:56UTC            PGM / RUN BY / DATE
Q 1525                                                      MARKER NAME
3023                                                        MARKER NUMBER
CSMIDDLETON NGS                                             OBSERVER / AGENCY
4820152812 TRIMBLE R7 2.32                                  REC # / TYPE / VERS
60244996 TRM41249.00 NONE                                   ANT # / TYPE
  -761515.5375 -5552547.7484  3034589.5619                  APPROX POSITION XYZ
        2.0030        0.0000        0.0000                  ANTENNA: DELTA H/E/N
     1     1                                                WAVELENGTH FACT L1/2
     5    L1    L2    C1    P1    P2                        # / TYPES OF OBSERV
    15                                                      LEAP SECONDS
  2011     8    17    15    45    0.0000000     GPS         TIME OF FIRST OBS
                                                            END OF HEADER
 11  8 17 15 45  0.0000000  0  9G03G06G07G10G13G16G19G20G23
    165167.14857    119240.05156  20849986.4304                   20849984.3594
    291972.07057    208328.86755  22193637.9064                   22193636.2424
    -45286.93057    -32697.57855  22979277.6564                   22979274.8634
     97274.43456     66106.18053  23957687.1564                   23957685.1764
      4367.24258      3009.41456  20421957.5234                   20421954.1374
    515564.06657    368575.53155  22084479.4224                   22084476.0664
    -93459.44558    -66927.45755  21858492.1564                   21858488.0474
    531459.93456    365592.35953  23829753.9774                   23829753.0474
    222552.61358    159481.94157  20018959.8834                   20018954.7074
 11  8 17 15 45 30.0000000  0  9G03G06G07G10G13G16G19G20G23
    207638.42647    152334.52746  20858068.5394                   20858066.0784
    365868.97347    265910.84045  22207700.0474                   22207698.3754
    -56857.26247    -41713.41445  22977076.1484                   22977073.1564
    122519.90646     85777.95343  23962490.6334                   23962489.0354
      6285.10548      4503.84046  20422323.3754                   20422319.7624
    644330.53947    468913.00045  22108982.3524                   22108979.4844
   -116095.51248    -84565.94146  21854184.7664                   21854180.6844
    664849.90246    469532.44943  23855137.0944                   23855136.9454
    279267.44948    203675.29347  20029752.8594                   20029747.4184
 11  8 17 15 46  0.0000000  0 10G03G06G07G10G13G16G19G20G23G08
    250777.04748    185949.02746  20866277.4844                   20866275.3284
    440348.33647    323946.70745  22221873.0084                   22221871.0664
    -68376.50047    -50689.43445  22974883.8284                   22974881.4224
    148313.03546    105876.47743  23967399.0864                   23967397.5394
      8697.21148      6383.38746  20422781.8204                   20422778.6024
    773311.77747    569417.82045  22133527.1254                   22133523.8874
   -138295.02748   -101864.25046  21849960.0634                   21849956.0394
    798267.54346    573494.10543  23880525.9454                   23880525.7664
    336582.35248    248336.22747  20040659.1174                   20040653.9654
    -27922.47356    -18214.37552  25028111.5634                   25028110.9964
 11  8 17 15 46 30.0000000  0 10G03G06G07G10G13G16G19G20G23G08
    294608.77048    220103.60246  20874618.5944                   20874615.9964
    515434.43447    382455.32445  22236161.4694                   22236158.9264
    -79819.68047    -59606.18744  22972706.0314                   22972702.9804
    174678.73446    126421.15643  23972416.5634                   23972415.2304
     11630.91848      8669.38746  20423340.0394                   20423337.0594
    902530.73047    670107.86745  22158116.0864                   22158113.0394
   -160029.81248   -118800.44145  21845824.3134                   21845819.6134
    931735.25046    677494.78544  23905924.9144                   23905923.9104
    394522.83248    293484.62547  20051684.8524                   20051679.8014
    -45410.60246    -31841.43443  25024783.5164                   25024783.1524
 11  8 17 15 47  0.0000000  0 10G03G06G07G10G13G16G19G20G23G08
    339110.90647    254780.56646  20883087.2344                   20883085.2344
    591103.50047    441418.20745  22250560.6804                   22250558.7114
    -91210.09447    -68481.81644  22970538.6174                   22970535.6484
    201593.74246    147393.87543  23977537.8134                   23977536.7384
     15065.09048     11345.34846  20423993.2424                   20423990.1954
   1031961.69147    770963.13345  22182746.3594                   22182742.9614
   -181320.03148   -135390.19545  21841772.7114                   21841768.2664
   1065227.13346    781514.31344  23931328.0554                   23931326.8014
    453066.32448    339102.90247  20062825.2504                   20062820.2034
    -62900.82446    -45470.14842  25021456.1644                   25021454.5864
 11  8 17 15 47 30.0000000  0 10G03G06G07G10G13G16G19G20G23G08
    384293.91047    289988.09446  20891685.3594                   20891682.8404
    667364.73047    500842.52745  22265072.8834                   22265070.7814
   -102537.39847    -77308.30144  22968383.0704                   22968379.9344
    229067.86746    168802.27343  23982766.8914                   23982764.8714
     19012.15248     14420.97346  20424744.7814                   20424741.5164
   1161612.25448    871989.50845  22207418.8834                   22207414.7894
   -202152.76248   -151623.48445  21837808.4144                   21837803.4844
   1198750.56646    885558.42243  23956736.1094                   23956734.5514
    512223.36348    385199.28147  20074082.5474                   20074077.6334
    -80383.93045    -59093.28942  25018128.5084                   25018128.5434
 11  8 17 15 48  0.0000000  0 10G03G06G07G10G13G16G19G20G23G08
    430151.28548    325721.11346  20900412.0394                   20900408.9184
    744210.05147    560721.96945  22279695.9064                   22279693.9964
   -113808.96947    -86091.32444  22966238.1564                   22966235.1914
    257093.81646    190640.65643  23988099.8524                   23988098.2854
     23467.21148     17892.43446  20425592.3134                   20425589.0234
   1291472.62948    973179.36345  22232129.8914                   22232125.9924
   -222532.41448   -167503.72746  21833930.2734                   21833925.7584
   1332295.38346    989619.19143  23982148.6254                   23982147.1684
    571986.96948    431768.30947  20085455.5004                   20085450.0044
    -97867.80946    -72717.07842  25014802.0164                   25014801.1994
 11  8 17 15 48 30.0000000  0 10G03G06G07G10G13G16G19G20G23G08
    476681.10248    361978.10546  20909265.9924                   20909263.2544
    821636.95347    621054.60945  22294429.9924                   22294427.5314
   -125026.35947    -94832.14145  22964103.4774                   22964100.6564
    285669.82846    212907.66843  23993537.3754                   23993535.1954
     28430.61348     21760.01246  20426537.0704                   20426533.3954
   1421538.75448   1074529.55545  22256880.5554                   22256877.5784
   -242457.69548   -183029.90246  21830138.2194                   21830133.6254
   1465857.43446   1093693.36343  24007565.1024                   24007563.7734
    632355.97748    478809.07047  20096942.7584                   20096937.6134
   -115354.24246    -86342.78542  25011473.7274                   25011474.4454
 11  8 17 15 49  0.0000000  0 10G03G06G07G10G13G16G19G20G23G08
    523883.84448    398759.44146  20918248.3914                   20918245.1174
    899644.64147    681839.79345  22309274.4304                   22309271.7854
   -136189.64547   -103530.77745  22961979.0944                   22961976.8794
    314795.65646    235603.09443  23999079.8364                   23999077.4224
     33904.20348     26025.13746  20427578.5784                   20427575.2974
   1551807.59847   1176037.69545  22281670.3134                   22281666.9774
   -261925.47748   -198199.59046  21826433.8984                   21826430.4064
   1599433.65646   1197778.61343  24032983.9384                   24032982.1054
    693330.65648    526321.78147  20108546.3984                   20108540.6414
   -132843.91846    -99971.13743  25008146.1644                   25008145.1564
 11  8 17 15 49 30.0000000  0 10G03G06G07G10G13G16G19G20G23G08
    571758.19948    436064.13346  20927358.5314                   20927355.5164
    978230.50847    743075.52045  22324228.6724                   22324226.5084
   -147300.34047   -112188.44545  22959865.2734                   22959862.6294
    344469.71546    258725.74643  24004726.8134                   24004724.4064
     39889.41848     30688.93046  20428717.2734                   20428713.8714
   1682275.78947   1277701.19145  22306497.5864                   22306493.8164
   -280934.47747   -213011.77046  21822816.6094                   21822812.5394
   1733020.06646   1301871.81343  24058404.0864                   24058403.0434
    754909.91448    574305.60247  20120264.5554                   20120259.0634
   -150338.80946   -113603.46943  25004817.0784                   25004816.2464
 11  8 17 15 50  0.0000000  0 10G03G06G07G10G13G16G19G20G23G08
    620294.37548    473884.52746  20936594.6884                   20936592.1524
   1057383.40247    804753.07045  22339290.9844                   22339288.8054
   -158368.76647   -120813.17645  22957758.7734                   22957756.1094
    374681.47746    282267.39543  24010475.1024                   24010473.3014
     46376.99248     35744.18446  20429951.6094                   20429948.6174
   1812930.12147   1379509.73045  22331359.9774                   22331356.5594
   -299492.35247   -227472.42246  21819285.0314                   21819280.9924
   1866603.18446   1405962.44543  24083824.2034                   24083822.9184
    817083.60548    622752.61747  20132095.5164                   20132090.2664
   -167849.63746   -127248.24643  25001485.2274                   25001484.1954
 11  8 17 15 50 30.0000000  0 10G03G06G07G10G13G16G19G20G23G08
    669492.35248    512220.59446  20945956.9304                   20945954.0354
   1137102.48447    866871.82045  22354461.2734                   22354459.1724
   -169394.80147   -129404.86745  22955660.4454                   22955658.2934
    405430.62946    306227.75843  24016326.8754                   24016324.8714
     53369.58648     41192.95346  20431282.6884                   20431279.5864
   1943768.45747   1481461.63345  22356257.9614                   22356254.6094
   -317596.19548   -241579.29346  21815840.0474                   21815835.7074
   2000180.48046   1510048.50043  24109243.8524                   24109242.0514
    879852.21148    671663.19947  20144039.8914                   20144034.9844
   -185377.10546   -140906.00043  24998149.4064                   24998148.6454
 11  8 17 15 51  0.0000000  0 10G03G06G07G10G13G16G19G20G23G08
    719349.06648    551069.96946  20955444.2274                   20955441.8014
   1217383.56347    929428.48045  22369737.9064                   22369735.9414
   -180381.46947   -137965.89145  22953569.9224                   22953567.6804
    436713.70746    330604.17243  24022280.8834                   24022277.8754
     60866.26248     47034.50846  20432709.3674                   20432705.8164
   2074785.11347   1583552.49245  22381189.6254                   22381185.9104
   -335246.35247   -255332.64846  21812480.8984                   21812476.8054
   2133746.37146   1614125.68043  24134660.7424                   24134659.2504
    943212.80948    721035.07847  20156097.2584                   20156091.9064
   -202924.51246   -154579.27343  24994810.6334                   24994809.8674
 11  8 17 15 51 30.0000000  0 10G03G06G07G10G13G16G19G20G23G08
   -805564.80948   -637174.61746  20665262.2894                   20665260.1804
   -277203.20347   -235184.61345  22085327.8914                   22085325.6954
  -1766760.97747  -1374105.71545  22651692.3674                   22651689.3054
  -1106900.27746   -872211.93043  23728539.4694                   23728538.1134
  -1506562.24248  -1174338.36746  20134437.3674                   20134434.1804
    630550.41447    458174.78145  22106360.7734                   22106357.4144
  -1927872.13347  -1496339.73446  21509414.6484                   21509410.7854
    691870.54746    490585.94143  23860280.3984                   23860279.3014
   -568263.89548   -456739.00447  19868472.8594                   19868467.6214
  -1795924.89146  -1395878.23043  24691671.3204                   24691671.4184
 11  8 17 15 52  0.0000000  0 10G03G06G07G10G13G16G19G20G23G08
   -754396.61748   -597303.30546  20674999.4694                   20674996.9224
   -195807.77347   -171759.62545  22100816.8134                   22100814.4144
  -1777675.99647  -1382610.91845  22649614.6254                   22649612.3404
  -1074557.10546   -847009.46143  23734694.2274                   23734692.5664
  -1498058.01648  -1167711.70346  20136055.7344                   20136052.5044
    761909.71947    560532.63345  22131357.7814                   22131354.5474
  -1944613.35547  -1509384.82046  21506229.2814                   21506224.9694
    825397.95746    594633.12943  23885690.3914                   23885689.0474
   -503725.55148   -406449.39847  19880753.9224                   19880749.1844
  -1813520.68446  -1409589.20743  24688324.2814                   24688322.9024
 11  8 17 15 52 30.0000000  0 10G03G06G07G10G13G16G19G20G23G08
   -702577.02748   -556924.41846  20684860.6804                   20684857.9454
   -113860.59447   -107904.69945  22116411.1024                   22116408.7704
  -1788558.81247  -1391091.00845  22647543.6724                   22647540.5204
  -1041688.43446   -821397.52343  23740949.7274                   23740947.3794
  -1489050.97348  -1160693.23846  20137769.7584                   20137766.4344
    893432.57447    663017.93845  22156385.6254                   22156382.0594
  -1960899.66447  -1522075.43446  21503129.5004                   21503126.0634
    958898.24646    698659.17644  23911095.1564                   23911093.5314
   -438601.74648   -355703.60247  19893146.5704                   19893141.3594
  -1831145.16846  -1423322.53943  24684969.4844                   24684969.3364
 11  8 17 15 53  0.0000000  0 10G03G06G07G10G13G16G19G20G23G08
   -650104.75848   -516036.94546  20694845.3984                   20694843.6884
    -31362.28947    -43620.33645  22132109.8444                   22132107.5984
  -1799408.76647  -1399545.50045  22645478.9844                   22645475.9414
  -1008293.64546   -795375.62143  23747304.3364                   23747302.6764
  -1479538.43748  -1153280.87946  20139580.1334                   20139576.6844
   1025117.24647    765629.34045  22181444.5004                   22181441.5164
  -1976727.69947  -1534408.93446  21500117.4224                   21500113.3634
   1092369.22746    802662.39143  23936493.7114                   23936492.4884
   -372892.08648   -304501.27346  19905650.8054                   19905645.9494
  -1848798.32846  -1437078.23043  24681610.0394                   24681609.1724
 11  8 17 15 53 30.0000000  0 10G03G06G07G10G13G16G19G20G23G08
   -596985.00448   -474644.93746  20704953.9224                   20704951.6994
     51681.01647     21088.71945  22147912.5704                   22147910.0434
  -1810230.93047  -1407978.33645  22643419.5314                   22643416.7854
   -974378.41846   -768948.19143  23753758.3524                   23753756.4964
  -1469523.45748  -1145476.99646  20141485.7974                   20141482.2034
   1156956.00447    868360.80545  22206532.5634                   22206529.5824
  -1992100.11347  -1546387.41846  21497192.7034                   21497188.1334
   1225803.16846    906636.76244  23961885.2034                   23961884.5044
   -306601.27348   -252846.11347  19918265.7584                   19918260.4384
  -1866485.88346  -1450860.76243  24678243.8134                   24678243.7034
 11  8 17 15 54  0.0000000  0 10G03G06G07G10G13G16G19G20G23G08
   -543220.88748   -432750.83246  20715184.7894                   20715182.5314
    135265.73447     86219.64845  22163817.8524                   22163815.6024
  -1821027.97747  -1416391.62145  22641365.1174                   22641361.9064
   -939946.02346   -742117.75843  23760310.9454                   23760308.5704
  -1459006.59048  -1137282.03546  20143486.9144                   20143483.5554
   1288944.16447    971208.69145  22231648.7504                   22231645.8094
  -2007016.38748  -1558010.47746  21494354.1884                   21494349.8794
   1359194.69546   1010578.03943  23987268.6884                   23987267.9104
   -239731.88348   -200740.11747  19930990.3594                   19930985.1994
  -1884210.48046  -1464672.06643  24674872.5314                   24674871.1254
 11  8 17 15 54 30.0000000  0 10G03G06G07G10G13G16G19G20G23G08
   -488812.95348   -390355.05146  20725538.1174                   20725535.9654
    219389.67647    151770.75045  22179826.4384                   22179823.7074
  -1831800.61747  -1424785.86745  22639314.8054                   22639312.2344
   -904997.50046   -714885.14843  23766961.3134                   23766959.2664
  -1447987.11348  -1128695.44146  20145584.1094                   20145580.4694
   1421078.32847   1074170.32445  22256793.4614                   22256790.4344
  -2021474.99247  -1569276.91046  21491602.7974                   21491598.2034
   1492539.93446   1114483.25443  24012643.9924                   24012642.8164
   -172284.77748   -148183.95346  19943824.9304                   19943819.8284
  -1901973.82846  -1478513.60943  24671491.3594                   24671490.2384
 11  8 17 15 55  0.0000000  0 10G03G06G07G10G13G16G19G20G23G08
   -433765.46948   -347460.93446  20736014.0634                   20736011.1764
    304047.76647    217738.07445  22195936.5784                   22195933.9024
  -1842552.80547  -1433164.17645  22637268.8984                   22637265.8594
   -869537.31646   -687253.81643  23773708.1724                   23773706.8094
  -1436466.73048  -1119718.52046  20147776.1174                   20147772.9344
   1553351.80147   1177240.53945  22281964.2894                   22281961.1644
  -2035477.19547  -1580187.69946  21488937.9384                   21488933.7584
   1625832.51646   1218347.44944  24038008.4454                   24038007.6414
   -104263.92648    -95180.71146  19956769.0394                   19956763.8524
  -1919780.38346  -1492388.83643  24668103.6174                   24668102.7034
 11  8 17 15 55 30.0000000  0 10G03G06G07G10G13G16G19G20G23G08
   -378072.94148   -304064.17246  20746611.4144                   20746609.0354
    389244.45347    284125.07845  22212148.7734                   22212146.1764
  -1853278.83647  -1441522.12945  22635228.2114                   22635224.6884
   -833560.45346   -659219.93443  23780554.8134                   23780553.1134
  -1424437.82848  -1110345.34446  20150065.0004                   20150061.9694
   1685767.99247   1280421.95345  22307161.7424                   22307158.6954
  -2049014.44547  -1590736.19146  21486362.1644                   21486357.6294
   1759075.34846   1322172.89844  24063363.9844                   24063362.6764
    -35663.43448    -41725.80547  19969823.4614                   19969818.0274
  -1937624.75446  -1506293.49643  24664707.2814                   24664706.0944
 11  8 17 15 56  0.0000000  0 10G03G06G07G10G13G16G19G20G23G08
   -321741.55148   -260169.59846  20757331.0784                   20757328.6954
    474972.50847    350926.14545  22228462.2194                   22228459.1724
  -1863984.87147  -1449864.48845  22633190.9144                   22633187.9924
   -797073.50046   -630788.54744  23787497.9454                   23787496.6134
  -1411904.71948  -1100579.28546  20152450.0314                   20152446.5984
   1818318.49247   1383708.01645  22332385.7734                   22332382.7384
  -2062090.57447  -1600925.36746  21483873.6414                   21483869.2154
   1892259.57046   1425952.64143  24088707.8754                   24088707.7424
     33510.46548     12175.91047  19982986.5554                   19982981.7774
  -1955513.65246  -1520232.85243  24661303.4694                   24661301.6604
 11  8 17 15 56 30.0000000  0 10G03G06G07G10G13G16G19G20G23G08
   -264768.22748   -215774.81646  20768172.6174                   20768170.3984
    561233.93847    418142.81345  22244877.2504                   22244874.9064
  -1874667.11347  -1458188.29745  22631157.8674                   22631155.5434
   -760073.87546   -601957.70743  23794539.1724                   23794537.1914
  -1398862.00848  -1090416.14846  20154932.3594                   20154928.6134
   1951004.34447   1487099.55545  22357635.1414                   22357631.6254
  -2074699.46948  -1610750.44946  21481474.2194                   21481469.8284
   2025385.59046   1529687.06344  24114041.5394                   24114040.8554
    103260.84048     66526.83246  19996259.5084                   19996254.7704
  -1973444.09446  -1534204.57443  24657890.6564                   24657889.6174
 11  8 17 15 57  0.0000000  0 10G03G06G07G10G13G16G19G20G23G08
   -207154.27348   -170880.84046  20779136.5784                   20779133.9964
    648026.43447    485773.31345  22261393.1724                   22261390.8634
  -1885326.74647  -1466494.49245  22629129.3834                   22629126.5474
   -722563.25846   -572728.66043  23801677.2114                   23801675.4734
  -1385308.99248  -1079855.35946  20157511.0944                   20157507.6994
   2083821.98447   1590593.78545  22382909.2274                   22382906.3984
  -2086839.48048  -1620210.18746  21479164.1334                   21479159.7504
   2158450.15246   1633373.60943  24139362.3134                   24139361.6414
    173586.72748    121326.20346  20009642.2114                   20009637.4614
  -1991417.91446  -1548210.09843  24654470.3444                   24654469.4534
 11  8 17 15 57 30.0000000  0 10G03G06G07G10G13G16G19G20G23G08
   -148903.28148   -125490.48046  20790221.2344                   20790219.2624
    735345.11747    553813.84045  22278008.9694                   22278007.5514
  -1895966.78547  -1474785.40645  22627104.6564                   22627101.9884
   -684545.51046   -543104.45444  23808911.6024                   23808910.3134
  -1371247.04348  -1068897.99646  20160187.0164                   20160183.9224
   2216765.28547   1694185.93845  22408207.5084                   22408204.5984
  -2098511.61748  -1629305.34446  21476942.7814                   21476938.8834
   2291446.84846   1737007.20743  24164671.1024                   24164670.0514
    244484.57848    176571.26246  20023133.5864                   20023128.7234
  -2009438.76246  -1562252.27742  24651041.2734                   24651040.3554
 11  8 17 15 58  0.0000000  0 10G03G06G07G10G13G16G19G20G23G08
    -90009.28148    -79599.06646  20801428.4144                   20801426.2154
    823195.16447    622268.37545  22294726.1334                   22294725.1374
  -1906581.10947  -1483056.30945  22625084.8054                   22625081.8594
   -646014.98046   -513080.69144  23816243.8054                   23816242.0234
  -1356668.19148  -1057537.85946  20162961.1724                   20162957.9804
   2349838.65647   1797879.43445  22433530.8444                   22433527.4774
  -2109706.79748  -1638028.84446  21474812.6884                   21474808.4694
   2424379.26246   1840590.78943  24189966.8594                   24189966.6334
    315960.75848    232266.96146  20036735.1724                   20036729.7344
  -2027500.60546  -1576326.46143  24647604.1804                   24647602.9304
 11  8 17 15 58 30.0000000  0 10G03G06G07G10G13G16G19G20G23G08
    -30481.35948    -33213.68046  20812755.9924                   20812754.2734
    911566.53547    691129.14845  22311543.0314                   22311541.5704
  -1917178.65247  -1491314.11345  22623068.2894                   22623065.0864
   -606981.13746   -482664.69943  23823671.7894                   23823670.2464
  -1341579.23848  -1045780.23846  20165832.9144                   20165829.2154
   2483030.71147   1901665.42245  22458876.6564                   22458873.1564
  -2120431.21548  -1646385.52346  21472771.8524                   21472767.3754
   2557236.18046   1944115.45743  24215249.7274                   24215248.7154
    388006.19148    288406.24246  20050444.7424                   20050439.7584
  -2045613.15246  -1590440.07843  24644157.2974                   24644155.8754
 11  8 17 15 59  0.0000000  0 10G03G06G07G10G13G16G19G20G23G08
     29680.46148     13665.64846  20824204.5314                   20824202.4614
   1000458.28147    760395.41845  22328458.5314                   22328456.4494
  -1927758.43047  -1499558.06245  22621054.7734                   22621052.3954
   -567444.02746   -451856.57443  23831195.2734                   23831193.5984
  -1325978.11748  -1033623.52746  20168801.3594                   20168798.0704
   2616339.46547   2005542.33245  22484244.4144                   22484240.5704
  -2130681.89848  -1654373.07046  21470820.9924                   21470816.4184
   2690015.35546   2047579.60243  24240516.5084                   24240515.9494
    460621.11348    344989.27346  20064263.0314                   20064257.9534
  -2063775.92646  -1604592.85943  24640701.1954                   24640700.2034
 11  8 17 15 59 30.0000000  0 10G03G06G07G10G13G16G19G20G23G08
     90472.98448     61036.43446  20835772.7504                   20835770.5124
   1089866.03547    830063.77345  22345472.5314                   22345471.0044
  -1938323.42647  -1507790.52045  22619044.7344                   22619041.3404
   -527407.39546   -420659.20343  23838814.1954                   23838812.5864
  -1309865.65247  -1021068.35946  20171867.6724                   20171864.3204
   2749759.91447   2109506.27745  22509633.2974                   22509630.3594
  -2140459.38748  -1661991.86346  21468960.2584                   21468956.0234
   2822711.16046   2150978.71543  24265767.5704                   24265767.0164
    533802.50448    402013.71546  20078189.0394                   20078183.8524
  -2081992.26646  -1618787.35943  24637234.8054                   24637233.8794
 11  8 17 16  0  0.0000000  0 10G03G06G07G10G13G16G19G20G23G08
    151899.86348    108901.52346  20847462.3284                   20847459.9384
   1179792.61347    900136.39845  22362584.8754                   22362582.9024
  -1948869.24647  -1516008.03545  22617037.4694                   22617034.2114
   -486867.68046   -389069.83243  23846529.2114                   23846526.2894
  -1293236.03148  -1008110.21146  20175032.2814                   20175028.8714
   2883293.64147   2213558.50845  22535044.0864                   22535040.3914
  -2149756.95748  -1669236.73046  21467191.4384                   21467186.8754
   2955324.88346   2254313.91843  24291003.3984                   24291002.7194
    607554.34048    459482.66846  20092223.4694                   20092218.4964
  -2100258.81246  -1633021.00443  24633758.9534                   24633757.9804
 11  8 17 16  0 30.0000000  0 10G03G06G07G10G13G16G19G20G23G08
    213953.84448    157255.25446  20859270.8594                   20859268.3834
   1270229.78547    970606.89145  22379794.7114                   22379792.6414
  -1959402.48047  -1524215.74645  22615033.0234                   22615030.0944
   -445832.79746   -357094.58644  23854337.4844                   23854334.8364
  -1276094.20747   -994752.96146  20178294.3984                   20178291.2704
   3016931.53947   2317691.89545  22560474.9454                   22560470.7894
  -2158578.93748  -1676110.99646  21465512.4224                   21465507.8524
   3087847.47346   2357578.05543  24316221.7034                   24316221.8794
    681869.28948    517390.39546  20106365.2894                   20106360.0744
  -2118582.56646  -1647299.22343  24630272.2664                   24630270.9184
 11  8 17 16  1  0.0000000  0 10G03G06G07G10G13G16G19G20G23G08
    276635.37148    206097.98846  20871198.5634                   20871195.8014
   1361177.01247   1041474.84445  22397101.8834                   22397098.6454
  -1969922.05547  -1532412.80145  22613031.2274                   22613028.2034
   -404302.21946   -324733.13743  23862241.0234                   23862238.2384
  -1258437.43048   -980994.43446  20181654.1884                   20181650.6454
   3150672.25847   2421905.39545  22585924.5944                   22585920.8014
  -2166921.79747  -1682611.92646  21463924.6254                   21463920.7234
   3220276.97346   2460769.68043  24341422.2114                   24341421.8674
    756748.37548    575737.71546  20120614.2504                   20120609.0164
  -2136962.86346  -1661621.52043  24626773.9304                   24626773.4304
 11  8 17 16  1 30.0000000  0 10G03G06G07G10G13G16G19G20G23G08
    339949.68848    255433.80546  20883246.8674                   20883244.1214
   1452638.53547   1112743.55545  22414506.1334                   22414503.6724
  -1980422.28547  -1540594.77745  22611032.5864                   22611030.1804
   -362271.28146   -291981.77743  23870238.6334                   23870236.8284
  -1240258.63348   -966829.13746  20185113.3834                   20185110.0434
   3284519.07847   2526201.58645  22611394.8444                   22611391.3984
  -2174777.62548  -1688733.32846  21462429.9304                   21462425.8634
   3352616.46146   2563891.17243  24366606.0084                   24366605.3484
    832196.74248    634528.63346  20134972.0234                   20134966.9734
  -2155394.56246  -1675983.81643  24623266.8594                   24623265.5664
 11  8 17 16  2  0.0000000  0 10G03G06G07G10G13G16G19G20G23G08
    403892.15248    305259.09846  20895414.8134                   20895412.0124
   1544608.53947   1184408.48445  22432007.2734                   22432004.5004
  -1990907.14547  -1548764.78145  22609037.9534                   22609035.0204
   -319745.04346   -258844.47343  23878330.6024                   23878329.2734
  -1221560.10548   -952258.86346  20188671.5164                   20188668.1174
   3418465.38747   2630575.28545  22636884.4304                   22636880.4734
  -2182147.98848  -1694476.46146  21461027.1254                   21461022.8554
   3484859.11746   2666937.20343  24391770.9774                   24391771.0554
    908209.87148    693759.62946  20149436.6484                   20149431.3524
  -2173882.48046  -1690389.93443  24619748.9614                   24619747.1254
 11  8 17 16  2 30.0000000  0 10G03G06G07G10G13G16G19G20G23G08
    468464.48448    355575.19545  20907702.3204                   20907699.7504
   1637088.28147   1256470.60945  22449606.0164                   22449603.2934
  -2001373.82847  -1556920.60945  22607046.0004                   22607043.2344
   -276721.86346   -225319.92243  23886517.8284                   23886515.3714
  -1202337.86347   -937280.50046  20192329.4224                   20192325.9694
   3552511.50847   2735026.77345  22662392.2974                   22662388.9024
  -2189028.02748  -1699837.51646  21459717.8134                   21459713.3554
   3617004.92646   2769907.76244  24416918.6024                   24416917.4184
    984789.71148    753432.21146  20164009.1564                   20164004.0514
  -2192424.22746  -1704838.02043  24616220.5234                   24616219.1054
 11  8 17 16  3  0.0000000  0 10G03G06G07G10G13G16G19G20G23G08
    533655.89148    406373.67645  20920107.9384                   20920105.4964
   1730065.80547   1328920.62145  22467298.2114                   22467296.2894
  -2011832.75047  -1565070.41445  22605055.9534                   22605052.9694
   -233213.05146   -191416.97743  23894797.0164                   23894795.2974
  -1182600.27348   -921900.56246  20196085.5004                   20196082.0634
   3686644.91047   2839546.26245  22687917.2034                   22687913.6024
  -2195425.73848  -1704822.74646  21458500.4614                   21458495.8094
   3749040.78546   2872792.62944  24442043.3054                   24442043.5474
   1061925.93448    813538.33646  20178687.8444                   20178682.3524
  -2211030.81246  -1719336.59043  24612679.7194                   24612678.4024
 11  8 17 16  3 30.0000000  0 10G03G06G07G10G13G16G19G20G23G08
    599472.41048    457659.26645  20932632.2894                   20932630.1644
   1823546.13347   1401762.42645  22485087.1174                   22485084.7974
  -2022276.99247  -1573208.77045  22603069.1094                   22603065.6214
   -189212.77046   -157131.07443  23903170.7114                   23903168.0164
  -1162339.18447   -906112.70746  20199940.9614                   20199937.5704
   3820869.74247   2944137.01645  22713459.3134                   22713455.4774
  -2201332.19948  -1709425.17646  21457376.5234                   21457372.0824
   3880970.78146   2975595.00044  24467148.9224                   24467149.7664
   1139624.59448    874082.73046  20193473.2344                   20193468.0434
  -2229695.80946  -1733880.78543  24609127.3444                   24609124.7034
 11  8 17 16  4  0.0000000  0 10G03G06G07G10G13G16G19G20G23G08
    665904.21948    509424.28146  20945273.9224                   20945271.7974
   1917518.89547   1474987.93045  22502969.3284                   22502967.5474
  -2032715.01647  -1581342.28545  22601082.2894                   22601079.2234
   -144730.43446   -122469.50443  23911635.2114                   23911633.6174
  -1141561.87947   -889922.60546  20203894.8364                   20203891.4694
   3955174.81347   3048790.26244  22739016.3054                   22739013.5474
  -2206753.69548  -1713649.71146  21456345.3444                   21456340.3834
   4012783.68846   3078306.15244  24492232.2424                   24492232.4304
   1217876.55148    935058.26246  20208364.4534                   20208359.1294
  -2248428.70346  -1748477.81243  24605563.2424                   24605560.3874
 11  8 17 16  4 30.0000000  0 10G03G06G07G10G13G16G19G20G23G08
    732962.39548    561677.38746  20958035.1094                   20958032.5634
   2011994.38747   1548605.17245  22520947.4614                   22520945.6134
  -2043134.79747  -1589461.59045  22599099.5864                   22599095.9494
    -99755.43746    -87424.10243  23920193.2664                   23920191.8324
  -1120254.56247   -873319.50046  20207949.2734                   20207946.0354
   4089569.88747   3153513.67645  22764591.0474                   22764588.0004
  -2211676.20348  -1717485.41446  21455408.2894                   21455403.4344
   4144488.56646   3180933.09444  24517294.7344                   24517294.6644
   1296692.62948    996473.36746  20223362.4774                   20223357.3014
  -2267217.93446  -1763118.71143  24601987.7424                   24601985.8754
 11  8 17 16  5  0.0000000  0 10G03G06G07G10G13G16G19G20G23G08
    800645.52048    614417.46545  20970914.4534                   20970912.4454
   2106969.87547   1622612.01645  22539020.9844                   22539018.9614
  -2053537.42647  -1597567.52345  22597119.6804                   22597116.7154
    -54289.88746    -51996.42243  23928845.1884                   23928843.6884
  -1098417.03148   -856303.23846  20212105.0704                   20212101.5004
   4224051.54747   3258304.55144  22790182.0164                   22790178.6644
  -2216098.43448  -1720931.29346  21454566.6024                   21454561.9304
   4276081.66446   3283472.94944  24542336.7664                   24542336.5594
   1376071.92248   1058327.32846  20238468.2504                   20238462.3244
  -2286064.83246  -1777804.55943  24598400.6024                   24598399.7624
 11  8 17 16  5 30.0000000  0 10G03G06G07G10G13G16G19G20G23G08
    868948.71948    667640.72346  20983912.6174                   20983909.9694
   2202439.69947   1697004.06645  22557188.2974                   22557186.5634
  -2063926.55547  -1605662.93445  22595143.1414                   22595140.1414
     -8338.73446    -16190.34443  23937588.8204                   23937587.4454
  -1076051.72748   -838875.73446  20216360.8834                   20216357.7664
   4358613.82447   3363158.25045  22815788.6254                   22815785.2704
  -2220022.09048  -1723988.67246  21453819.8594                   21453815.9064
   4407556.49246   3385920.62944  24567355.7424                   24567355.9384
   1456009.66048   1120616.46146  20253679.7344                   20253674.5594
  -2304973.97346  -1792538.90643  24594803.2034                   24594801.0274
 11  8 17 16  6  0.0000000  0 10G03G06G07G10G13G16G19G20G23G08
    937873.56348    721348.37946  20997028.0314                   20997026.0314
   2298404.13347   1771781.53145  22575450.3054                   22575448.1484
  -2074299.81247  -1613745.99245  22593169.1414                   22593166.2504
     38099.41446     19995.18443  23946425.8594                   23946424.7304
  -1053154.92647   -821034.07046  20220718.5784                   20220714.6454
   4493256.31347   3468074.41845  22841409.9064                   22841407.0594
  -2223442.92648  -1726654.25046  21453168.9224                   21453165.0394
   4538912.73846   3488275.90243  24592352.4774                   24592352.5084
   1536507.47748   1183342.02046  20268997.6724                   20268992.6024
  -2323943.61746  -1807320.40243  24591192.3914                   24591191.0554
 11  8 17 16  6 30.0000000  0 10G03G06G07G10G13G16G19G20G23G08
   1007413.90648    775535.63746  21010261.0634                   21010259.0514
   2394856.78147   1846939.40645  22593804.2664                   22593802.3874
  -2084661.73447  -1621820.21145  22591197.0784                   22591194.1484
     85018.01646     56555.09843  23955354.9224                   23955353.1174
  -1029730.16448   -802781.00446  20225175.7424                   20225172.3444
   4627971.75447   3573047.46145  22867045.8914                   22867042.2074
  -2226363.62148  -1728930.09446  21452613.0634                   21452608.6684
   4670142.80946   3590532.86743  24617324.7974                   24617324.7274
   1617559.70348   1246499.56646  20284421.5084                   20284416.2854
  -2342978.96546  -1822153.07443  24587570.0084                   24587569.0004
 11  8 17 16  7  0.0000000  0 10G03G06G07G10G13G16G19G20G23G08
   1077573.11748    830205.14145  21023612.0314                   21023609.4884
   2491799.82447   1922479.42245  22612252.0944                   22612249.9964
  -2095008.38747  -1629882.51645  22589228.2734                   22589225.4574
    132420.25846     93491.87543  23964375.6564                   23964373.6334
  -1005771.69547   -784112.07446  20229734.8134                   20229731.4654
   4762761.71947   3678078.55145  22892695.2034                   22892692.1454
  -2228777.60548  -1730811.11346  21452154.1254                   21452148.9614
   4801248.05946   3692692.55142  24642273.1564                   24642272.6254
   1699169.74648   1310091.78146  20299951.3594                   20299946.2154
  -2362076.46146  -1837034.24243  24583936.0864                   24583935.3014
 11  8 17 16  7 30.0000000  0 10G03G06G07G10G13G16G19G20G23G08
   1148341.09848    885349.01646  21037078.9614                   21037076.4844
   2589222.70747   1998393.31645  22630790.9224                   22630788.8714
  -2105348.76647  -1637939.93045  22587259.8754                   22587257.1294
    180296.29346    130797.85243  23973486.2194                   23973483.8364
   -981286.96148   -765033.05946  20234394.3834                   20234390.8484
   4897615.22347   3783159.17244  22918357.2034                   22918353.2704
  -2230692.10548  -1732302.91846  21451789.3914                   21451784.9924
   4932217.07446   3794746.09442  24667196.9384                   24667195.8364
   1781328.09848   1374111.25446  20315585.5164                   20315580.6054
  -2381245.44946  -1851971.04343  24580288.3594                   24580287.9534
 11  8 17 16  8  0.0000000  0 10G03G06G07G10G13G16G19G20G23G08
   1219722.23848    940970.66846  21050661.9384                   21050659.4344
   2687129.01247   2074683.92645  22649421.9614                   22649419.3244
  -2115676.97347  -1645987.86745  22585294.9924                   22585291.9304
    228649.87146    168475.94143  23982686.0314                   23982685.1374
   -956269.57048   -745538.98846  20239154.8674                   20239151.2544
   5032535.12147   3888291.50445  22944031.6254                   22944028.4384
  -2232099.59848  -1733399.65246  21451521.6334                   21451517.0004
   5063052.34045   3896695.41842  24692093.2894                   24692093.5514
   1864039.26248   1438561.49246  20331325.2274                   20331320.4494
  -2400481.16046  -1866959.87543  24576628.2114                   24576626.6604
 11  8 17 16  8 30.0000000  0 10G03G06G07G10G13G16G19G20G23G08
   1291717.86748    997071.14146  21064362.7894                   21064360.2034
   2785518.97347   2151351.40645  22668145.0944                   22668142.3284
  -2125990.84847  -1654024.64145  22583332.1954                   22583329.2074
    277482.13346    206527.02743  23991978.3204                   23991977.5124
   -930715.91447   -725627.05546  20244017.7734                   20244014.3754
   5167521.46147   3993475.64144  22969718.5164                   22969715.2274
  -2232995.72348  -1734097.92646  21451351.6724                   21451346.2894
   5193753.66445   3998540.25842  24716965.7344                   24716966.5274
   1947304.59448   1503443.54346  20347169.9304                   20347164.7974
  -2419781.73046  -1881999.21543  24572955.0474                   24572954.2074
 11  8 17 16  9  0.0000000  0 10G03G06G07G10G13G16G19G20G23G08
   -211089.45747   -173947.56646  20778387.5234                   20778385.3164
   1308975.16447   1000797.76645  22387167.6334                   22387165.2344
  -3711709.30947  -2889649.39845  22281580.2274                   22281577.0594
  -1248625.13746   -982647.49243  23701570.7274                   23701569.8714
  -2480042.45348  -1932894.48846  19949190.6484                   19949186.9574
   3727157.64547   2871114.18445  22695626.6954                   22695623.6644
  -3808797.21148  -2961995.18046  21151486.1174                   21151481.0394
   3748903.79746   2872683.08242  24442019.7114                   24442020.9964
    455707.42248    341159.99646  20063328.6884                   20063323.7854
  -4014567.10546  -3124689.05943  24269477.3444                   24269476.1484
 11  8 17 16  9 30.0000000  0 10G03G06G07G10G13G16G19G20G23G08
   -137873.57847   -116896.25045  20792320.3594                   20792317.3634
   1408321.34047   1078210.33245  22406072.6884                   22406070.5124
  -3721999.19947  -2897667.46545  22279622.0784                   22279618.7194
  -1198844.42646   -943857.36743  23711043.4924                   23711042.6994
  -2453417.39548  -1912147.69546  19954256.9774                   19954253.4494
   3862264.67647   2976392.36344  22721336.3984                   22721333.5904
  -3808669.87948  -2961895.95346  21151510.3284                   21151505.4064
   3879323.66045   2974308.66442  24466838.0634                   24466839.5824
    540073.44548    406899.73846  20079383.0004                   20079377.7464
  -4034003.96146  -3139834.61743  24265778.3594                   24265777.8594
 11  8 17 16 10  0.0000000  0 10G03G06G07G10G13G16G19G20G23G08
    -64041.65648    -59364.88345  20806370.1724                   20806367.4224
   1508150.59847   1155999.35545  22425069.6644                   22425067.8094
  -3732269.12147  -2905669.96945  22277667.6484                   22277664.7814
  -1148583.90246   -904693.35943  23720608.3594                   23720606.4574
  -2426247.07047  -1890976.01646  19959427.8054                   19959423.9224
   3997436.21947   3081720.78945  22747058.6024                   22747056.3914
  -3808020.11348  -2961389.62546  21151634.1954                   21151629.6024
   4009606.67246   3075827.66042  24491630.1094                   24491631.0744
    624996.21948    473073.29746  20095542.8444                   20095537.8364
  -4053501.91846  -3155027.77343  24262068.6334                   24262067.2424
 11  8 17 16 10 30.0000000  0 10G03G06G07G10G13G16G19G20G23G08
     10398.69948     -1359.43045  20820535.9774                   20820532.9844
   1608454.50047   1234158.22745  22444157.3364                   22444154.4384
  -3742525.35547  -2913661.80945  22275715.5164                   22275712.9414
  -1097850.99246   -865161.23043  23730261.6254                   23730260.4534
  -2398536.59448  -1869383.44546  19964700.8284                   19964697.0784
   4132663.47747   3187092.63744  22772791.3834                   22772788.9964
  -3806852.36748  -2960479.67646  21151856.2584                   21151851.7624
   4139744.03546   3177233.16842  24516394.9844                   24516395.0394
    710468.61348    539675.14146  20111807.9304                   20111803.0904
  -4073067.89146  -3170273.94943  24258345.1724                   24258343.7034
 11  8 17 16 11  0.0000000  0 10G03G06G07G10G13G16G19G20G23G08
     85446.86748     57119.64845  20834816.6884                   20834814.2854
   1709231.36347   1312685.62145  22463334.4534                   22463331.7154
  -3752767.57447  -2921642.73845  22273766.7814                   22273763.5434
  -1046647.09446   -825262.13344  23740006.1254                   23740004.3754
  -2370284.46948  -1847368.80546  19970076.9844                   19970073.2034
   4267944.67647   3292506.50844  22798534.6804                   22798532.5944
  -3805164.41448  -2959164.37546  21152177.2734                   21152172.9264
   4269733.03946   3278523.06643  24541131.2034                   24541131.0474
    796489.94548    606704.72746  20128177.2584                   20128172.3524
  -4092702.15246  -3185573.34443  24254608.2814                   24254607.6764
 11  8 17 16 11 30.0000000  0 10G03G06G07G10G13G16G19G20G23G08
    161099.32048    116069.60245  20849213.3054                   20849210.1454
   1810476.85947   1391578.19945  22482601.2504                   22482598.0704
  -3762997.63747  -2929614.19545  22271819.6334                   22271816.5594
   -994976.00046   -784998.97343  23749838.8284                   23749837.5394
  -2341492.02348  -1824933.14146  19975555.8754                   19975552.1604
   4403275.10247   3397958.73844  22824287.8204                   22824285.1884
  -3802956.64148  -2957444.02346  21152597.5944                   21152592.8594
   4399569.00046   3379693.66043  24565838.3134                   24565838.3754
    883056.87148    674159.44546  20144650.4144                   20144645.1884
  -4112407.55546  -3200928.16443  24250858.5634                   24250857.6484
 11  8 17 16 12  0.0000000  0 10G03G06G07G10G13G16G19G20G23G08
    237353.07848    175488.10245  20863723.5314                   20863721.3204
   1912187.89147   1470833.53545  22501956.1644                   22501952.8914
  -3773216.38347  -2937576.83245  22269875.6804                   22269872.1414
   -942840.09046   -744373.63343  23759760.3204                   23759758.8364
  -2312159.09448  -1802076.32046  19981137.8914                   19981134.3794
   4538651.51647   3503446.82844  22850048.7504                   22850046.0234
  -3800228.57448  -2955318.23846  21153116.7894                   21153112.4104
   4529247.99646   3480741.97743  24590515.4774                   24590516.3794
    970167.07048    742037.49646  20161226.9844                   20161221.8134
  -4132185.59046  -3216339.61343  24247095.5554                   24247093.8634
 11  8 17 16 12 30.0000000  0 10G03G06G07G10G13G16G19G20G23G08
    314211.80947    235378.01245  20878349.3284                   20878347.1604
   2014367.09047   1550453.67645  22521399.4064                   22521397.6254
  -3783419.11747  -2945526.98445  22267933.6644                   22267930.7114
   -890236.00846   -703383.47344  23769769.7894                   23769769.1134
  -2282279.81248  -1778793.76646  19986823.6174                   19986819.7504
   4674076.22347   3608972.52344  22875819.5314                   22875816.0664
  -3796973.35548  -2952781.68746  21153736.1564                   21153731.9064
   4658772.39546   3581669.83243  24615163.0164                   24615164.3524
   1057824.51648    810341.96946  20177907.6094                   20177903.0164
  -4152032.09046  -3231804.37543  24243317.8674                   24243316.9454
 11  8 17 16 13  0.0000000  0 10G03G06G07G10G13G16G19G20G23G08
    391676.92647    295740.43045  20893090.5084                   20893088.2934
   2117014.93847   1630438.99645  22540932.5234                   22540930.6524
  -3793603.12947  -2953462.57445  22265995.9614                   22265992.4344
   -837162.77347   -662027.73844  23779870.6094                   23779868.1294
  -2251850.32448  -1755082.48446  19992614.2504                   19992610.6214
   4809549.34447   3714535.96144  22901599.1094                   22901595.6884
  -3793186.72348  -2949831.05146  21154456.8444                   21154452.2114
   4788141.95346   3682477.02743  24639781.5554                   24639782.6684
   1146030.65648    879074.00046  20194692.7584                   20194687.3164
  -4171944.70746  -3247320.66443  24239529.3054                   24239527.8714
 11  8 17 16 13 30.0000000  0 10G03G06G07G10G13G16G19G20G23G08
    469736.94948    356566.40645  20907945.1094                   20907942.9924
   2220119.59047   1710780.26245  22560552.8364                   22560551.0474
  -3803778.19947  -2961391.19545  22264059.9454                   22264056.5784
   -783631.96146   -620315.44543  23790056.2114                   23790055.3134
  -2220879.59848  -1730949.45346  19998507.8594                   19998503.7934
   4945058.75047   3820127.64144  22927385.8754                   22927381.9924
  -3788876.82448  -2946472.68046  21155276.4064                   21155272.1174
   4917344.14846   3783153.77343  24664367.7424                   24664369.1374
   1234774.53548    948225.05546  20211580.0864                   20211575.0474
  -4191934.05946  -3262896.76243  24235725.2424                   24235724.0004
 11  8 17 16 14  0.0000000  0 10G03G06G07G10G13G16G19G20G23G08
    548396.36347    417859.44545  20922913.0474                   20922910.4344
   2323684.70347   1791480.33645  22580260.5784                   22580258.9494
  -3813938.12547  -2969307.99645  22262126.2344                   22262123.5234
   -729639.07446   -578243.11343  23800331.0394                   23800329.1214
  -2189360.90248  -1706389.43446  20004505.4064                   20004501.8714
   5080608.15247   3925750.53144  22953180.1334                   22953176.5904
  -3784035.96548  -2942700.56646  21156197.8524                   21156192.7464
   5046382.28146   3883702.73843  24688923.4774                   24688924.5704
   1324060.73448   1017798.68046  20228570.4774                   20228565.2704
  -4211994.44546  -3278528.18043  24231908.0704                   24231907.2034
 11  8 17 16 14 30.0000000  0 10G03G06G07G10G13G16G19G20G23G08
    627651.86748    479616.96945  20937994.9774                   20937992.5274
   2427706.10947   1872535.96545  22600055.4694                   22600053.6054
  -3824084.78947  -2977214.47745  22260195.9224                   22260192.3284
   -675187.70346   -535813.48843  23810692.5164                   23810691.1094
  -2157295.03547  -1681403.05546  20010607.2814                   20010603.7894
   5216193.27047   4031401.19544  22978981.1804                   22978977.9454
  -3778664.61748  -2938515.09046  21157220.1024                   21157215.5984
   5175251.85946   3984120.30943  24713446.8134                   24713447.4384
   1413886.32048   1087792.60946  20245664.0314                   20245658.8954
  -4232128.50447  -3294217.02343  24228077.1724                   24228075.6484
 11  8 17 16 15  0.0000000  0 10G03G06G07G10G13G16G19G20G23G08
    707511.54348    541845.28145  20953191.7194                   20953189.5474
   2532191.77347   1953953.33645  22619938.3134                   22619936.6414
  -3834207.95347  -2985102.63745  22258269.0004                   22258265.8134
   -620269.29346   -493019.97344  23821143.6954                   23821142.0164
  -2124670.98848  -1655981.71946  20016815.6094                   20016812.2344
   5351822.09847   4137085.97744  23004790.2504                   23004787.2504
  -3772750.79348  -2933906.91446  21158345.4614                   21158340.6994
   5303960.27346   4084412.34843  24737939.8524                   24737940.0784
   1504260.00448   1158213.63746  20262861.8284                   20262856.2774
  -4252326.49247  -3309955.68043  24224233.1954                   24224231.9064
 11  8 17 16 15 30.0000000  0  9G03G06G07G10G13G16G19G23G08
    787965.87548    604536.94945  20968501.9454                   20968499.0394
   2637131.03947   2035724.13344  22639907.2274                   22639905.3674
  -3844315.94947  -2992978.98845  22256345.5004                   22256342.4304
   -564894.28147   -449870.64143  23831681.7584                   23831679.4304
  -2091496.36348  -1630131.37146  20023128.6094                   20023124.7304
   5487483.29747   4242795.93044  23030606.2424                   23030603.1884
  -3766301.34848  -2928881.35946  21159572.7734                   21159568.1684
   1595171.94148   1229054.07846  20280161.3984                   20280156.2304
  -4272597.32047  -3325751.09443  24220375.7274                   24220374.0004
 11  8 17 16 16  0.0000000  0  9G03G06G07G10G13G16G19G23G08
    869017.19548    667693.82445  20983925.4694                   20983923.0204
   2742525.24247   2117849.48045  22659963.6254                   22659961.2934
  -3854405.00447  -3000840.59045  22254425.7274                   22254422.5634
   -509060.63747   -406363.93043  23842306.3674                   23842304.2034
  -2057766.50848  -1603848.38346  20029547.4614                   20029543.3914
   5623178.72347   4348532.60244  23056427.4224                   23056424.2544
  -3759311.03947  -2923434.35546  21160902.9304                   21160898.5984
   1686624.67648   1300315.93046  20297564.4454                   20297559.8444
  -4292937.87546  -3341600.87943  24216505.3984                   24216503.4614
 11  8 17 16 16 30.0000000  0  9G03G06G07G10G13G16G19G23G08
    950660.01648    731311.60245  20999461.8444                   20999459.2304
   2848368.55547   2200324.76644  22680104.5704                   22680102.2304
  -3864478.40647  -3008689.96545  22252508.4924                   22252505.8524
   -452773.45746   -362503.81243  23853017.0634                   23853015.2934
  -2023484.22748  -1577134.91846  20036070.8204                   20036067.1484
   5758902.51247   4454291.35544  23082255.5164                   23082252.6764
  -3751782.06648  -2917567.60946  21162335.4694                   21162330.7114
   1778613.33648   1371995.37546  20315069.3134                   20315064.3834
  -4313352.37946  -3357508.26243  24212620.6174                   24212618.3524
 11  8 17 16 17  0.0000000  0  9G03G06G07G10G13G16G19G23G08
   1032902.73448    795396.82445  21015111.8134                   21015109.4614
   2954668.88747   2283156.17244  22700333.2584                   22700331.3674
  -3874525.84847  -3016519.11345  22250597.0314                   22250593.7154
   -396024.33646   -318283.71543  23863815.3524                   23863813.6914
  -1988638.59048  -1549982.48046  20042701.5084                   20042697.6724
   5894662.38747   4560078.24244  23108089.6564                   23108087.1644
  -3743702.38748  -2911271.75046  21163873.1644                   21163869.2034
   1871146.85548   1444099.39146  20332678.1564                   20332672.8594
  -4333831.25446  -3373465.81243  24208722.9924                   24208721.0554
 11  8 17 16 17 30.0000000  0  9G03G06G07G10G13G16G19G23G08
   1115737.41848    859943.32445  21030874.4144                   21030872.0274
   3061417.43047   2366336.84045  22720646.1334                   22720644.7034
  -3884553.37547  -3024332.75845  22248688.7734                   22248685.0594
   -338821.51247   -273710.12943  23874701.9064                   23874699.8914
  -1953235.05948  -1522395.32846  20049438.8284                   20049434.8524
   6030449.50847   4665886.36344  23133928.9384                   23133926.3754
  -3735077.21148  -2904550.82846  21165514.5394                   21165510.0594
   1964217.35248   1516621.84046  20350388.6484                   20350384.0124
  -4354381.03946  -3389478.59843  24204812.0314                   24204810.2274
 11  8 17 16 18  0.0000000  0  9G03G06G07G10G13G16G19G23G08
   1199164.97348    924951.79745  21046750.7974                   21046747.9184
   3168614.82047   2449867.23044  22741046.0634                   22741044.0514
  -3894558.44547  -3032128.89845  22246785.0474                   22246781.4384
   -281164.03146   -228782.25843  23885672.9924                   23885671.2464
  -1917270.07047  -1494370.66046  20056282.5164                   20056278.7814
   6166264.55547   4771716.19144  23159774.0864                   23159770.9304
  -3725902.48448  -2897401.67646  21167260.3834                   21167255.5904
   2057826.02348   1589563.63746  20368201.6724                   20368196.7344
  -4374999.69546  -3405545.04743  24200889.0314                   24200887.5314
 11  8 17 16 18 30.0000000  0  9G03G06G07G10G13G16G19G23G08
   1283176.73848    990415.50045  21062737.2344                   21062734.7624
   3276251.79747   2533740.17244  22761528.0634                   22761526.0354
  -3904547.48847  -3039912.55145  22244883.7814                   22244880.7464
   -223060.08646   -183506.53943  23896729.9694                   23896728.8364
  -1880749.68748  -1465913.22746  20063232.3674                   20063228.4804
   6302098.30947   4877560.64144  23185621.7974                   23185619.3954
  -3716183.24647  -2889828.24246  21169109.9304                   21169105.1994
   2151964.94548   1662918.60946  20386115.8284                   20386110.9384
  -4395694.56246  -3421670.89843  24196950.9224                   24196948.8284
 11  8 17 16 19  0.0000000  0  9G03G06G07G10G13G16G19G23G08
   1367769.84448   1056332.19945  21078835.0234                   21078832.5824
   3384324.81647   2617952.89145  22782093.8834                   22782091.6994
  -3914521.41447  -3047684.41445  22242985.7894                   22242982.5164
   -164513.20347   -137885.61743  23907872.1804                   23907869.6134
  -1843674.48447  -1437023.46146  20070287.3204                   20070283.3594
   6437947.45747   4983417.08244  23211473.6884                   23211470.1024
  -3705919.27348  -2881830.32846  21171063.1484                   21171058.4614
   2246631.27048   1736684.54746  20404130.5234                   20404125.1994
  -4416467.20746  -3437857.34843  24192997.8134                   24192996.6764
 11  8 17 16 19 30.0000000  0  9G03G06G07G10G13G16G19G23G08
   1452945.07048   1122702.49245  21095043.7114                   21095041.2544
   3492834.02347   2702505.50045  22802742.1414                   22802740.4454
  -3924477.65647  -3055442.50845  22241091.4614                   22241088.2774
   -105522.32447    -91918.73843  23919097.1024                   23919095.2774
  -1806041.30947  -1407698.92246  20077448.7974                   20077445.1604
   6573812.39847   5089285.78944  23237327.6174                   23237324.9184
  -3695106.71947  -2873404.95346  21173120.1884                   21173116.3754
   2341825.82848   1810862.10246  20422245.4614                   20422240.2894
  -4437315.71946  -3454102.89843  24189030.7424                   24189028.9344
 11  8 17 16 20  0.0000000  0  9G03G06G07G10G13G16G19G23G08
   1538710.38348   1189532.60245  21111364.0234                   21111361.2664
   3601786.66047   2787403.62944  22823475.8284                   22823473.7384
  -3934406.35948  -3063179.12945  22239201.6644                   22239198.5354
    -46079.80147    -45599.93043  23930408.8364                   23930406.6684
  -1767839.37947  -1377931.19146  20084718.0704                   20084714.9224
   6709700.49647   5195172.56344  23263186.4064                   23263183.3054
  -3683734.43748  -2864543.43446  21175284.4064                   21175280.0594
   2437557.16848   1885457.91446  20440462.6334                   20440457.5704
  -4458230.98046  -3470400.45743  24185050.9844                   24185049.5594
 11  8 17 16 20 30.0000000  0  9G03G06G07G10G13G16G19G23G08
   1625059.13748   1256817.33246  21127795.1724                   21127792.6914
   3711175.35547   2872641.54345  22844291.6484                   22844290.0984
  -3944312.05947  -3070897.84045  22237316.8914                   22237313.8164
     13807.32446      1065.31343  23941804.4844                   23941803.3014
  -1729073.27747  -1347723.85546  20092095.3524                   20092091.8164
   6845604.35947   5301071.62144  23289048.0704                   23289044.2664
  -3671806.18448  -2855248.68446  21177554.3284                   21177549.6684
   2533818.78548   1960466.93846  20458780.2194                   20458775.7424
  -4479218.23846  -3486754.11743  24181055.9224                   24181055.5704
 11  8 17 16 21  0.0000000  0  9G03G06G07G10G13G16G19G23G08
   1711984.28948   1324551.20345  21144336.7344                   21144333.9024
   3820993.05947   2958213.73845  22865189.1884                   22865187.4964
  -3954199.66048  -3078602.44545  22235435.3524                   22235431.9224
     74132.36746     48071.79744  23953284.4454                   23953282.8444
  -1689747.47348  -1317080.37546  20099578.7504                   20099575.3874
   6981516.88347   5406977.41844  23314911.3594                   23314908.6484
  -3659325.38748  -2845523.37946  21179929.3054                   21179924.6054
   2630604.52748   2035884.36746  20477198.1024                   20477193.0664
  -4500282.45746  -3503167.77343  24177048.2664                   24177046.9024
 11  8 17 16 21 30.0000000  0  9G03G06G07G10G13G16G19G23G08
   1799487.08648   1392735.19145  21160988.0554                   21160985.6414
   3931240.35947   3044120.70345  22886168.7584                   22886167.1024
  -3964065.93447  -3086290.43445  22233557.5004                   22233554.5664
    134896.73846     95420.62944  23964847.1954                   23964846.0354
  -1649858.07448  -1285997.73046  20107169.5234                   20107166.0274
   7117439.12147   5512890.80144  23340776.8834                   23340772.9184
  -3646287.63348  -2835364.09846  21182410.2504                   21182405.7424
   2727915.41448   2111710.99246  20495715.8364                   20495710.8094
  -4521420.89546  -3519639.23843  24173025.4144                   24173024.4104
 11  8 17 16 22  0.0000000  0  9G03G06G07G10G13G16G19G23G08
   1887562.86048   1461365.65245  21177748.5164                   21177745.9494
   4041911.86547   3130358.21245  22907229.1024                   22907226.6914
  -3973913.12247  -3093963.55345  22231684.0314                   22231680.7544
    196095.37546    143107.87543  23976493.3444                   23976492.0594
  -1609407.05448  -1254477.47146  20114866.6644                   20114863.2894
   7253366.33547   5618808.07644  23366642.7974                   23366639.4384
  -3632694.40247  -2824771.96246  21184997.0474                   21184992.3594
   2825747.05048   2187943.39846  20514332.5004                   20514327.3524
  -4542637.21946  -3536171.39343  24168988.0084                   24168987.1334
 11  8 17 16 22 30.0000000  0  9G03G06G07G10G13G16G19G23G08
   1976209.97348   1530441.31645  21194617.4304                   21194614.8674
   4153005.54347   3216924.69545  22928369.1724                   22928367.4964
  -3983740.53148  -3101621.25845  22229813.7194                   22229810.5594
    257726.48446    191132.07843  23988220.4534                   23988219.5274
  -1568393.63748  -1222518.96546  20122671.6174                   20122667.9654
   7389296.57847   5724727.69944  23392509.3914                   23392506.0124
  -3618544.35248  -2813745.94146  21187689.1254                   21187684.8874
   2924098.12948   2264580.57446  20533047.9224                   20533043.1524
  -4563931.71946  -3552764.48043  24164936.3914                   24164934.4344
 11  8 17 16 23  0.0000000  0 10G03G06G07G10G13G16G19G28G23G08
   2065434.87948   1599967.21145  21211596.1724                   21211593.7194
   4264527.34847   3303824.78145  22949590.9304                   22949589.3834
  -3993539.69148  -3109256.94145  22227949.0474                   22227946.1454
    319796.67646    239498.43043  24000032.8834                   24000031.5744
  -1526809.02348  -1190115.37946  20130585.0234                   20130581.1644
   7525235.62947   5830654.19544  23418377.3524                   23418374.5394
  -3603827.61748  -2802278.34846  21190490.2894                   21190485.9774
  -3194087.25856  -2482029.12952  24754977.3134                   24754976.8914
   3022975.68848   2341627.98046  20551863.9144                   20551859.3094
  -4585296.14846  -3569412.07443  24160870.6644                   24160868.5234
 11  8 17 16 23 30.0000000  0 10G03G06G07G10G13G16G19G28G23G08
   2155229.00848   1669936.66046  21228683.9304                   21228680.9804
   4376468.17247   3391051.36345  22970892.9924                   22970891.0394
  -4003317.03147  -3116875.62545  22226088.3054                   22226085.4454
    382297.36746    288200.24243  24011925.8204                   24011924.8134
  -1484659.30547  -1157271.44946  20138605.7894                   20138601.9144
   7661174.97347   5936580.88744  23444246.3754                   23444243.1094
  -3588549.76248  -2790373.51646  21193397.5864                   21193392.9024
  -3222170.98446  -2503912.48043  24749633.0634                   24749633.2074
   3122371.59448   2419079.29746  20570778.4144                   20570773.3244
  -4606737.10546  -3586119.28143  24156790.3054                   24156788.1914
 11  8 17 16 24  0.0000000  0 10G03G06G07G10G13G16G19G28G23G08
   2245588.90648   1740346.95345  21245878.2814                   21245876.0664
   4488824.27347   3478601.52744  22992273.1174                   22992271.7854
  -4013073.64847  -3124478.18045  22224231.8524                   22224228.5904
    445225.39146    337235.02043  24023900.7114                   24023899.1484
  -1441945.26648  -1123987.79346  20146734.0944                   20146730.1054
   7797111.07047   6042505.07844  23470113.8984                   23470111.0434
  -3572710.47748  -2778031.21146  21196411.9064                   21196407.1024
  -3250056.50846  -2525641.37143  24744326.8204                   24744326.4924
   3222282.69148   2496932.05946  20589791.1564                   20589785.9384
  -4628256.75046  -3602887.77343  24152694.8444                   24152694.2624
 11  8 17 16 24 30.0000000  0 11G03G06G07G10G13G16G19G28G23G08G11
   2336508.53548   1811193.39145  21263180.3444                   21263177.0824
   4601588.97347   3566470.10544  23013731.8984                   23013729.8594
  -4022813.15647  -3132067.39545  22222378.3444                   22222374.9654
    508574.58646    386597.95743  24035955.1564                   24035954.8484
  -1398670.50048  -1090267.19946  20154968.8364                   20154965.0744
   7933037.95347   6148422.09844  23495980.2584                   23495977.7854
  -3556313.34048  -2765254.21546  21199531.7974                   21199527.1954
  -3277747.82046  -2547218.93443  24739057.8594                   24739056.6564
   3322703.32048   2575181.85946  20608900.3054                   20608895.2274
  -4649859.45746  -3619721.03143  24148584.6804                   24148583.0704
  -3194151.68756  -2486785.74253  24886511.3834                   24886512.5664
 11  8 17 16 25  0.0000000  0 11G03G06G07G10G13G16G19G28G23G08G11
   2427978.22748   1882468.47045  21280586.0314                   21280583.2704
   4714752.13047   3654649.17144  23035266.0394                   23035264.1374
  -4032542.59447  -3139648.76345  22220527.0554                   22220523.3714
    572335.35946    436281.62143  24048088.9774                   24048088.1724
  -1354842.29747  -1056115.36746  20163309.2424                   20163305.5474
   8068945.70947   6254324.19444  23521842.2814                   23521839.1684
  -3539364.79348  -2752047.55146  21202757.0084                   21202752.2034
  -3305252.28946  -2568650.91843  24733823.7274                   24733822.5554
   3423624.08248   2653821.36846  20628104.6334                   20628099.4494
  -4671553.41446  -3636625.33544  24144456.9454                   24144455.3014
  -3222307.02046  -2508724.80143  24881152.7194                   24881153.5594
 11  8 17 16 25 30.0000000  0 11G03G06G07G10G13G16G19G28G23G08G11
   2520001.71148   1954175.08245  21298097.1334                   21298095.0824
   4828317.28547   3743141.46544  23056876.9304                   23056875.1524
  -4042255.96947  -3147217.61745  22218678.5004                   22218675.3444
    636511.58246    486289.04743  24060301.5084                   24060300.7034
  -1310454.09848  -1021527.17246  20171756.1414                   20171752.4414
   8204838.25047   6360214.44144  23547701.9534                   23547699.6764
  -3521857.52048  -2738405.50846  21206088.7584                   21206083.9964
  -3332564.40646  -2589933.00043  24728625.9774                   24728625.5274
   3525049.02748   2732853.75446  20647405.4774                   20647400.6914
  -4693332.46147  -3653596.00443  24140312.6024                   24140310.2854
  -3250634.62146  -2530798.14843  24875761.9064                   24875764.1804
 11  8 17 16 26  0.0000000  0 11G03G06G07G10G13G16G19G28G23G08G11
   1037156.78948    798711.47345  21015921.4144                   21015918.8594
   3366861.93047   2604345.03144  22778771.4064                   22778769.4224
  -5627376.93047  -4382376.78545  21917039.8594                   21917036.9414
   -874320.45346   -690982.73043  23772799.3914                   23772799.1954
  -2840927.64148  -2214103.97346  19880516.5864                   19880513.0164
   6765294.49646   5238491.98844  23273765.5394                   23273763.6954
  -5079213.35247  -3951929.52346  20909733.5634                   20909728.7464
  -4935108.46546  -3838668.55943  24423671.8594                   24423671.9654
   2051556.08648   1584677.40246  20367009.1564                   20367004.1134
  -6290621.97747  -4898237.11344  23836357.8204                   23836355.9024
  -4854557.34846  -3780607.95743  24570545.7734                   24570546.8674
 11  8 17 16 26 30.0000000  0 11G03G06G07G10G13G16G19G28G23G08G11
   1130281.21948    871275.94145  21033642.3364                   21033639.7504
   3481222.45747   2693457.11744  22800533.6334                   22800531.6994
  -5637058.20347  -4389920.63345  21915197.7734                   21915194.6414
   -809320.88746   -640333.75443  23785168.8984                   23785167.7974
  -2795419.12948  -2178642.80546  19889176.5084                   19889172.4884
   6901149.62946   5344353.08244  23299618.0784                   23299615.1414
  -5060586.18447  -3937414.83646  20913278.5474                   20913273.8164
  -4962036.19146  -3859651.11743  24418547.6484                   24418547.2894
   2153983.43048   1664490.87546  20386500.6024                   20386495.2274
  -6312574.16847  -4915342.70744  23832180.5944                   23832178.5824
  -4883224.97346  -3802946.23843  24565090.4534                   24565090.6644
 11  8 17 16 27  0.0000000  0 11G03G06G07G10G13G16G19G28G23G08G11
   1223966.15248    944277.16045  21051469.8134                   21051467.4614
   3595989.92647   2782886.29744  22822372.5164                   22822370.7664
  -5646709.83647  -4397441.37945  21913361.2274                   21913357.8834
   -743899.80546   -589356.30143  23797617.9224                   23797616.8094
  -2749336.97347  -2142734.63946  19897945.7114                   19897942.0594
   7036995.49246   5450206.94944  23325468.5234                   23325466.3054
  -5041384.48848  -3922452.46546  20916932.1564                   20916927.5704
  -4988758.37547  -3880473.53143  24413463.2114                   24413462.1334
   2256922.05548   1744702.74646  20406089.0634                   20406084.0234
  -6334600.38747  -4932505.98444  23827988.8284                   23827987.1724
  -4912046.76246  -3825404.69143  24559606.0864                   24559606.1094
 11  8 17 16 27 30.0000000  0 11G03G06G07G10G13G16G19G28G23G08G11
   1318203.98448   1017709.21545  21069402.9774                   21069400.5084
   3711156.54747   2872626.46944  22844288.8284                   22844286.6134
  -5656336.51247  -4404942.66845  21911529.2034                   21911525.6604
   -678064.39146   -538056.02043  23810146.4774                   23810144.4144
  -2702685.93047  -2106383.19146  19906823.4144                   19906819.3094
   7172825.34046   5556048.34844  23351316.4694                   23351313.6454
  -5021612.52748  -3907045.73446  20920694.6334                   20920689.9574
  -5015280.17646  -3901139.79343  24408416.0784                   24408414.9224
   2360365.35248   1825307.87146  20425773.6884                   20425768.8834
  -6356705.99247  -4949731.09844  23823782.7734                   23823780.8364
  -4941026.11346  -3847985.89843  24554090.7034                   24554092.3404
 11  8 17 16 28  0.0000000  0 11G03G06G07G10G13G16G19G28G23G08G11
   1413000.02048   1091576.22745  21087441.7194                   21087439.0634
   3826727.15247   2962681.46544  22866280.8444                   22866278.7114
  -5665930.64847  -4412418.61345  21909704.0784                   21909700.1174
   -611809.37946   -486428.78143  23822753.5314                   23822753.3204
  -2655458.46947  -2069582.57446  19915810.3134                   19915806.5904
   7308644.45346   5661881.35944  23377161.6094                   23377159.1254
  -5001261.94548  -3891188.13746  20924567.1884                   20924562.4414
  -5041594.40646  -3921644.30543  24403408.1414                   24403407.3014
   2464318.76248   1906310.48446  20445555.5164                   20445550.4304
  -6378883.98846  -4967012.63344  23819562.1564                   23819560.5234
  -4970153.68046  -3870682.56643  24548547.7274                   24548548.9574
 11  8 17 16 28 30.0000000  0 11G03G06G07G10G13G16G19G28G23G08G11
   1508347.57448   1165873.00045  21105585.9144                   21105583.7624
   3942694.93447   3053045.94944  22888348.7584                   22888346.6484
  -5675495.93447  -4419872.07045  21907883.2114                   21907880.2154
   -545141.37946   -434479.72743  23835440.6254                   23835440.0204
  -2607658.69948  -2032336.01646  19924906.2034                   19924902.5124
   7444446.32846   5767700.94544  23403004.2894                   23403001.4884
  -4980336.21948  -3874882.35946  20928549.1484                   20928544.5084
  -5067705.37946  -3941990.43843  24398439.2424                   24398438.7974
   2568775.89148   1987705.62946  20465433.2504                   20465428.1024
  -6401138.75447  -4984353.96544  23815327.1564                   23815325.3634
  -4999431.98046  -3893496.65643  24542976.6174                   24542977.7544
 11  8 17 16 29  0.0000000  0 11G03G06G07G10G13G16G19G28G23G08G11
   1604244.39148   1240597.76645  21123834.4144                   21123832.1454
   4059056.67647   3143717.39144  22910491.4304                   22910489.3554
  -5685032.55147  -4427303.18045  21906068.6884                   21906065.5274
   -478062.95346   -382210.86343  23848204.5474                   23848203.9494
  -2559286.27347  -1994643.22746  19934111.1484                   19934107.4414
   7580228.90647   5873505.50444  23428843.0704                   23428840.1764
  -4958834.55148  -3858127.81346  20932641.0234                   20932636.1134
  -5093613.30546  -3962178.32043  24393508.5164                   24393508.6454
   2673734.94948   2069491.85946  20485406.2584                   20485400.8714
  -6423471.26647  -5001755.89844  23811077.6804                   23811075.6564
  -5028859.04746  -3916426.70743  24537377.1414                   24537378.1174
 11  8 17 16 29 30.0000000  0 11G03G06G07G10G13G16G19G28G23G08G11
   1700684.61348   1315745.99245  21142186.2194                   21142183.8794
   4175806.77047   3234691.45744  22932709.2814                   22932706.2734
  -5694543.25847  -4434714.09446  21904258.6644                   21904255.4024
   -410579.50046   -329626.39143  23861046.1884                   23861045.7894
  -2510344.78548  -1956507.00846  19943424.6884                   19943420.5394
   7715986.54347   5979290.61344  23454677.0474                   23454674.2074
  -4936759.43048  -3840926.41846  20936841.7274                   20936837.0944
  -5119321.57846  -3982210.66843  24388617.3444                   24388616.3524
   2779190.43448   2151664.93446  20505473.6094                   20505468.2894
  -6445885.15247  -5019221.26244  23806812.6334                   23806810.7344
  -5058436.71146  -3939474.05943  24531748.9454                   24531749.2114
 11  8 17 16 30  0.0000000  0 11G03G06G07G10G13G16G19G28G23G08G11
   1797672.93448   1391321.26245  21160643.0314                   21160640.2704
   4292949.27747   3325971.31644  22955000.0864                   22954997.6334
  -5704020.72748  -4442099.12546  21902455.7034                   21902451.6954
   -342686.23446   -276722.60243  23873966.6094                   23873965.2734
  -2460826.85548  -1917921.62546  19952847.7814                   19952843.5204
   7851724.36747   6085060.31644  23480507.0084                   23480504.4144
  -4914102.73848  -3823271.83246  20941153.3754                   20941148.4494
  -5144823.26645  -4002082.01243  24383763.3914                   24383763.9964
   2885147.46548   2234228.81646  20525636.5004                   20525631.6524
  -6468373.30146  -5036744.46944  23802532.7734                   23802530.8244
  -5088155.94946  -3962631.71943  24526092.0474                   24526093.6414
 11  8 17 16 30 30.0000000  0 11G03G06G07G10G13G16G19G28G23G08G11
   1895206.94548   1467321.78145  21179202.8444                   21179200.7384
   4410481.54347   3417554.85944  22977365.8594                   22977363.2234
  -5713464.77347  -4449458.08646  21900658.4224                   21900655.0704
   -274385.90246   -223501.62543  23886964.0704                   23886962.8954
  -2410732.50448  -1878887.07846  19962380.3914                   19962376.5204
   7987440.00447   6190812.70744  23506332.6174                   23506330.1374
  -4890864.56648  -3805164.16046  20945575.4144                   20945570.3284
  -5170118.72346  -4021792.70742  24378950.7274                   24378950.8554
   2991603.69148   2317181.68746  20545894.2504                   20545889.4924
  -6490936.84047  -5054326.40643  23798239.0314                   23798236.4774
  -5118015.09446  -3985898.43042  24520410.9144                   24520411.9734
 11  8 17 16 31  0.0000000  0 11G03G06G07G10G13G16G19G28G23G08G11
   1993278.91848   1543741.47745  21197865.7814                   21197863.0984
   4528395.30947   3509435.68444  22999804.3054                   22999801.5744
  -5722880.77747  -4456795.22346  21898866.3754                   21898862.8054
   -205686.41046   -169969.57843  23900036.4454                   23900035.4414
  -2360067.14148  -1839407.58646  19972021.2424                   19972017.8674
   8123125.80546   6296541.87544  23532152.8984                   23532150.2504
  -4867049.28147  -3786606.78146  20950106.9224                   20950102.2424
  -5195213.50046  -4041346.90642  24374174.1884                   24374175.1644
   3098551.51648   2400517.61346  20566246.1334                   20566241.3714
  -6513581.27346  -5071971.36343  23793929.6644                   23793928.5234
  -5148017.71846  -4009276.93942  24514701.1024                   24514702.4494
 11  8 17 16 31 30.0000000  0 11G03G06G07G10G13G16G19G28G23G08G11
   2091889.54848   1620580.90645  21216630.7814                   21216628.1454
   4646691.26447   3601614.32644  23022314.7584                   23022313.5124
  -5732264.69547  -4464107.35246  21897080.8284                   21897077.1414
   -136586.28546   -116125.36743  23913186.1644                   23913184.6054
  -2308827.34348  -1799480.47646  19981772.0784                   19981767.9494
   8258783.39147   6402249.01644  23557967.7344                   23557965.8674
  -4842652.76548  -3767596.50946  20954749.7584                   20954744.3524
  -5220104.23446  -4060742.24242  24369438.0634                   24369438.1214
   3205992.72448   2484237.99846  20586691.1094                   20586686.6914
  -6536303.40647  -5089676.88343  23789605.7034                   23789603.5634
  -5178158.38746  -4032763.04342  24508966.0394                   24508966.4104
 11  8 17 16 32  0.0000000  0 11G03G06G07G10G13G16G19G28G23G08G11
   2191039.47748   1697840.58645  21235498.6254                   21235495.1374
   4765369.55147   3694090.87144  23044898.6254                   23044897.3244
  -5741613.27347  -4471391.94546  21895301.5314                   21895298.0314
    -67085.07047    -61968.59844  23926411.9694                   23926411.2664
  -2257010.34048  -1759103.60246  19991632.5944                   19991628.8094
   8394413.55546   6507934.81344  23583777.4534                   23583775.0124
  -4817671.31348  -3748130.43846  20959503.2504                   20959498.5664
  -5244788.10246  -4079976.34042  24364741.1484                   24364740.5314
   3313927.67648   2568343.11346  20607230.6254                   20607226.0824
  -6559100.77747  -5107441.01244  23785267.8594                   23785265.9064
  -5208432.21546  -4056352.93042  24503204.7424                   24503205.7704
 11  8 17 16 32 30.0000000  0 11G03G06G07G10G13G16G19G28G23G08G11
   2290722.19148   1775515.41045  21254467.3914                   21254464.5044
   4884423.36747   3786860.04744  23067553.8054                   23067551.9414
  -5750930.22347  -4478651.88746  21893528.7114                   21893525.2544
      2810.92246     -7504.23043  23939712.9774                   23939711.9884
  -2204619.89148  -1718279.88346  20001601.6954                   20001598.5164
   8530010.42646   6613594.64544  23609580.5314                   23609577.6884
  -4792108.41448  -3728211.28146  20964367.7814                   20964363.1804
  -5269269.60947  -4099052.77343  24360082.3134                   24360081.1884
   3422350.50048   2652828.39546  20627863.0864                   20627857.7664
  -6581977.59446  -5125267.07443  23780914.3594                   23780912.2074
  -5238841.32846  -4080048.15642  24497417.2584                   24497418.7114
 11  8 17 16 33  0.0000000  0 11G03G06G07G10G13G16G19G28G23G08G11
   2390943.67248   1853610.05945  21273538.8204                   21273535.8284
   5003858.19547   3879926.11744  23090281.0634                   23090280.0084
  -5760206.94547  -4485880.49245  21891762.8444                   21891760.1454
     73107.44946     47272.24243  23953088.9924                   23953088.7194
  -2151648.02748  -1677003.11346  20011682.3914                   20011678.2234
   8665580.05946   6719233.26644  23635378.6564                   23635375.6644
  -4765955.26248  -3707832.18446  20969344.4924                   20969340.1484
  -5293540.29747  -4117964.92243  24355463.9534                   24355462.3954
   3531267.41848   2737698.69146  20648589.2734                   20648584.3484
  -6604925.93047  -5143148.81243  23776547.1174                   23776544.8594
  -5269375.82446  -4103841.08642  24491607.2424                   24491608.2814
 11  8 17 16 33 30.0000000  0 11G03G06G07G10G13G16G19G28G23G08G11
   2491696.28948   1932118.57445  21292711.6414                   21292708.7814
   5123666.35247   3973283.07044  23113080.6174                   23113078.5784
  -5769448.02747  -4493081.32046  21890004.6174                   21890001.4454
    143796.91046    102354.91044  23966542.1644                   23966539.7274
  -2098099.65648  -1635277.12146  20021872.2974                   20021868.0984
   8801115.30546   6824845.11743  23661169.9304                   23661166.9384
  -4739216.30548  -3686996.62146  20974433.0474                   20974428.2854
  -5317605.43447  -4136716.89743  24350884.5004                   24350883.5274
   3640670.86348   2822948.09446  20669408.1954                   20669403.1254
  -6627951.33247  -5161090.67643  23772165.7274                   23772163.7624
  -5300038.94946  -4127734.30143  24485772.1484                   24485773.0394
 11  8 17 16 34  0.0000000  0 11G03G06G07G10G13G16G19G28G23G08G11
   2592977.29348   2011038.82045  21311984.7894                   21311981.6374
   5243844.68447   4066928.48844  23135949.5004                   23135948.1914
  -5778653.47347  -4500254.38746  21888252.9774                   21888249.5984
    214876.42646    157741.50444  23980067.3524                   23980066.4104
  -2043975.18448  -1593102.21146  20032171.2894                   20032167.8554
   8936613.86746   6930428.35243  23686955.1334                   23686952.2274
  -4711890.85248  -3665704.06346  20979632.8444                   20979628.0434
  -5341465.74647  -4155309.25843  24346343.3984                   24346342.6054
   3750558.53148   2908574.80146  20690319.0784                   20690314.4104
  -6651054.54347  -5179093.09844  23767769.1564                   23767768.0314
  -5330828.80146  -4151726.25842  24479912.5234                   24479913.7664
 11  8 17 16 34 30.0000000  0 11G03G06G07G10G13G16G19G28G23G08G11
   2694785.49248   2090369.87145  21331357.9384                   21331355.8444
   5364391.72747   4160861.21544  23158889.1484                   23158886.6214
  -5787821.15647  -4507398.03546  21886508.2974                   21886504.9224
    286345.37147    213431.57043  23993667.5394                   23993666.5864
  -1989273.29748  -1550477.38346  20042581.2814                   20042577.0084
   9072075.41046   7035982.74643  23712731.8444                   23712729.6054
  -4683977.62148  -3643953.48446  20984944.5554                   20984939.7814
  -5365119.93047  -4173741.00443  24341842.8524                   24341841.4734
   3860929.75848   2994578.32446  20711322.2584                   20711317.0904
  -6674234.23047  -5197155.16043  23763358.1334                   23763356.8484
  -5361742.12946  -4175814.43443  24474030.6414                   24474030.4924
 11  8 17 16 35  0.0000000  0 11G03G06G07G10G13G16G19G28G23G08G11
   2797116.49648   2170108.30945  21350831.0944                   21350828.2504
   5485303.42647   4255078.11344  23181897.3984                   23181895.1954
  -5796952.21547  -4514513.14145  21884770.5474                   21884767.1094
    358199.54346    269421.82443  24007341.1174                   24007340.1564
  -1933995.63348  -1507403.89146  20053099.9614                   20053096.3244
   9207496.76647   7141505.81644  23738502.2974                   23738499.1684
  -4655477.16848  -3621745.31646  20990368.0784                   20990363.1134
  -5388569.47347  -4192013.31343  24337380.6094                   24337378.9734
   3971780.78548   3080955.71546  20732416.2894                   20732411.2194
  -6697491.91047  -5215277.99244  23758932.1334                   23758930.6684
  -5392778.03946  -4199998.11343  24468124.3284                   24468124.1684
 11  8 17 16 35 30.0000000  0 11G03G06G07G10G13G16G19G28G23G08G11
   2899979.02047   2250260.91445  21370404.9774                   21370402.5904
   5606587.65647   4349585.25844  23204977.3054                   23204975.7664
  -5806035.36748  -4521590.91046  21883041.8524                   21883038.9694
    430447.39146    325718.75843  24021089.7664                   24021088.3914
  -1878131.43048  -1463873.35546  20063730.7034                   20063726.8364
   9342885.99246   7247003.83643  23764265.8674                   23764262.4224
  -4626378.09048  -3599070.69546  20995905.2734                   20995900.3164
  -5411804.13747  -4210118.17643  24332959.1644                   24332957.5004
   4083120.34048   3167713.77346  20753603.4144                   20753598.3914
  -6720817.14547  -5233453.47343  23754493.7734                   23754491.5124
  -5423924.07846  -4224267.60243  24462196.7274                   24462197.0704
 11  8 17 16 36  0.0000000  0 11G03G06G07G10G13G16G19G28G23G08G11
   3003365.28548   2330821.62945  21390078.9694                   21390075.7974
   5728236.50447   4444376.55944  23228126.8204                   23228123.9144
  -5815075.35247  -4528635.03946  21881321.7584                   21881318.9574
    503081.37446    382316.66243  24034911.2114                   24034909.8634
  -1821686.06348  -1419889.96946  20074472.1414                   20074468.1174
   9478236.45746   7352471.70343  23790022.2034                   23790019.2464
  -4596685.41048  -3575933.53146  21001555.9774                   21001550.8134
  -5434828.90647  -4228059.50443  24328577.6724                   24328575.8594
   4194940.76648   3254846.52346  20774881.9384                   20774877.5394
  -6744215.25047  -5251685.74244  23750041.5634                   23750039.2384
  -5455183.51246  -4248625.48043  24456248.9924                   24456248.1994
 11  8 17 16 36 30.0000000  0 11G03G06G07G10G13G16G19G28G23G08G11
   3107268.31647   2411785.02045  21409850.7034                   21409848.2344
   5850242.79347   4539446.34844  23251343.6884                   23251341.7154
  -5824076.07847  -4535648.57846  21879609.3524                   21879605.6994
    576094.48046    439209.94143  24048804.7664                   24048803.9144
  -1764664.21948  -1375457.37946  20085322.8914                   20085318.7074
   9613541.78946   7457904.35243  23815769.3914                   23815767.5274
  -4566402.84048  -3552336.71146  21007318.2734                   21007313.1804
  -5457648.36346  -4245840.80944  24324234.9224                   24324233.6644
   4307235.58648   3342348.94546  20796251.2504                   20796246.7584
  -6767690.95747  -5269978.43443  23745574.2734                   23745572.0824
  -5486558.71946  -4273073.55543  24450277.8444                   24450278.3134
 11  8 17 16 37  0.0000000  0 11G03G06G07G10G13G16G19G28G23G08G11
   3211687.21147   2493150.36745  21429721.2894                   21429718.5314
   5972605.54747   4634793.93044  23274628.4304                   23274626.3634
  -5833035.36348  -4542629.82846  21877904.3134                   21877901.1024
    649486.17646    496398.21943  24062770.6564                   24062769.7344
  -1707063.99648  -1330574.10546  20096284.1254                   20096279.9614
   9748802.21946   7563302.01243  23841509.8054                   23841506.6174
  -4535528.17247  -3528278.51246  21013193.3984                   21013188.0984
  -5480260.95346  -4263460.93443  24319931.4694                   24319930.7854
   4420004.49248   3430220.78146  20817710.2034                   20817705.5004
  -6791242.36347  -5288330.14844  23741092.0474                   23741090.7194
  -5518045.59046  -4297608.68443  24444286.1804                   24444285.7544
 11  8 17 16 37 30.0000000  0 11G03G06G07G10G13G16G19G28G23G08G11
   3316622.92647   2574918.44145  21449689.8594                   21449687.5944
   6095325.05947   4730419.48844  23297981.4384                   23297979.6054
  -5841949.19948  -4549575.66046  21876208.1804                   21876204.7074
    723257.02047    553881.94543  24076809.6414                   24076807.9694
  -1648883.12948  -1285238.37946  20107355.4144                   20107351.7154
   9884018.88046   7668665.61343  23867240.1724                   23867237.1604
  -4504057.78148  -3503756.11346  21019182.0394                   21019176.8524
  -5502664.22346  -4280917.93043  24315668.2584                   24315667.3794
   4533248.06248   3518462.48846  20839259.9534                   20839254.7424
  -6814866.78147  -5306738.75844  23736596.5784                   23736594.6564
  -5549639.13346  -4322226.93043  24438274.6804                   24438273.5514
 11  8 17 16 38  0.0000000  0 11G03G06G07G10G13G16G19G28G23G08G11
   3422069.03548   2657084.22345  21469755.6484                   21469752.9454
   6218395.34047   4826318.35544  23321400.2664                   23321399.0204
  -5850820.57848  -4556488.40246  21874519.7504                   21874516.4304
    797401.22346    611656.60543  24090918.6484                   24090918.0164
  -1590124.55948  -1239452.49246  20118536.7344                   20118532.6884
  10019186.33247   7773990.86744  23892962.2194                   23892959.2194
  -4471994.53948  -3478771.75446  21025283.3674                   21025278.3834
  -5524861.30146  -4298214.28143  24311444.2894                   24311443.1604
   4646960.98048   3607069.91846  20860898.5314                   20860893.8984
  -6838568.23447  -5325207.38744  23732086.4694                   23732084.5124
  -5581340.46946  -4346929.20343  24432240.9454                   24432240.9384
 11  8 17 16 38 30.0000000  0 11G03G06G07G10G13G16G19G28G23G08G11
   3528025.70747   2739647.85545  21489918.2424                   21489916.0704
   6341816.12547   4922490.36344  23344886.9694                   23344884.6884
  -5859646.49648  -4563365.71546  21872840.4144                   21872836.8794
    871918.53946    669722.02043  24105098.9534                   24105097.1174
  -1530786.13348  -1193214.78146  20129828.5084                   20129824.9774
  10154305.47747   7879278.44144  23918674.1254                   23918671.3484
  -4439335.49247  -3453323.12946  21031498.3834                   21031493.3754
  -5546849.80946  -4315348.10543  24307259.3674                   24307258.8954
   4761143.64848   3696043.37546  20882627.1804                   20882622.4224
  -6862343.44547  -5343733.47744  23727561.5474                   23727560.4144
  -5613144.91846  -4371711.77043  24426189.6564                   24426188.3244
 11  8 17 16 39  0.0000000  0 11G03G06G07G10G13G16G19G28G23G08G11
   3634492.19147   2822608.74645  21510178.5634                   21510176.0084
   6465586.02047   5018934.41844  23368439.3834                   23368437.4224
  -5868424.59448  -4570205.76646  21871169.8754                   21871166.6414
    946808.28546    728077.62943  24119350.3524                   24119348.2584
  -1470866.68448  -1146524.32046  20141230.7734                   20141227.1724
  10289375.90647   7984528.08644  23944377.6484                   23944374.9534
  -4406079.04748  -3427409.00046  21037826.6644                   21037822.0004
  -5568628.69946  -4332318.59443  24303114.9534                   24303114.1134
   4875794.90248   3785381.98046  20904444.4144                   20904439.9104
  -6886191.05547  -5362316.02344  23723024.4844                   23723022.3984
  -5645048.93446  -4396571.94543  24420117.7274                   24420117.3754
 11  8 17 16 39 30.0000000  0 11G03G06G07G10G13G16G19G28G23G08G11
   3741468.12547   2905966.60245  21530535.1644                   21530533.0004
   6589705.03547   5115650.48444  23392058.4844                   23392056.7544
  -5877151.97348  -4577006.30946  21869509.0634                   21869506.1764
   1022070.34446    786723.32043  24133671.2894                   24133670.8204
  -1410363.89148  -1099379.29746  20152744.2114                   20152740.1804
  10424398.61747   8089740.52044  23970071.2974                   23970068.3324
  -4372222.22748  -3401027.05546  21044269.5944                   21044264.0434
  -5590195.38746  -4349123.74643  24299011.6884                   24299009.9964
   4990915.15648   3875086.03946  20926351.1724                   20926346.6334
  -6910108.88747  -5380953.24644  23718472.4534                   23718470.3834
  -5677047.91446  -4421506.10243  24414027.8134                   24414028.7464
 11  8 17 16 40  0.0000000  0 11G03G06G07G10G13G16G19G28G23G08G11
   3848947.20747   2989716.52745  21550987.9224                   21550985.0634
   6714166.52347   5212633.44144  23415742.8444                   23415741.1994
  -5885831.68048  -4583769.69946  21867857.6174                   21867854.6524
   1097698.74246    845654.50043  24148063.1884                   24148062.1054
  -1349281.86748  -1051782.93046  20164367.5784                   20164363.8954
  10559368.18446   8194911.57444  23995755.5164                   23995753.0044
  -4337768.44148  -3374179.94546  21050825.8594                   21050820.7664
  -5611553.84046  -4365766.64143  24294946.5784                   24294945.4264
   5106498.46548   3965150.90646  20948345.9534                   20948341.6094
  -6934101.10547  -5399648.45744  23713906.8594                   23713904.4574
  -5709143.46146  -4446515.50043  24407920.2974                   24407921.3244
 11  8 17 16 40 30.0000000  0 11G03G06G07G10G13G16G19G28G23G08G11
   3956925.87947   3073855.72745  21571535.3984                   21571532.6454
   6838967.00847   5309880.50844  23439491.6414                   23439489.7584
  -5894463.60548  -4590495.85546  21866214.7734                   21866211.5704
   1173689.96146    904868.41043  24162524.0164                   24162523.0664
  -1287621.50848  -1003735.91846  20176101.0944                   20176097.1914
  10694282.16146   8300039.28744  24021428.6724                   24021426.4734
  -4302717.74248  -3346867.69946  21057495.6564                   21057490.8324
  -5632704.92646  -4382247.95743  24290921.7504                   24290920.4454
   5222541.57048   4055574.05946  20970428.1644                   20970423.4264
  -6958168.22347  -5418402.01644  23709327.5004                   23709324.7114
  -5741334.02046  -4471598.99243  24401795.2194                   24401794.5124
 11  8 17 16 41  0.0000000  0 11G03G06G07G10G13G16G19G28G23G08G11
   4065402.31647   3158382.79745  21592177.6094                   21592174.9264
   6964104.50046   5407390.21544  23463304.3054                   23463302.6884
  -5903046.28148  -4597183.64546  21864581.7734                   21864577.9534
   1250042.24646    964363.65643  24177053.0394                   24177052.3984
  -1225382.27348   -955237.82446  20187945.0864                   20187941.2704
  10829139.02446   8405122.47744  24047091.1484                   24047088.3054
  -4267069.44148  -3319089.77746  21064279.0004                   21064274.6684
  -5653648.22746  -4398567.34443  24286937.5864                   24286935.2584
   5339043.41048   4146354.66446  20992597.8444                   20992592.5744
  -6982309.00847  -5437212.98044  23704733.0554                   23704730.9694
  -5773616.66846  -4496754.23043  24395651.8524                   24395651.4654
 11  8 17 16 41 30.0000000  0 11G03G06G07G10G13G16G19G28G23G08G11
   4174378.98047   3243299.66445  21612915.6414                   21612912.8714
   7089581.34847   5505164.35944  23487182.2194                   23487179.3054
  -5911574.18848  -4603828.75846  21862958.7664                   21862955.3794
   1326758.47346   1024142.52043  24191651.9064                   24191650.4964
  -1162559.74648   -906285.22346  20199899.6724                   20199895.9104
  10963942.69546   8510164.24643  24072743.0394                   24072740.0354
  -4230818.02348  -3290841.91446  21071178.1024                   21071173.0824
  -5674378.96946  -4414721.11743  24282991.5784                   24282990.0984
   5456006.32048   4237494.55146  21014855.2274                   21014850.7424
  -7006518.96947  -5456077.82844  23700125.9844                   23700124.0864
  -5805984.16446  -4521975.55143  24389492.6334                   24389491.9804
 11  8 17 16 42  0.0000000  0 11G03G06G07G10G13G16G19G28G23G08G11
   4283847.41047   3328599.73445  21633746.4694                   21633744.0824
   7215388.77247   5603196.07644  23511122.2894                   23511120.1094
  -5920052.41448  -4610435.16046  21861345.3834                   21861342.1174
   1403829.91446   1084198.14843  24206318.3524                   24206316.7274
  -1099160.08648   -856882.90246  20211964.3524                   20211960.9654
  11098685.61746   8615158.67243  24098383.7274                   24098381.3444
  -4193969.32248  -3262128.63146  21078189.7034                   21078185.3954
  -5694903.14846  -4430713.98043  24279085.9384                   24279084.0004
   5573422.23048   4328987.41846  21037198.6484                   21037193.7894
  -7030803.92647  -5475001.16844  23695505.6094                   23695502.1884
  -5838440.16846  -4547265.85943  24383316.7194                   24383315.6334
 11  8 17 16 42 30.0000000  0 11G03G06G07G10G13G16G19G28G23G08G11
   4393806.84847   3414282.39145  21654671.0554                   21654668.8324
   7341526.11746   5701484.87544  23535125.5474                   23535123.8164
  -5928478.28947  -4617000.77346  21859742.0234                   21859738.3524
   1481256.21146   1144530.29343  24221052.2034                   24221051.4454
  -1035181.73448   -807029.65246  20224139.0084                   20224135.2304
  11233368.05946   8720105.98043  24124012.9534                   24124010.5044
  -4156520.86748  -3232948.01246  21085316.2894                   21085311.1914
  -5715218.74246  -4446544.24643  24275219.8054                   24275218.8164
   5691290.89548   4420833.07446  21059628.6954                   21059623.7154
  -7055161.64647  -5493981.15644  23690869.9144                   23690867.4964
  -5870980.28946  -4572621.70743  24377123.6334                   24377124.4264
 11  8 17 16 43  0.0000000  0 11G03G06G07G10G13G16G19G28G23G08G11
   4504257.44147   3500347.77045  21675689.0394                   21675686.3794
   7467993.42246   5800030.78544  23559192.0474                   23559189.8984
  -5936848.14848  -4623522.73446  21858149.2424                   21858145.7464
   1559037.77746   1205139.23843  24235853.8284                   24235852.7384
   -970622.24648   -756723.57846  20236423.8754                   20236420.3754
  11367991.14846   8825007.03143  24149630.7424                   24149629.1214
  -4118469.53548  -3203297.62146  21092556.9694                   21092552.1604
  -5735323.53546  -4462210.27043  24271393.9694                   24271392.7114
   5809612.54748   4513031.71546  21082144.4534                   21082139.9454
  -7079589.62447  -5513015.90444  23686221.1804                   23686219.1914
  -5903599.70746  -4598039.28943  24370916.1884                   24370917.1454
 11  8 17 16 43 30.0000000  0 11G03G06G07G10G13G16G19G28G23G08G11
   3039776.48847   2359193.76645  21397008.0864                   21397005.2074
   6019368.21146   4671231.91844  23283527.2194                   23283524.4304
  -7520585.60548  -5857603.87946  21556774.2584                   21556770.8164
     61750.47746     38421.78543  23950929.4844                   23950928.2664
  -2480903.58248  -1933566.19146  19949026.9614                   19949023.5514
   9927134.11746   7702261.21943  23875444.9454                   23875442.9344
  -5655238.14148  -4400779.64146  20800119.5864                   20800114.5274
  -7330642.19946  -5705315.64843  23967814.7424                   23967813.2814
   4352964.96548   3377981.60246  20804953.7424                   20804948.9304
  -8679512.33247  -6759708.89544  23381765.6564                   23381764.1254
  -7511721.07846  -5851120.79743  24064901.2504                   24064901.1644
 11  8 17 16 44  0.0000000  0 11G03G06G07G10G13G16G19G28G23G08G11
   3151197.14847   2446015.03945  21418210.3674                   21418208.1214
   6146482.53947   4770281.97744  23307716.9534                   23307714.3954
  -7528845.94948  -5864040.50846  21555202.2344                   21555198.6254
    140229.67646     99574.37543  23965863.4534                   23965862.5704
  -2415187.45748  -1882358.82846  19961532.5394                   19961529.2504
  10061628.96946   7807062.34043  23901039.3984                   23901036.3444
  -5615985.82448  -4370193.41846  20807589.0944                   20807584.4144
  -7350330.40646  -5720657.09843  23964068.8674                   23964066.9344
   4472181.04348   3470877.21946  20827639.7584                   20827635.0554
  -8704084.68746  -6778856.17244  23377090.3284                   23377087.8244
  -7544496.48446  -5876659.94543  24058664.1094                   24058663.5274
 11  8 17 16 44 30.0000000  0 11G03G06G07G10G13G16G19G28G23G08G11
   3263105.23848   2533216.12545  21439505.8444                   21439503.4384
   6273922.72747   4869585.98444  23331967.6564                   23331965.5784
  -7537043.62948  -5870428.30546  21553642.4614                   21553638.9614
    219060.23046    161000.69943  23980864.3134                   23980863.5354
  -2348887.25848  -1830696.35546  19974149.2114                   19974145.2814
  10196063.79746   7911816.72343  23926621.5164                   23926618.5634
  -5576126.23448  -4339134.00446  20815174.1484                   20815169.6524
  -7369804.20346  -5735831.39543  23960362.4384                   23960360.9734
   4591846.93448   3564123.32046  20850411.1884                   20850406.7114
  -8728722.68447  -6798054.57444  23372400.9224                   23372399.3054
  -7577340.10246  -5902252.26643  24052413.8284                   24052413.8524
 11  8 17 16 45  0.0000000  0 11G03G06G07G10G13G16G19G28G23G08G11
   3375493.14848   2620791.10545  21460892.3834                   21460889.9844
   6401681.32446   4969138.09843  23356278.6484                   23356277.6524
  -7545182.73448  -5876770.45346  21552093.4774                   21552090.2194
    298235.30146    222695.52343  23995930.9774                   23995929.7074
  -2282008.27748  -1778582.87546  19986875.6884                   19986872.0824
  10330432.51647   8016519.54343  23952190.9694                   23952188.5204
  -5535663.73448  -4307604.77746  20822873.9064                   20822869.5004
  -7389068.52346  -5750842.48843  23956696.6484                   23956695.0664
   4711956.49648   3657715.15246  20873267.3914                   20873263.0314
  -8753430.96146  -6817307.72344  23367699.1724                   23367697.5314
  -7610253.87546  -5927899.22743  24046150.7504                   24046150.6914
 11  8 17 16 45 30.0000000  0 11G03G06G07G10G13G16G19G28G23G08G11
   3488359.19947   2708738.65245  21482370.3524                   21482367.7194
   6529756.81346   5068937.12944  23380650.9694                   23380649.2274
  -7553261.31248  -5883065.42646  21550556.2814                   21550552.7624
    377753.07046    284657.37143  24011063.1484                   24011061.3364
  -2214549.70348  -1726017.77346  19999712.6954                   19999708.8954
  10464735.05946   8121170.82043  23977747.3674                   23977744.9304
  -5494597.14548  -4275604.82446  20830688.3834                   20830683.8364
  -7408122.47746  -5765689.68743  23953070.9924                   23953069.0594
   4832507.64548   3751651.06646  20896207.7504                   20896203.0084
  -8778208.20746  -6836614.61344  23362984.7424                   23362983.1914
  -7643234.91446  -5953598.63743  24039874.6564                   24039874.8134
 11  8 17 16 46  0.0000000  0 11G03G06G07G10G13G16G19G28G23G08G11
   3601692.94147   2797050.61745  21503936.8054                   21503934.6604
   6658137.96946   5168974.37144  23405081.0004                   23405079.6684
  -7561286.71547  -5889318.98446  21549028.8134                   21549025.5634
    457603.11346    346878.12143  24026257.8364                   24026256.8164
  -2146520.31248  -1673007.87146  20012658.2584                   20012654.4734
  10598961.12546   8225762.52043  24003290.0784                   24003287.5044
  -5452934.72348  -4243140.59846  20838616.2504                   20838611.7304
  -7426974.28146  -5780379.31243  23949483.1954                   23949482.2934
   4953490.26648   3845923.19546  20919229.9774                   20919225.5044
  -8803062.35947  -6855981.44144  23358254.7504                   23358253.1524
  -7676288.87147  -5979354.89143  24033584.1804                   24033584.3444
 11  8 17 16 46 30.0000000  0 11G03G06G07G10G13G16G19G28G23G08G11
   3715499.87947   2885731.34045  21525593.5084                   21525590.7154
   6786830.32847   5269254.08644  23429570.6254                   23429569.1524
  -7569250.06248  -5895524.18446  21547513.4694                   21547510.1334
    537790.94046    409362.09343  24041517.7584                   24041515.5164
  -2077912.73448  -1619547.44146  20025713.8284                   20025710.2664
  10733117.35946   8330299.77343  24028818.6334                   24028815.6724
  -5410668.41847  -4210205.80546  20846659.1884                   20846655.3094
  -7445616.32046  -5794905.52743  23945935.8834                   23945934.6054
   5074909.58248   3940535.60546  20942335.5314                   20942330.7154
  -8827985.47347  -6875402.00044  23353512.2504                   23353510.6174
  -7709405.45746  -6005159.92643  24027282.6954                   24027281.9384
 11  8 17 16 47  0.0000000  0 11G03G06G07G10G13G16G19G28G23G08G11
   3829777.18447   2974778.56645  21547339.9144                   21547337.4224
   6915831.46147   5369774.40244  23454118.3364                   23454117.4304
  -7577149.84448  -5901679.83246  21546010.0474                   21546007.1134
    618313.91846    472107.21543  24056840.5634                   24056838.7034
  -2008727.04348  -1565636.52746  20038879.2424                   20038876.0314
  10867202.55946   8434781.74243  24054334.8754                   24054331.1134
  -5367797.71148  -4176800.06246  20854817.3204                   20854812.9344
  -7464048.43746  -5809268.16443  23942428.2974                   23942426.5124
   5196763.68448   4035486.81646  20965523.4384                   20965518.9264
  -8852976.70747  -6894875.68444  23348756.5004                   23348754.1454
  -7742581.70347  -6031011.48443  24020969.6484                   24020968.7934
 11  8 17 16 47 30.0000000  0 11G03G06G07G10G13G16G19G28G23G08G11
   3944519.06647   3064187.79345  21569174.4064                   21569171.8014
   7045135.85247   5470531.02744  23478724.7424                   23478723.0744
  -7584988.44148  -5907787.80946  21544518.6334                   21544514.8874
    699166.60947    535109.26243  24072226.2584                   24072224.8794
  -1938966.77748  -1511277.90246  20052154.4774                   20052150.6454
  11001212.66447   8539205.12143  24079836.1564                   24079833.0394
  -5324325.26248  -4142925.43446  20863090.0784                   20863084.7344
  -7482273.97346  -5823469.79343  23938959.9924                   23938958.4224
   5319047.05148   4130772.51246  20988793.2344                   20988788.5664
  -8878038.93747  -6914404.66444  23343987.9534                   23343984.8204
  -7775818.04747  -6056909.87143  24014644.7034                   24014644.0474
 11  8 17 16 48  0.0000000  0 11G03G06G07G10G13G16G19G28G23G08G11
   4059723.98047   3153957.82845  21591097.2734                   21591095.1604
   7174741.38747   5571522.32044  23503387.7974                   23503386.2274
  -7592764.10248  -5913846.75446  21543039.0554                   21543035.3364
    780347.53147    598367.06343  24087674.3284                   24087673.1644
  -1868631.49248  -1456471.19946  20065538.9144                   20065535.1954
  11135147.25046   8643569.67643  24105323.5784                   24105320.0394
  -5280250.74648  -4108581.65646  20871477.1414                   20871472.2154
  -7500291.90646  -5837509.66443  23935531.3914                   23935529.5864
   5441758.50848   4226391.78946  21012144.6254                   21012140.0234
  -8903171.24247  -6933988.27044  23339204.7814                   23339201.8794
  -7809111.49247  -6082852.71943  24008309.2114                   24008307.9734
 11  8 17 16 48 30.0000000  0 11G03G06G07G10G13G16G19G28G23G08G11
   4175385.34447   3244083.54745  21613107.1414                   21613104.5824
   7304641.24647   5672742.94944  23528106.1094                   23528105.7384
  -7600479.74248  -5919858.93046  21541570.3914                   21541567.1764
    861849.93047    661875.39143  24103183.2814                   24103182.5124
  -1797725.95748  -1401220.14146  20079031.8054                   20079027.8204
  11269000.26646   8747870.64143  24130794.4924                   24130791.3954
  -5235577.66048  -4073771.44546  20879978.0944                   20879973.4534
  -7518106.88746  -5851391.40643  23932141.0394                   23932139.3874
   5564891.37948   4322339.42646  21035575.8284                   21035571.6024
  -8928377.24247  -6953629.28544  23334407.9534                   23334405.9574
  -7842463.74247  -6108841.40243  24001961.8364                   24001961.5434
 11  8 17 16 49  0.0000000  0 11G03G06G07G10G13G16G19G28G23G08G11
   4291509.49247   3334569.88745  21635204.3984                   21635201.7974
   7434842.51646   5774198.46144  23552883.0394                   23552881.5004
  -7608124.77048  -5925816.08246  21540115.5004                   21540112.3324
    943680.70347    725639.55544  24118755.4384                   24118754.4414
  -1726241.62148  -1345518.08246  20092634.5944                   20092630.6994
  11402779.85546   8852114.43843  24156251.7814                   24156249.5664
  -5190297.07048  -4038487.86746  20888595.0474                   20888590.1764
  -7535709.65646  -5865107.73843  23928791.4304                   23928790.4774
   5688452.54348   4418620.80546  21059088.9534                   21059084.4024
  -8953647.15246  -6973320.07443  23329598.7814                   23329597.7704
  -7875862.41447  -6134866.30943  23995607.1174                   23995606.4964
 11  8 17 16 49 30.0000000  0 11G03G06G07G10G13G16G19G28G23G08G11
   4408084.97748   3425407.89545  21657387.8524                   21657385.3714
   7565333.51247   5875879.70744  23577714.8914                   23577713.8834
  -7615707.12948  -5931724.39546  21538673.0084                   21538669.8484
   1025828.59847    789650.85943  24134387.9064                   24134387.3244
  -1654187.31248  -1289371.88746  20106345.7664                   20106342.5044
  11536476.34046   8956293.45343  24181694.2584                   24181691.1054
  -5144417.58648  -4002737.60246  20897325.5314                   20897320.5554
  -7553109.09446  -5878665.68443  23925479.8134                   23925479.1524
   5812431.02048   4515227.36746  21082681.5004                   21082676.6564
  -8978989.54747  -6993067.38344  23324777.2344                   23324775.4104
  -7909314.06647  -6160932.49643  23989241.3674                   23989240.1804
 11  8 17 16 50  0.0000000  0 11G03G06G07G10G13G16G19G28G23G08G11
   4525109.31648   3516595.64545  21679657.5634                   21679654.5944
   7696111.82846   5977784.85944  23602601.3524                   23602599.9654
  -7623225.53148  -5937582.88346  21537242.0634                   21537238.9304
   1108291.44546    853907.55944  24150079.7114                   24150079.4454
  -1581564.11348  -1232782.40246  20120165.9144                   20120162.1994
  11670088.10946   9060406.48443  24207119.4774                   24207116.8324
  -5097938.96148  -3966520.47346  20906169.9454                   20906165.1884
  -7570305.09046  -5892065.08643  23922208.9304                   23922206.7974
   5936824.64148   4612157.41446  21106352.5084                   21106348.3284
  -9004403.85247  -7012870.69544  23319940.3674                   23319939.1954
  -7942815.97346  -6187037.77743  23982865.7274                   23982864.8634
 11  8 17 16 50 30.0000000  0 11G03G06G07G10G13G16G19G28G23G08G11
   4642591.69547   3608140.33245  21702014.0864                   21702010.9774
   7827186.46946   6079920.91444  23627543.6804                   23627541.8284
  -7630667.50048  -5943381.81646  21535826.0084                   21535822.7114
   1191077.96947    918416.46144  24165833.7584                   24165833.1644
  -1508360.38748  -1175740.55146  20134096.1644                   20134092.6844
  11803625.90946   9164461.86643  24232530.0234                   24232528.1644
  -5050849.69547  -3929827.52346  20915130.5634                   20915126.0354
  -7587286.28547  -5905297.14844  23918975.9064                   23918975.2934
   6061642.48048   4709418.02346  21130104.4774                   21130100.0474
  -9029878.03647  -7032720.69944  23315093.6954                   23315090.9384
  -7976353.73346  -6213170.98543  23976482.9844                   23976483.2464
 11  8 17 16 51  0.0000000  0 11G03G06G07G10G13G16G19G28G23G08G11
   4760517.68847   3700030.68045  21724454.1644                   21724451.6174
   7958543.17246   6182276.73443  23652540.2034                   23652537.9454
  -7638043.20348  -5949129.11746  21534422.3204                   21534419.2814
   1274174.10246    983166.63343  24181646.0084                   24181645.7234
  -1434588.52048  -1118255.99646  20148134.4384                   20148130.7774
  11937076.87146   9268449.56643  24257924.9694                   24257922.6214
  -5003161.35548  -3892667.78146  20924205.5084                   20924200.7774
  -7604064.45746  -5918370.97343  23915783.5394                   23915782.1884
   6186870.61748   4806998.35246  21153934.7194                   21153930.4654
  -9055423.38347  -7052626.15244  23310232.1644                   23310230.0474
  -8009936.36746  -6239339.18443  23970091.4614                   23970092.6484
 11  8 17 16 51 30.0000000  0 11G03G06G07G10G13G16G19G28G23G08G11
   4878887.73847   3792267.05545  21746979.2974                   21746976.6604
   8090182.38346   6284852.73843  23677590.4694                   23677588.4654
  -7645348.66048  -5954821.67246  21533032.1334                   21533029.4024
   1357580.69946   1048158.72744  24197517.9384                   24197517.9344
  -1360246.13348  -1060326.88746  20162281.2344                   20162277.3244
  12070442.82046   9372371.03143  24283304.3284                   24283302.1254
  -4954871.06248  -3855038.96946  20933394.8754                   20933390.4964
  -7620636.95647  -5931284.54144  23912629.8594                   23912628.1914
   6312509.65648   4904898.85246  21177843.0394                   21177838.4654
  -9081036.30547  -7072584.23844  23305358.4064                   23305355.7154
  -8043558.39846  -6265538.07843  23963693.8594                   23963694.1844
 11  8 17 16 52  0.0000000  0 11G03G06G07G10G13G16G19G28G23G08G11
   4997701.66447   3884849.32045  21769588.7344                   21769585.6764
   8222103.88746   6387648.62943  23702693.8284                   23702692.9964
  -7652580.28948  -5960456.69146  21531655.9924                   21531652.9574
   1441297.39546   1113392.44143  24213448.9774                   24213448.4694
  -1285331.60948  -1001951.95346  20176537.2344                   20176533.3134
  12203724.94546   9476227.14843  24308665.9694                   24308664.1914
  -4905976.30948  -3816939.15246  20942699.4844                   20942694.3984
  -7637001.35947  -5944035.96144  23909515.8134                   23909513.9494
   6438559.52748   5003119.48046  21201829.6724                   21201825.0434
  -9106713.78147  -7092592.62544  23300471.4144                   23300470.0314
  -8077214.71146  -6291763.68043  23957289.9614                   23957289.5434
 11  8 17 16 52 30.0000000  0 11G03G06G07G10G13G16G19G28G23G08G11
   5116957.88348   3977776.22745  21792282.6094                   21792280.0354
   8354306.68846   6490663.75443  23727851.5474                   23727850.2034
  -7659735.35548  -5966032.05946  21530294.7504                   21530291.1844
   1525323.06346   1178866.89143  24229438.6024                   24229437.8404
  -1209843.79348   -943130.29746  20190901.8444                   20190898.4694
  12336923.56346   9580018.18843  24334013.4614                   24334011.5984
  -4856475.88748  -3778367.39146  20952118.6414                   20952113.6564
  -7653156.38746  -5956624.23444  23906442.5784                   23906440.3834
   6565019.33248   5101659.54346  21225894.2194                   21225889.9264
  -9132453.83247  -7112649.79344  23295573.8754                   23295571.1374
  -8110901.10246  -6318012.74243  23950879.9614                   23950879.2544
 11  8 17 16 53  0.0000000  0 11G03G06G07G10G13G16G19G28G23G08G11
   5236651.94948   4071044.29745  21815059.5784                   21815057.2664
   8486785.99246   6593894.34843  23753062.2664                   23753059.7274
  -7666814.71948  -5971548.44546  21528947.8204                   21528944.3404
   1609653.16846   1244578.60943  24245486.1254                   24245485.3014
  -1133785.71148   -883864.26646  20205375.0474                   20205371.8094
  12470035.30146   9683741.54343  24359343.9924                   24359342.6564
  -4806371.78547  -3739325.23046  20961653.3444                   20961648.2424
  -7669104.23447  -5969051.07043  23903406.3984                   23903404.6804
   6691884.90648   5200515.77346  21250036.0864                   21250031.4024
  -9158258.41847  -7132757.20744  23290663.5474                   23290661.1684
  -8144617.09046  -6344284.84043  23944463.6954                   23944463.1334
 11  8 17 16 53 30.0000000  0 11G03G06G07G10G13G16G19G28G23G08G11
   5356781.53547   4164651.73845  21837919.5004                   21837916.4614
   8619539.42246   6697338.52343  23778323.9304                   23778321.9694
  -7673817.06248  -5977004.81646  21527614.9144                   21527611.6684
   1694285.48046   1310525.77743  24261591.0394                   24261590.4884
  -1057157.77348   -824154.19946  20219956.8754                   20219953.8674
  12603059.66446   9787396.85243  24384658.0704                   24384656.0594
  -4755663.98448  -3699812.66046  20971302.6804                   20971297.9304
  -7684844.75446  -5981316.35943  23900411.2584                   23900408.8404
   6819153.82848   5299686.31646  21274254.4224                   21274250.0984
  -9184126.57047  -7152914.19144  23285740.7734                   23285738.7194
  -8178359.48047  -6370577.57843  23938043.4774                   23938042.5004
 11  8 17 16 54  0.0000000  0 11G03G06G07G10G13G16G19G28G23G08G11
   5477349.57848   4258600.83645  21860863.0554                   21860860.1884
   8752570.14846   6800998.81343  23803638.9844                   23803636.1684
  -7680735.39548  -5982395.71946  21526298.5084                   21526295.1564
   1779223.19146   1376710.95743  24277754.1174                   24277753.3754
   -979954.98848   -763996.19946  20234648.2664                   20234644.9024
  12736000.89546   9890987.37543  24409956.0864                   24409954.2344
  -4704347.21548  -3659825.55946  20981067.9534                   20981062.9734
  -7700372.37547  -5993415.75844  23897456.7344                   23897454.4804
   6946829.37948   5399173.70746  21298550.5784                   21298546.1954
  -9210052.06247  -7173115.81244  23280806.5314                   23280804.8674
  -8212119.95347  -6396884.37543  23931618.3594                   23931617.9454
 11  8 17 16 54 30.0000000  0 11G03G06G07G10G13G16G19G28G23G08G11
   5598345.02047   4352882.96945  21883887.6804                   21883885.4844
   8885867.35246   6904866.67643  23829004.7424                   23829002.5084
  -7687576.98448  -5987726.81646  21524996.7274                   21524993.3444
   1864455.58246   1443125.71943  24293973.4064                   24293972.4804
   -902186.53948   -703397.43446  20249447.3284                   20249443.8874
  12868849.68046   9994505.80143  24435236.3594                   24435234.9184
  -4652429.69548  -3619370.34846  20990947.5234                   20990942.4494
  -7715695.49247  -6005355.77344  23894540.9454                   23894539.3794
   7074900.83648   5498969.59845  21322921.4064                   21322916.6884
  -9236042.46947  -7193368.03144  23275860.8754                   23275858.8714
  -8245904.36747  -6423209.85544  23925190.1024                   23925188.7854
 11  8 17 16 55  0.0000000  0 11G03G06G07G10G13G16G19G28G23G08G11
   5719768.51647   4447498.66045  21906993.8524                   21906991.8634
   9019431.63746   7008942.72343  23854420.9614                   23854419.3754
  -7694336.89148  -5992994.26646  21523710.2114                   21523706.7234
   1949983.73446   1509770.98043  24310248.1484                   24310247.6764
   -823849.81248   -642355.84046  20264354.1724                   20264350.7424
  13001607.92246  10097953.71943  24460499.5784                   24460497.7624
  -4599908.27348  -3578444.56246  21000941.8754                   21000937.2304
  -7730811.33246  -6017134.26244  23891663.8134                   23891662.6914
   7203369.32048   5599074.86346  21347368.3674                   21347364.0944
  -9262094.11347  -7213667.98444  23270903.0944                   23270901.3404
  -8279706.48047  -6449549.10543  23918756.6644                   23918757.3594
 11  8 17 16 55 30.0000000  0 11G03G06G07G10G13G16G19G28G23G08G11
   5841614.90648   4542443.87544  21930180.3754                   21930177.2894
   9153258.13346   7113223.06643  23879887.6884                   23879885.7774
  -7701016.53148  -5998199.19146  21522438.9224                   21522435.3484
   2035801.97746   1576642.27043  24326579.0394                   24326578.3404
   -744947.80948   -580873.77746  20279368.7584                   20279365.0744
  13134272.36346  10201328.55943  24485744.8134                   24485742.5594
  -4546785.77048  -3537050.40246  21011050.4614                   21011046.1374
  -7745722.31247  -6028753.14143  23888826.6254                   23888824.6134
   7332229.69548   5699485.48045  21371889.9694                   21371884.4804
  -9288208.99247  -7234017.23044  23265933.9304                   23265931.9494
  -8313525.89847  -6475901.86343  23912322.0314                   23912321.0704
 11  8 17 16 56  0.0000000  0 11G03G06G07G10G13G16G19G28G23G08G11
   5963894.08647   4637726.32845  21953449.3284                   21953446.4844
   9287356.82446   7217715.50443  23905405.3284                   23905403.8594
  -7707602.04748  -6003330.75846  21521185.9844                   21521182.1174
   2121920.62546   1643747.64143  24342967.3914                   24342966.3554
   -665468.88348   -518942.16446  20294493.2424                   20294489.5274
  13266854.64847  10304639.39543  24510974.2344                   24510972.0234
  -4493049.94148  -3495178.32446  21021276.5474                   21021271.7034
  -7760416.25047  -6040202.90243  23886030.5234                   23886028.6414
   7461491.84448   5800209.18445  21396487.5474                   21396482.9884
  -9314373.94947  -7254405.48444  23260955.2664                   23260952.9104
  -8347347.62146  -6502256.40643  23905885.3834                   23905884.8094
 11  8 17 16 56 30.0000000  0 11G03G06G07G10G13G16G19G28G23G08G11
   6086597.59447   4733339.41445  21976798.9614                   21976796.5314
   9421719.38346   7322413.56344  23930974.3284                   23930971.2704
  -7714097.73448  -6008392.31246  21519949.8134                   21519946.3484
   2208331.53146   1711080.73443  24359411.9384                   24359409.9694
   -585419.52348   -456566.05546  20309725.9454                   20309722.2544
  13399348.40246  10407881.24243  24536187.2424                   24536183.3834
  -4438706.66848  -3452832.91446  21031617.8054                   21031612.7234
  -7774898.49247  -6051487.69943  23883273.8134                   23883272.5864
   7591147.87948   5901239.80945  21421160.1724                   21421155.5204
  -9340593.88347  -7274836.57444  23255965.2894                   23255963.6024
  -8381174.44147  -6528614.93743  23899448.1884                   23899447.6484
 11  8 17 16 57  0.0000000  0 11G03G06G07G10G13G16G19G28G23G08G11
   6209716.01247   4829275.82844  22000227.8984                   22000224.9024
   9556336.65647   7427310.10244  23956591.2584                   23956588.5164
  -7720508.74647  -6013387.90646  21518730.0004                   21518726.2544
   2295025.46946   1778634.39143  24375909.2974                   24375907.7584
   -504807.17648   -393751.25046  20325066.0944                   20325062.2194
  13531745.19547  10511047.53543  24561381.7894                   24561378.8204
  -4383762.69948  -3410019.43746  21042073.1254                   21042068.2384
  -7789176.14846  -6062613.12543  23880556.8524                   23880556.0204
   7721189.00848   6002570.49246  21445906.1564                   21445902.2704
  -9366874.68047  -7295315.09444  23250963.9224                   23250962.2114
  -8415009.94946  -6554980.23843  23893008.8914                   23893008.0824
 11  8 17 16 57 30.0000000  0 11G03G06G07G10G13G16G19G28G23G08G11
   6333260.27047   4925544.05145  22023737.2504                   22023734.7974
   9691219.62147   7532413.65644  23982258.5554                   23982256.2384
  -7726820.40247  -6018306.07046  21517528.7974                   21517525.4574
   2382013.44946   1846417.16043  24392461.3914                   24392460.8204
   -423619.15648   -330487.87546  20340515.5944                   20340511.7304
  13664058.07046  10614148.45343  24586559.9924                   24586556.8444
  -4328205.05548  -3366727.77046  21052645.5704                   21052640.5354
  -7803236.14147  -6073568.85943  23877882.1334                   23877880.4304
   7851626.40248   6104209.97345  21470728.0164                   21470723.3244
  -9393201.95747  -7315829.82444  23245954.7734                   23245952.4884
  -8448837.83647  -6581339.56243  23886573.0164                   23886570.3834
 11  8 17 16 58  0.0000000  0 11G03G06G07G10G13G16G19G28G23G08G11
   6457223.58247   5022138.80144  22047327.0084                   22047324.1954
   9826361.54746   7637719.02743  24007974.5864                   24007972.8094
  -7733035.82747  -6023149.24346  21516345.7194                   21516342.4574
   2469288.40546   1914423.58943  24409069.5864                   24409068.5904
   -341860.66848   -266779.98046  20356073.4694                   20356070.3204
  13796281.77046  10717179.88743  24611720.5864                   24611718.3554
  -4272037.77048  -3322961.04346  21063333.9304                   21063328.6174
  -7817082.72746  -6084358.35543  23875246.4534                   23875245.5234
   7982452.78148   6206152.54345  21495622.9844                   21495618.8444
  -9419579.51647  -7336383.73844  23240935.1334                   23240933.0554
  -8482659.66446  -6607694.19943  23880136.5864                   23880134.9804
 11  8 17 16 58 30.0000000  0 11G03G06G07G10G13G16G19G28G23G08G11
   6581597.73847   5119053.70344  22070995.1804                   22070992.1454
   9961754.48046   7743219.97743  24033738.7274                   24033737.1454
  -7739158.71948  -6027920.32446  21515180.8054                   21515177.3404
   2556842.77746   1982647.69343  24425730.8914                   24425729.7704
   -259537.97748   -202632.45346  20371739.2664                   20371735.7624
  13928409.92246  10820136.91443  24636864.5784                   24636861.9104
  -4215266.99248  -3278724.06646  21074136.6334                   21074132.0984
  -7830721.29347  -6094985.74243  23872651.9384                   23872650.1214
   8113660.58248   6308392.33246  21520591.6254                   21520586.7934
  -9446012.09847  -7356980.52744  23235905.7344                   23235902.5004
  -8516478.16046  -6634046.25043  23873701.0864                   23873699.1174
 11  8 17 16 59  0.0000000  0 11G03G06G07G10G13G16G19G28G23G08G11
   6706386.76247   5216291.88344  22094740.4924                   22094738.8164
  10097402.27746   7848919.50843  24059552.0944                   24059550.5084
  -7745181.37948  -6032613.30146  21514034.7664                   21514031.0744
   2644680.31347   2051092.45743  24442446.4304                   24442444.2154
   -176645.51648   -138040.94146  20387512.9384                   20387509.7504
  14060447.89146  10923023.57442  24661990.0314                   24661988.1844
  -4157886.95348  -3234012.35246  21085055.7584                   21085050.8164
  -7844145.85946  -6105446.37543  23870096.9774                   23870094.8524
   8245253.57048   6410932.26245  21545632.8914                   21545627.7424
  -9472492.43747  -7377614.54344  23230866.5944                   23230863.3874
  -8550283.94546  -6660388.35943  23867267.7814                   23867266.6254
 11  8 17 16 59 30.0000000  0 11G03G06G07G10G13G16G19G28G23G08G11
   6831586.10947   5313849.76645  22118565.7114                   22118563.4024
  10233301.12546   7954814.66843  24085412.9144                   24085411.4264
  -7751103.93048  -6037228.26646  21512907.8134                   21512904.1374
   2732797.20347   2119754.91043  24459214.7344                   24459212.6484
    -93185.39848    -73007.10946  20403395.0944                   20403391.3094
  14192393.89546  11025838.58243  24687098.6334                   24687096.4964
  -4099899.30148  -3188827.17246  21096090.6414                   21096085.6764
  -7857358.18046  -6115741.64543  23867582.3444                   23867580.6644
   8377228.14148   6513769.52045  21570746.7274                   21570742.2464
  -9499021.09047  -7398286.19544  23225818.1174                   23225815.5084
  -8584075.55546  -6686719.42643  23860836.6564                   23860836.6764
 11  8 17 17  0  0.0000000  0 11G03G06G07G10G13G16G19G28G23G08G11
   6957190.79347   5411723.52344  22142467.5474                   22142465.0744
  10369446.14846   8060901.64843  24111320.2504                   24111318.6414
  -7756926.80948  -6041765.56246  21511799.6954                   21511796.0944
   2821188.52046   2188631.21143  24476034.3364                   24476033.1334
     -9161.00048     -7533.57046  20419384.2894                   20419381.0434
  14324244.41046  11128579.16442  24712189.8914                   24712186.8834
  -4041306.33248  -3143170.30946  21107240.4534                   21107235.5594
  -7870360.14146  -6125872.99244  23865108.7194                   23865106.7274
   8509579.48448   6616900.39145  21595932.2424                   21595927.2464
  -9525599.99647  -7418996.99244  23220760.0474                   23220757.9494
  -8617851.68446  -6713038.41443  23854409.2664                   23854410.0084
 11  8 17 17  0 30.0000000  0 11G03G06G07G10G13G16G19G28G23G08G11
   7083184.11347   5509900.10544  22166443.2114                   22166441.2304
  10505820.43046   8167167.27743  24137271.7114                   24137269.9734
  -7762663.19948  -6046235.47346  21510708.3834                   21510704.4264
   2909837.18047   2257708.02043  24492903.8834                   24492902.7734
     75412.20748     58367.61746  20435478.4384                   20435475.1604
  14455984.32046  11231233.52043  24737258.2504                   24737255.6374
  -3982123.16848  -3097053.55546  21118502.3444                   21118498.0474
  -7883166.72347  -6135852.08243  23862671.6254                   23862670.0904
   8642290.68048   6720311.65645  21621186.6484                   21621182.3714
  -9552242.57447  -7439757.43044  23215690.6724                   23215687.5864
  -8651624.53946  -6739354.85244  23847983.4304                   23847982.9694
 11  8 17 17  1  0.0000000  0 11G03G06G07G10G13G16G19G28G23G08G11
   5634160.30147   4380790.60544  21890702.9224                   21890701.0514
   9067018.92246   7046023.18443  23863477.3674                   23863475.2464
  -9343719.05548  -7278227.04746  21209843.0784                   21209839.4804
   1423336.61746   1099395.84843  24210032.3754                   24210030.6804
  -1414870.81348  -1102891.89846  20151886.9144                   20151883.3054
  13012209.48846  10106214.09443  24462517.2894                   24462514.9184
  -5497755.37948  -4278065.67646  20830087.4774                   20830082.2894
  -9471185.64547  -7373269.39843  23560481.8984                   23560479.5354
   7199956.43048   5596414.77746  21346719.7584                   21346715.3834
 -11154356.44547  -8688157.85244  22910818.3914                   22910815.3674
 -10260799.57146  -7993257.39743  23541767.6414                   23541766.6914
 11  8 17 17  1 30.0000000  0 11G03G06G07G10G13G16G19G28G23G08G11
   5760948.48047   4479586.54345  21914829.3594                   21914827.7384
   9203870.63346   7152660.81643  23889519.2664                   23889517.4804
  -9349251.91848  -7282538.36746  21208790.0164                   21208786.5314
   1512519.04346   1168888.56643  24227002.8594                   24227001.8714
  -1329176.14148  -1036116.84846  20168193.6254                   20168190.3634
  13143751.04346  10208713.98043  24487548.3054                   24487547.0394
  -5437366.85548  -4231009.69946  20841578.7344                   20841573.6684
  -9483575.63747  -7382923.86744  23558122.9144                   23558121.8834
   7333405.96948   5700401.37945  21372113.9844                   21372109.9184
 -11181097.89147  -8708995.32844  22905729.3444                   22905726.5664
 -10294531.06246  -8019541.59044  23535348.1254                   23535347.6374
 11  8 17 17  2  0.0000000  0 11G03G06G07G10G13G16G19G28G23G08G11
   5888135.07847   4578692.94545  21939032.7664                   21939030.6884
   9340962.48046   7259485.59043  23915607.0864                   23915605.5084
  -9354675.76248  -7286764.73846  21207757.8524                   21207754.9694
   1601969.53946   1238590.23043  24244024.2344                   24244024.4384
  -1242917.58648   -968902.41446  20184608.3134                   20184604.7034
  13275197.54346  10311139.75043  24512562.2814                   24512560.4454
  -5376371.41048  -4183480.78146  20853186.5784                   20853181.2274
  -9495752.43746  -7392412.22343  23555805.4924                   23555804.5084
   7467226.16048   5804676.79745  21397579.3444                   21397575.5044
 -11207881.93047  -8729865.98444  22900632.4384                   22900630.0354
 -10328232.16047  -8045802.10343  23528935.2344                   23528934.2624
 11  8 17 17  2 30.0000000  0 11G03G06G07G10G13G16G19G28G23G08G11
   6015712.06647   4678103.55544  21963310.1644                   21963307.7074
   9478286.05946   7366490.89843  23941738.7974                   23941736.8754
  -9359994.97348  -7290909.55946  21206745.7894                   21206742.4884
   1691680.02047   1308494.44143  24261096.2664                   24261095.5634
  -1156101.50048   -901253.52746  20201128.8524                   20201125.6914
  13406542.53946  10413486.46543  24537556.2814                   24537554.1254
  -5314774.99248  -4135483.56646  20864907.5164                   20864902.0514
  -9507722.05946  -7401739.13744  23553528.5394                   23553526.6884
   7601408.90248   5909234.72345  21423113.9144                   21423109.0634
 -11234713.86747  -8750773.97344  22895526.5554                   22895523.8754
 -10361905.55146  -8072041.01243  23522527.1564                   23522526.6884
 11  8 17 17  3  0.0000000  0 11G03G06G07G10G13G16G19G28G23G08G11
   6143675.60547   4777815.37145  21987660.4924                   21987658.8984
   9615838.23447   7473674.36843  23967914.9064                   23967912.3874
  -9365208.42048  -7294971.97746  21205753.7274                   21205750.2584
   1781647.04346   1378598.57443  24278217.0394                   24278215.5084
  -1068729.84948   -833171.74146  20217755.3914                   20217751.9184
  13537784.32846  10515752.67243  24562530.8054                   24562528.8284
  -5252579.14548  -4087019.27046  20876742.6804                   20876737.7894
  -9519485.73847  -7410905.59044  23551290.4774                   23551288.2934
   7735950.65548   6014072.38645  21448716.2424                   21448712.0124
 -11261593.85147  -8771719.39244  22890411.5704                   22890409.1054
 -10395549.23047  -8098256.79144  23516125.1094                   23516124.7234
 11  8 17 17  3 30.0000000  0 11G03G06G07G10G13G16G19G28G23G08G11
   6272020.54747   4877824.38344  22012084.0784                   22012081.3204
   9753613.88346   7581031.95743  23994132.0314                   23994129.6604
  -9370317.09448  -7298952.75446  21204781.2504                   21204777.8874
   1871865.63746   1448898.74643  24295384.8444                   24295384.2274
   -980805.60948   -764659.37146  20234486.8364                   20234483.3984
  13668919.68446  10617936.00043  24587485.6094                   24587482.6174
  -5189787.11748  -4038090.42646  20888692.2274                   20888687.0124
  -9531045.89547  -7419913.47344  23549090.5234                   23549087.5354
   7870846.35248   6119185.86745  21474385.8284                   21474381.3834
 -11288523.02347  -8792703.14544  22885286.3984                   22885284.4454
 -10429162.78147  -8124449.05144  23509728.2504                   23509727.6684
 11  8 17 17  4  0.0000000  0 11G03G06G07G10G13G16G19G28G23G08G11
   6400742.72347   4978127.35545  22036578.6804                   22036576.9414
   9891609.56646   7688561.06343  24020391.7664                   24020388.9064
  -9375320.77748  -7302851.73046  21203829.8284                   21203825.7114
   1962331.94146   1519391.90643  24312599.4454                   24312599.6214
   -892332.06348   -695718.96546  20251322.5944                   20251318.9344
  13799947.00446  10720035.15243  24612419.4144                   24612416.6724
  -5126400.42648  -3988698.19546  20900753.8674                   20900748.6884
  -9542403.87947  -7428763.79343  23546928.6724                   23546926.4264
   8006092.57448   6224572.46545  21500122.2114                   21500118.1564
 -11315501.84447  -8813725.57844  22880152.9454                   22880150.6174
 -10462744.30546  -8150616.39244  23503337.2344                   23503337.1764
 11  8 17 17  4 30.0000000  0 11G03G06G07G10G13G16G19G28G23G08G11
   6529845.96547   5078727.24645  22061146.4144                   22061144.3164
  10029828.99646   7796264.43043  24046693.7814                   24046692.2304
  -9380211.80948  -7306662.91446  21202898.5084                   21202895.2304
   2053049.59046   1590080.90643  24329862.3834                   24329862.4964
   -803303.81348   -626346.32846  20268264.1254                   20268260.4224
  13930871.29346  10822053.98443  24637333.3204                   24637330.6884
  -5062413.42648  -3938838.19946  20912930.3834                   20912925.2074
  -9553553.93047  -7437452.08244  23544806.8524                   23544804.3674
   8141692.81648   6330234.93445  21525926.1954                   21525921.9774
 -11342523.42247  -8834781.33644  22875010.9224                   22875008.4734
 -10496284.85546  -8176751.81244  23496954.9304                   23496953.9734
 11  8 17 17  5  0.0000000  0 11G03G06G07G10G13G16G19G28G23G08G11
   6659325.06247   5179620.01644  22085786.1414                   22085783.4144
  10168266.91447   7904138.12543  24073037.8444                   24073036.1024
  -9384991.21548  -7310387.12146  21201989.2504                   21201985.6644
   2144013.22746   1660961.55543  24347172.4454                   24347172.5664
   -713724.65248   -556544.41446  20285310.3054                   20285306.9734
  14061689.51646  10923990.21543  24662226.2274                   24662224.8164
  -4997829.53148  -3888513.08646  20925220.3674                   20925215.2074
  -9564498.85947  -7445980.51644  23542724.3754                   23542721.9694
   8277641.84448   6436169.17245  21551796.6884                   21551792.7734
 -11369588.98847  -8855871.35244  22869860.5554                   22869858.2774
 -10529784.04347  -8202854.97344  23490580.8594                   23490579.6724
 11  8 17 17  5 30.0000000  0 11G03G06G07G10G13G16G19G28G23G08G11
   6789170.53947   5280798.25444  22110494.3284                   22110492.2194
  10306914.54347   8012175.17243  24099421.9454                   24099420.3834
  -9389663.86348  -7314028.13746  21201099.7894                   21201096.3874
   2235214.18746   1732027.20343  24364528.2584                   24364526.7894
   -623601.74648   -486318.79746  20302460.3284                   20302457.1174
  14192394.37546  11025838.11743  24687099.6254                   24687097.8634
  -4932655.89848  -3837728.44546  20937622.4064                   20937617.2734
  -9575245.28947  -7454354.27744  23540679.0394                   23540676.9064
   8413930.87548   6542368.34845  21577731.5234                   21577727.0314
 -11396704.41047  -8877000.25844  22864700.4064                   22864697.8714
 -10563244.89547  -8228928.27744  23484213.1414                   23484212.4844
 11  8 17 17  6  0.0000000  0 11G03G06G07G10G13G16G19G28G23G08G11
   6919385.23847   5382264.23844  22135273.4774                   22135271.0904
  10445774.92646   8120378.05943  24125845.5784                   24125844.5204
  -9394222.18748  -7317580.07046  21200232.3054                   21200229.1254
   2326655.19546   1803279.85543  24381928.1174                   24381927.9144
   -532931.07048   -415666.34846  20319714.3594                   20319711.1914
  14322990.44546  11127601.19943  24711951.6564                   24711948.7344
  -4866887.79748  -3786480.58646  20950137.7274                   20950132.6994
  -9585788.16447  -7462569.45344  23538672.7344                   23538669.9344
   8550562.73848   6648834.67645  21603731.7894                   21603727.0004
 -11423863.31647  -8898163.00044  22859532.3444                   22859530.4534
 -10596659.16047  -8254965.28944  23477854.6024                   23477853.1994
 11  8 17 17  6 30.0000000  0 11G03G06G07G10G13G16G19G28G23G08G11
   7049964.05947   5484013.93044  22160121.8444                   22160119.5234
  10584843.16846   8228742.86343  24152309.4384                   24152308.4884
  -9398667.81648  -7321044.18046  21199386.2894                   21199383.0744
   2418331.34446   1874715.75043  24399373.6484                   24399373.5204
   -441716.14148   -344589.80146  20337071.9384                   20337068.7344
  14453474.76647  11229277.24643  24736782.6024                   24736779.7974
  -4800528.13748  -3734771.75846  20962765.4924                   20962760.4414
  -9596129.87147  -7470627.88344  23536704.7424                   23536702.4574
   8687532.57847   6755564.35545  21629796.5314                   21629791.7344
 -11451066.92247  -8919360.59844  22854355.8754                   22854353.4104
 -10630026.13747  -8280965.44144  23471504.9774                   23471503.9384
 11  8 17 17  7  0.0000000  0 11G03G06G07G10G13G16G19G28G23G08G11
   7180908.87547   5586048.80944  22185040.1334                   22185038.0864
  10724121.36747   8337271.23443  24178814.2034                   24178812.2854
  -9402994.20348  -7324415.38746  21198563.2274                   21198559.7624
   2510244.75446   1946336.54343  24416865.2274                   24416864.5634
   -349953.70748   -273086.64146  20354533.8054                   20354530.7274
  14583850.98846  11330869.07843  24761591.2814                   24761589.0594
  -4733573.01648  -3682598.93446  20975506.8444                   20975501.5514
  -9606266.33647  -7478526.38344  23534775.6884                   23534773.3524
   8824842.25448   6862558.83245  21655925.2734                   21655921.2034
 -11478309.78947  -8940588.78144  22849171.8754                   22849169.3164
 -10663338.40647  -8306922.95744  23465166.0634                   23465165.5314
 11  8 17 17  7 30.0000000  0 11G03G06G07G10G13G16G19G28G23G08G11
   7312207.15647   5688359.13744  22210024.8754                   22210022.5864
  10863597.04746   8445953.52343  24205354.7664                   24205353.5274
  -9407209.70748  -7327700.18046  21197761.2034                   21197757.7034
   2602382.75446   2018132.25443  24434397.3834                   24434397.8484
   -257654.94148   -201165.55146  20372098.1484                   20372094.5004
  14714109.05946  11432368.80542  24786378.1254                   24786376.4774
  -4666033.25848  -3629970.55946  20988359.1174                   20988353.7074
  -9616207.57847  -7486272.73444  23532883.6644                   23532882.0634
   8962479.54748   6969808.60245  21682116.7344                   21682112.3284
 -11505600.87147  -8961854.53144  22843978.1724                   22843975.4414
 -10696602.87547  -8332843.23844  23458835.5394                   23458835.2624
 11  8 17 17  8  0.0000000  0 11G03G06G07G10G13G16G19G28G23G08G11
   7443871.02347   5790954.29744  22235080.0864                   22235077.5004
  11003282.97346   8554799.62543  24231936.6414                   24231934.9694
  -9411297.66448  -7330885.59446  21196983.1174                   21196980.0004
   2694757.65546   2090112.61943  24451976.2974                   24451975.3524
   -164805.96148   -128815.73446  20389766.4924                   20389763.2344
  14844263.14846  11533787.57442  24811145.4064                   24811144.5004
  -4597894.54748  -3576875.46546  21001325.3444                   21001320.4774
  -9625938.71947  -7493855.38344  23531032.2344                   23531030.5354
   9100456.65647   7077323.16845  21708373.0704                   21708368.8444
 -11532923.76647  -8983145.07844  22838778.6884                   22838776.9614
 -10729801.55547  -8358712.22743  23452517.8754                   23452516.8054
 11  8 17 17  8 30.0000000  0 11G03G06G07G10G13G16G19G28G23G08G11
   7575887.52047   5893824.28944  22260201.5944                   22260200.0824
  11143166.29346   8663799.56343  24258554.3834                   24258554.4734
  -9415266.75448  -7333978.38746  21196228.0004                   21196224.5204
   2787356.64546   2162267.63343  24469597.2274                   24469596.4494
    -71418.83248    -56046.56246  20407537.3524                   20407533.6484
  14974302.42645  11635116.83242  24835890.9844                   24835890.2584
  -4529168.04348  -3523322.34846  21014403.0474                   21014398.6994
  -9635470.56247  -7501282.73044  23529218.5784                   23529216.0234
   9238760.77048   7185092.52745  21734692.0704                   21734687.1804
 -11560288.01247  -9004467.84045  22833571.2894                   22833569.5434
 -10762941.42247  -8384535.41043  23446211.4454                   23446210.2344
 11  8 17 17  9  0.0000000  0 11G03G06G07G10G13G16G19G28G23G08G11
   7708247.85247   5996962.15244  22285389.4614                   22285387.2464
  11283238.83646   8772946.92243  24285210.4694                   24285209.1914
  -9419121.16848  -7336981.81646  21195494.2894                   21195490.8094
   2880171.39846   2234590.75843  24487259.3364                   24487259.3204
     22499.95348     17136.87546  20425409.5314                   20425405.8914
  15104220.17246  11736351.40242  24860613.9304                   24860613.1454
  -4459860.60948  -3469316.56246  21027592.1334                   21027587.4264
  -9644809.30547  -7508559.62544  23527441.0314                   23527438.7854
   9377383.37948   7293110.06645  21761070.6254                   21761066.4574
 -11587698.41447  -9025826.57444  22828355.4844                   22828353.2464
 -10796025.50447  -8410315.14544  23439915.9064                   23439914.3794
 11  8 17 17  9 30.0000000  0 10G03G06G07G10G13G19G28G23G08G11
   7840956.92647   6100371.80544  22310643.1884                   22310640.5664
  11423506.00846   8882245.91843  24311901.7584                   24311900.8714
  -9422851.16048  -7339888.30146  21194784.6804                   21194781.3014
   2973207.17246   2307086.01643  24504963.6024                   24504963.0944
    116956.90648     90739.66446  20443384.0704                   20443380.5554
  -4389965.03148  -3414852.47746  21040892.8984                   21040887.7704
  -9653947.16047  -7515679.98444  23525702.4614                   23525699.4804
   9516329.94548   7401380.04345  21787511.4384                   21787507.1914
 -11615146.17247  -9047214.40644  22823132.2584                   22823130.1884
 -10829042.55547  -8436042.62143  23433632.8674                   23433631.7344
 11  8 17 17 10  0.0000000  0 10G03G06G07G10G13G19G28G23G08G11
   7974011.33647   6204050.52344  22335963.1174                   22335960.3794
  11563964.19946   8991693.78143  24338630.6724                   24338629.5594
  -9426456.49648  -7342697.65246  21194098.5864                   21194095.2234
   3066460.02046   2379750.48843  24522708.4924                   24522708.2194
    211949.48048    164759.81646  20461460.2664                   20461456.9384
  -4319483.53548  -3359931.83246  21054304.8594                   21054300.0984
  -9662885.67247  -7522644.98844  23524001.1954                   23523998.5354
   9655596.47348   7509899.33645  21814013.1414                   21814008.5554
 -11642631.33247  -9068631.39844  22817902.1254                   22817899.4104
 -10861990.84447  -8461716.52044  23427362.8204                   23427361.5234
 11  8 17 17 10 30.0000000  0 10G03G06G07G10G13G19G28G23G08G11
   8107406.40247   6307994.70744  22361347.3834                   22361344.5984
  11704609.23446   9101287.27343  24365394.2424                   24365393.0554
  -9429937.41048  -7345410.04346  21193436.0004                   21193432.9534
   3159925.79346   2452580.86343  24540495.0704                   24540494.4064
    307474.23448    239194.66446  20479638.3674                   20479634.8714
  -4248418.57448  -3304556.55146  21067828.5004                   21067823.5744
  -9671626.98847  -7529456.34844  23522338.0944                   23522335.6454
   9795179.10248   7618664.94945  21840575.0314                   21840571.1644
 -11670154.64847  -9090078.11745  22812664.9064                   22812662.4304
 -10894869.13347  -8487335.90643  23421106.0864                   23421105.1724
 11  8 17 17 11  0.0000000  0 10G03G06G07G10G13G19G28G23G08G11
   8241143.77747   6412205.60544  22386795.9224                   22386793.5904
  11845443.26246   9211027.99243  24392194.4694                   24392192.8834
  -9433287.29748  -7348020.34446  21192798.6334                   21192795.4804
   3253606.58646   2525578.89843  24558321.9534                   24558320.7704
    403534.41048    314046.71946  20497918.0554                   20497914.9654
  -4176766.75047  -3248723.96146  21081463.1414                   21081458.0514
  -9680166.60247  -7536110.54344  23520713.1484                   23520711.0234
   9935079.18048   7727677.90645  21867197.3444                   21867192.8554
 -11697710.40647  -9111550.11345  22807420.4144                   22807418.4654
 -10927669.93747  -8512894.91044  23414864.8134                   23414862.7584
 11  8 17 17 11 30.0000000  0 10G03G06G07G10G13G19G28G23G08G11
   8375223.64847   6516683.39544  22412310.2114                   22412308.4024
  11986466.33247   9320916.06343  24419030.4224                   24419028.5204
  -9436501.94948  -7350525.26646  21192186.8444                   21192183.7814
   3347502.29546   2598744.28943  24576189.6024                   24576189.5004
    500131.38348    389317.05946  20516299.7504                   20516296.2114
  -4104526.08248  -3192432.53546  21095210.1094                   21095205.0904
  -9688502.38347  -7542605.87544  23519126.4614                   23519124.3954
  10075296.98448   7836938.46145  21893879.8134                   21893875.7814
 -11725294.82047  -9133044.44144  22802171.6884                   22802169.3094
 -10960386.94147  -8538388.63744  23408638.6334                   23408637.1414
 11  8 17 17 12  0.0000000  0 10G03G06G07G10G13G19G28G23G08G11
   8509644.67647   6621427.01644  22437889.7504                   22437887.6914
  12127677.40647   9430950.57843  24445902.3914                   24445900.8714
  -9439578.13348  -7352922.29346  21191601.4774                   21191598.0354
   3441611.35946   2672075.97343  24594098.7894                   24594098.0204
    597264.73048    465005.34446  20534783.6804                   20534780.5044
  -4031696.73448  -3135682.40646  21109069.4224                   21109064.3714
  -9696633.25047  -7548941.54744  23517578.9614                   23517576.7854
  10215831.15248   7946445.52045  21920622.6724                   21920618.8834
 -11752905.85247  -9154559.53544  22796917.6334                   22796915.0634
 -10993016.47747  -8563814.21544  23402429.4454                   23402428.0124
 11  8 17 17 12 30.0000000  0 10G03G06G07G10G13G19G28G23G08G11
   8644396.55947   6726428.43244  22463532.7814                   22463531.0474
  12269066.75447   9541124.06343  24472808.2814                   24472806.1644
  -9442522.02048  -7355216.22746  21191041.0554                   21191037.6174
   3535924.11846   2745566.32743  24612045.7974                   24612045.1374
    694925.87548    541104.91046  20553368.0394                   20553364.5554
  -3958286.53548  -3078479.64846  21123038.3594                   21123033.5864
  -9704567.16447  -7555123.76644  23516068.7664                   23516066.4064
  10356671.56348   8056191.22345  21947423.6954                   21947419.4734
 -11780549.35947  -9176099.89744  22791657.1024                   22791654.6724
 -11025562.59847  -8589174.77044  23396236.0474                   23396235.4844
 11  8 17 17 13  0.0000000  0 10G03G06G07G10G13G19G28G23G08G11
   8779479.65647   6831687.94144  22489237.9454                   22489236.5744
  12410635.05547   9651436.98043  24499747.1334                   24499744.8554
  -9445328.64148  -7357403.20346  21190507.4844                   21190504.2464
   3630441.19146   2819215.92643  24630031.3054                   24630031.2154
    793116.44148    617617.00846  20572053.3444                   20572049.3714
  -3884293.52348  -3020822.76646  21137118.6564                   21137114.0744
  -9712301.06247  -7561150.10944  23514597.8204                   23514595.6374
  10497818.77048   8166175.96545  21974283.1884                   21974278.5434
 -11808221.02747  -9197662.21144  22786391.1564                   22786388.8284
 -11058018.81647  -8614465.25444  23390059.5314                   23390058.6724
 11  8 17 17 13 30.0000000  0 10G03G06G07G10G13G19G28G23G08G11
   8914893.27747   6937205.00044  22515006.0234                   22515004.9104
  12552382.35947   9761889.39543  24526721.6564                   24526718.9694
  -9447993.68748  -7359479.85946  21189999.9614                   21189996.9304
   3725161.96146   2893024.28143  24648056.5234                   24648055.8554
    891837.33248    694542.35246  20590839.2504                   20590835.4534
  -3809716.56648  -2962710.85946  21151310.9064                   21151305.5044
  -9719833.09847  -7567019.18444  23513164.4144                   23513162.1174
  10639272.72748   8276399.75445  22001200.9224                   22001196.4224
 -11835917.40247  -9219243.78544  22781120.8984                   22781117.9614
 -11090379.93447  -8639681.63744  23383902.0164                   23383900.8674
 11  8 17 17 14  0.0000000  0 10G03G06G07G10G13G19G28G23G08G11
   9050629.96547   7042973.78944  22540836.3524                   22540834.2854
  12694301.09046   9872475.33643  24553727.0164                   24553725.3094
  -9450520.51648  -7361448.81646  21189518.9844                   21189516.0904
   3820078.82047   2966985.35543  24666118.8204                   24666118.8054
    991082.07048    771875.87946  20609724.7974                   20609721.2584
  -3734561.83248  -2904148.73846  21165611.9614                   21165607.1454
  -9727168.33247  -7572734.89844  23511768.5314                   23511766.3984
  10781025.61748   8386856.46945  22028175.3984                   22028172.1054
 -11863642.14547  -9240847.44145  22775844.5314                   22775842.5354
 -11122647.77747  -8664825.34444  23377762.0474                   23377759.7624
 11  8 17 17 14 30.0000000  0 10G03G06G07G10G13G19G28G23G08G11
   9186677.27347   7148984.62944  22566725.3914                   22566723.5234
  12836379.57146   9983185.79343  24580763.6484                   24580762.6024
  -9452916.80948  -7363316.03946  21189063.1564                   21189060.2544
   3915179.57046   3041089.75043  24684215.4224                   24684215.9384
   1090839.43748    849608.85546  20628707.9534                   20628704.5434
  -3658839.89148  -2845144.63746  21180021.6414                   21180016.7544
  -9734316.80547  -7578305.05944  23510408.2114                   23510405.7584
  10923065.33247   8497536.65645  22055205.0394                   22055201.2304
 -11891403.91447  -9262479.97744  22770561.9844                   22770559.2114
 -11154828.47347  -8689901.12544  23371637.2814                   23371636.0314
 11  8 17 17 15  0.0000000  0 10G03G06G07G10G13G19G28G23G08G11
   9323037.45747   7255239.27044  22592673.2424                   22592671.6024
  12978620.10246  10094022.52042  24607831.4064                   24607829.8324
  -9455176.23848  -7365076.61746  21188633.4454                   21188629.9884
   4010466.11746   3115338.92643  24702347.5394                   24702347.7624
   1191112.69148    927743.83246  20647789.2664                   20647786.3204
  -3582547.07448  -2785695.69546  21194539.3984                   21194534.6994
  -9741274.35547  -7583726.46944  23509083.9304                   23509081.7894
  11065393.94948   8608441.98845  22082289.5084                   22082285.5864
 -11919197.25447  -9284137.08244  22765272.9694                   22765270.6174
 -11186914.69947  -8714903.28144  23365531.7274                   23365530.5784
 11  8 17 17 15 30.0000000  0 10G03G06G07G10G13G19G28G23G08G11
   9459714.47347   7361740.80144  22618682.6884                   22618680.8674
  13121026.90246  10204988.82442  24634930.6254                   24634928.1954
  -9457290.25448  -7366723.89546  21188230.9064                   21188227.6524
   4105943.30146   3189736.63343  24720516.7274                   24720516.1484
   1291906.99248   1006284.81646  20666970.0704                   20666966.5164
  -3505677.60948  -2725797.41846  21209167.1094                   21209162.2304
  -9748034.38747  -7588993.96144  23507797.4694                   23507795.7814
  11208015.36748   8719575.49245  22109429.1174                   22109425.4224
 -11947013.32047  -9305811.90344  22759979.6484                   22759977.4654
 -11218896.34447  -8739823.93744  23359444.9224                   23359443.9534
 11  8 17 17 16  0.0000000  0 10G03G06G07G10G13G19G28G23G08G11
   9596698.80547   7468481.80544  22644749.6094                   22644747.8754
  13263591.25846  10316077.84843  24662059.5474                   24662057.9454
  -9459263.30548  -7368261.33246  21187855.6094                   21187852.2664
   4201602.00446   3264275.84043  24738720.1094                   24738719.2154
   1393214.44948   1085225.66046  20686248.0004                   20686244.6844
  -3428239.08248  -2665455.71546  21223903.4454                   21223898.4454
  -9754603.39547  -7594112.61344  23506546.9144                   23506545.0634
  11350920.94148   8830930.39545  22136622.8754                   22136619.5044
 -11974857.28947  -9327508.46145  22754680.6804                   22754678.6844
 -11250776.48447  -8764665.52044  23353378.9774                   23353377.1414
 11  8 17 17 16 30.0000000  0 10G03G06G07G10G13G19G28G23G08G11
   9733998.43447   7575468.47744  22670877.1954                   22670874.8134
  13406321.18846  10427295.91843  24689220.1804                   24689219.1174
  -9461083.37148  -7369679.56246  21187509.3754                   21187505.8554
   4297449.87546   3338962.38343  24756959.8524                   24756958.8284
   1495043.85248   1164573.21146  20705625.5554                   20705622.7664
  -3350222.49248  -2604663.57846  21238749.3444                   21238744.6294
  -9760971.82847  -7599074.96544  23505335.6174                   23505332.8364
  11494118.12548   8942512.53545  22163872.9224                   22163869.0044
 -12002717.75447  -9349217.91044  22749379.2974                   22749377.1094
 -11282541.60947  -8789417.49644  23347333.3834                   23347332.4144
 11  8 17 17 17  0.0000000  0 10G03G06G07G10G13G19G28G23G08G11
   9871602.73047   7682692.57444  22697062.5394                   22697060.1524
  13549206.29346  10538634.89843  24716410.3134                   24716408.6604
  -9462756.23448  -7370983.08646  21187190.4694                   21187187.3094
   4393476.12846   3413787.92743  24775232.4064                   24775232.5824
   1597385.35948   1244319.81346  20725100.8054                   20725097.5904
  -3271636.70348  -2543427.91046  21253704.1024                   21253699.0314
  -9767147.81647  -7603887.37544  23504160.0704                   23504157.3594
  11637596.19148   9054313.53545  22191175.9844                   22191172.0784
 -12030601.35547  -9370945.37545  22744073.8134                   22744071.0314
 -11314196.57047  -8814083.60544  23341311.0164                   23341308.3874
 11  8 17 17 17 30.0000000  0 10G03G06G07G10G13G19G28G23G08G11
  10009506.35947   7790149.89144  22723304.7034                   22723302.7704
  13692241.92246  10650091.15243  24743629.8444                   24743628.2894
  -9464283.13748  -7372172.86746  21186900.2504                   21186896.3014
   4489676.00046   3488748.77743  24793539.4304                   24793539.3164
   1700235.18748   1324462.49646  20744672.4534                   20744669.0984
  -3192485.62548  -2481751.75446  21268765.8524                   21268761.1134
  -9773134.43047  -7608552.20744  23503020.2814                   23503019.2074
  11781350.18448   9166329.54745  22218531.8674                   22218527.3754
 -12058509.68047  -9392692.10245  22738762.4924                   22738760.1954
 -11345740.60247  -8838663.28544  23335307.1954                   23335305.2464
 11  8 17 17 18  0.0000000  0 10G03G06G07G10G13G19G28G23G08G11
  10147706.53947   7897838.29744  22749603.2584                   22749601.2974
  13835426.08246  10761663.14543  24770875.6884                   24770875.0044
  -9465661.52748  -7373246.92646  21186637.7734                   21186633.9454
   4586046.82046   3563842.83643  24811878.1484                   24811877.7704
   1803591.85548   1405000.13346  20764340.2114                   20764336.9774
  -3112770.24648  -2419635.89146  21283935.0164                   21283930.0234
  -9778931.28547  -7613069.18444  23501917.3594                   23501915.1764
  11925377.71148   9278558.70345  22245939.0474                   22245935.6954
 -12086441.00447  -9414456.74645  22733447.1804                   22733445.3874
 -11377170.37147  -8863153.91444  23329326.5474                   23329324.9774
 11  8 17 17 18 30.0000000  0 10G03G06G07G10G13G19G28G23G08G11
  10286198.79747   8005754.30544  22775957.8054                   22775955.7234
  13978754.25446  10873347.35243  24798150.3984                   24798149.6094
  -9466891.85948  -7374205.62146  21186403.7114                   21186400.1094
   4682583.96146   3639066.46143  24830248.3984                   24830248.7114
   1907451.51248   1485929.69946  20784104.0554                   20784100.7894
  -3032494.24648  -2357083.16446  21299210.9924                   21299206.1414
  -9784541.03947  -7617440.36344  23500850.5314                   23500847.8324
  12069674.08248   9390997.32445  22273397.7974                   22273394.0434
 -12114395.87147  -9436239.73445  22728127.5784                   22728125.7854
 -11408484.78547  -8887554.68743  23323367.5474                   23323365.0904
 11  8 17 17 19  0.0000000  0 10G03G06G07G10G13G19G28G23G08G11
   8849570.23047   6886303.42644  22502576.5704                   22502574.0234
  12546814.07846   9757549.73443  24525661.5474                   24525660.2304
 -11043386.80548  -8602643.24246  20886406.5084                   20886403.6524
   3203873.48046   2486824.48442  24548859.1644                   24548859.4804
    436401.39148    339656.84046  20504172.6414                   20504169.4144
  -4527070.32448  -3521687.91846  21014802.3364                   21014797.5744
 -11365379.09847  -8849262.15244  23200026.1954                   23200024.3984
  10638826.62948   8276051.17245  22001116.9694                   22001112.7704
 -13717788.56347 -10685636.62945  22423012.1334                   22423010.0274
 -13015096.34847 -10139459.73444  23017639.5314                   23017636.7344
 11  8 17 17 19 30.0000000  0 10G03G06G07G10G13G19G28G23G08G11
   8988647.42647   6994675.23044  22529041.9224                   22529040.3634
  12690432.30946   9869459.93443  24552991.1954                   24552989.5554
 -11044306.21948  -8603359.66046  20886231.7504                   20886228.0314
   3300744.64146   2562308.43742  24567292.8364                   24567293.5434
    541271.28148    421373.60946  20524128.7664                   20524125.1804
  -4445666.62948  -3458256.48446  21030293.4454                   21030288.0554
 -11370606.81347  -8853335.63344  23199031.8134                   23199029.4264
  10783661.85548   8388909.69145  22028678.1644                   22028674.3984
 -13745777.56647 -10707446.23445  22417686.0634                   22417683.9104
 -13046161.59847 -10163666.34043  23011727.5634                   23011725.4614
 11  8 17 17 20  0.0000000  0 10G03G06G07G10G13G19G28G23G08G11
   9127999.68447   7103261.33644  22555559.6644                   22555557.9104
  12834178.26246   9981469.71043  24580345.3364                   24580344.0164
 -11045080.77748  -8603963.21546  20886084.8204                   20886081.4454
   3397765.46546   2637909.02743  24585755.6564                   24585755.3634
    646630.04548    503471.30646  20544178.2274                   20544175.0124
  -4363714.64548  -3394397.80146  21045888.0704                   21045883.4654
 -11375657.50447  -8857271.18744  23198070.6884                   23198068.3094
  10928748.61348   8501964.19945  22056287.3524                   22056283.4964
 -13773795.13747 -10729278.08645  22412354.7114                   22412351.9964
 -13077110.68047 -10187782.39144  23005837.9384                   23005836.9024
 11  8 17 17 20 30.0000000  0 10G03G06G07G10G13G19G28G23G08G11
   9267635.83647   7212068.69544  22582131.3054                   22582129.1914
  12978062.10547  10093586.95343  24607726.0864                   24607724.6844
 -11045696.85248  -8604443.26646  20885967.1334                   20885964.0434
   3494945.44146   2713633.61342  24604247.6174                   24604248.6954
    752488.52348    585958.39146  20564322.2974                   20564319.4804
  -4281204.23448  -3330103.97346  21061589.6644                   21061584.2544
 -11380519.53547  -8861059.71944  23197145.2504                   23197142.3204
  11074096.46148   8615222.15645  22083946.2424                   22083942.4964
 -13801828.10947 -10751121.94145  22407020.2274                   22407017.9454
 -13107928.58247 -10211796.27043  22999974.2344                   22999972.0784
 11  8 17 17 21  0.0000000  0 10G03G06G07G10G13G19G28G23G08G11
   9407548.81647   7321091.72344  22608756.9144                   22608753.8054
  13122076.72746  10205806.11743  24635130.3754                   24635129.0664
 -11046156.92248  -8604801.76246  20885879.6174                   20885875.8714
   3592276.97746   2789476.26242  24622769.4144                   24622770.3714
    858839.79348    668829.47746  20584560.0474                   20584557.0704
  -4198140.79348  -3265379.22346  21077395.8984                   21077391.0164
 -11385198.25047  -8864705.39844  23196254.9614                   23196252.7774
  11219698.16447   8728677.91845  22111653.0554                   22111649.1454
 -13829879.52747 -10772980.16045  22401682.6094                   22401680.0704
 -13138616.78947 -10235709.11344  22994134.3674                   22994132.4734
 11  8 17 17 21 30.0000000  0 10G03G06G07G10G13G19G28G23G08G11
   9547740.91446   7430332.27043  22635434.1804                   22635431.5634
  13266224.77646  10318129.24943  24662561.4774                   24662559.6174
 -11046454.30048  -8605033.49046  20885823.0944                   20885819.0594
   3689762.77246   2865439.11642  24641321.3054                   24641321.4844
    965686.82048    752086.86346  20604892.6484                   20604889.3404
  -4114520.92648  -3200220.89146  21093308.1254                   21093303.1994
 -11389689.00047  -8868204.60544  23195400.4924                   23195397.8754
  11365556.06247   8842333.31345  22139409.3054                   22139404.8404
 -13857943.12147 -10794847.87545  22396341.8674                   22396340.0204
 -13169167.16447 -10259514.55144  22988319.9534                   22988319.3094
 11  8 17 17 22  0.0000000  0 10G03G06G07G10G13G19G28G23G08G11
   9688200.97747   7539781.60944  22662162.4224                   22662160.8014
  13410495.47746  10430547.91442  24690014.6884                   24690014.1054
 -11046595.62948  -8605143.61346  20885796.0234                   20885792.6254
   3787391.52046   2941513.37542  24659899.3054                   24659899.5554
   1073019.72348    835722.85946  20625317.2424                   20625314.2194
  -4030354.53148  -3134636.69146  21109324.6024                   21109319.3674
 -11394000.43847  -8871564.10544  23194579.9064                   23194577.4304
  11511659.03947   8956179.68945  22167211.4384                   22167207.9964
 -13886026.02347 -10816730.63345  22390997.7114                   22390995.4654
 -13199584.96947 -10283216.68044  22982531.9534                   22982530.1844
 11  8 17 17 22 30.0000000  0 10G03G06G07G10G13G19G28G23G08G11
   9828926.66047   7649437.92244  22688942.0004                   22688939.3404
  13554887.34845  10543061.00442  24717490.6884                   24717491.1564
 -11046578.27348  -8605130.09446  20885799.4144                   20885795.8524
   3885161.43446   3017697.68042  24678504.2114                   24678504.5704
   1180837.09848    919736.35546  20645834.0554                   20645831.0514
  -3945642.61748  -3068627.42646  21125445.0474                   21125440.1214
 -11398132.64547  -8874783.95744  23193793.8914                   23193790.7934
  11658004.85547   9070215.28145  22195060.3204                   22195056.0634
 -13914125.85547 -10838626.59445  22385650.6414                   22385648.4734
 -13229866.00047 -10306812.22344  22976769.6094                   22976768.0204
 11  8 17 17 23  0.0000000  0 10G03G06G07G10G13G19G28G23G08G11
   9969918.61346   7759301.72744  22715771.7344                   22715769.6134
  13699401.16045  10655669.11342  24744992.1094                   24744992.1524
 -11046396.96148  -8604988.80946  20885834.3524                   20885830.1054
   3983072.91446   3093992.27743  24697135.9534                   24697136.4454
   1289140.60948   1004128.65646  20666443.8754                   20666440.5434
  -3860383.31348  -3002191.61346  21141668.9844                   21141664.2464
 -11402082.40647  -8877861.63744  23193042.2344                   23193039.2854
  11804594.52047   9184440.88745  22222955.5314                   22222951.0634
 -13942237.90247 -10860532.05145  22380300.6414                   22380298.6764
 -13260004.02747 -10330296.33244  22971034.6644                   22971033.3014
 11  8 17 17 23 30.0000000  0 10G03G06G07G10G13G19G28G23G08G11
  10111159.41446   7869359.44944  22742648.3984                   22742646.6684
  13844019.78545  10768358.90642  24772511.2664                   24772511.7624
 -11046065.08248  -8604730.19546  20885897.1414                   20885893.4104
   4081108.38746   3170383.46142  24715790.9774                   24715791.5824
   1397913.52048   1088886.73046  20687142.7194                   20687139.4264
  -3774592.95348  -2935341.99246  21157994.4614                   21157989.2974
 -11405865.62947  -8880809.56644  23192321.7664                   23192319.0004
  11951409.66847   9298842.19545  22250893.6024                   22250889.4494
 -13970375.77047 -10882457.65245  22374946.5004                   22374943.7664
 -13290010.85547 -10353678.22344  22965324.6564                   22965322.8484
 11  8 17 17 24  0.0000000  0 10G03G06G07G10G13G19G28G23G08G11
  10252667.94147   7979625.76244  22769577.8524                   22769575.2664
  13988762.74245  10881145.55942  24800055.3524                   24800056.1884
 -11045558.15648  -8604335.19946  20885993.8284                   20885990.4494
   4179287.26246   3246886.37542  24734474.3364                   24734474.7734
   1507175.57448   1174025.95346  20707934.7424                   20707931.4264
  -3688250.92648  -2868062.50446  21174424.7734                   21174419.6954
 -11409460.35547  -8883610.58644  23191638.4454                   23191635.6374
  12098469.87147   9413434.44945  22278878.4614                   22278873.9654
 -13998516.01247 -10904385.09845  22369591.7504                   22369589.0434
 -13319861.23847 -10376938.21544  22959643.7814                   22959641.9064
 11  8 17 17 24 30.0000000  0 10G03G06G07G10G13G19G28G23G08G11
  10394430.66847   8090090.16044  22796553.9304                   22796551.9774
  14133617.18446  10994019.12542  24827619.7274                   24827620.3754
 -11044885.54748  -8603811.08246  20886121.1564                   20886118.2464
   4277596.56646   3323490.95743  24753182.7344                   24753181.9734
   1616914.44148   1259536.71146  20728817.3364                   20728814.0554
  -3601369.53147  -2800362.71946  21190957.7274                   21190952.7854
 -11412877.93047  -8886273.57044  23190987.4064                   23190985.0354
  12245761.68047   9528207.18845  22306907.5554                   22306903.3244
 -14026668.23847 -10926321.89545  22364234.1954                   22364232.1724
 -13349562.89147 -10400082.27344  22953992.0704                   22953990.3324
 11  8 17 17 25  0.0000000  0  9G03G07G10G13G19G28G23G08G11
  10536447.17647   8200752.30544  22823579.0084                   22823575.7934
 -11044043.49648  -8603154.93046  20886281.7734                   20886278.4614
   4376035.10146   3400196.24142  24771913.6484                   24771914.4344
   1727129.68448   1345418.68046  20749790.4384                   20749787.2624
  -3513948.79348  -2732242.68046  21207593.3204                   21207588.2584
 -11416117.04747  -8888797.52344  23190371.4454                   23190368.2854
  12393284.02347   9643159.57045  22334979.3984                   22334975.8364
 -14054829.07847 -10948265.39545  22358875.3134                   22358872.7074
 -13379110.75447 -10423106.53544  22948370.0004                   22948367.2584
 11  8 17 17 25 30.0000000  0  9G03G07G10G13G19G28G23G08G11
  10678717.28947   8311612.11344  22850652.1884                   22850650.0664
 -11043026.94148  -8602362.81646  20886475.6334                   20886471.8984
   4474602.87146   3477002.21143  24790671.5164                   24790671.5234
   1837822.18748   1431672.52746  20770854.9694                   20770851.5044
  -3425987.27047  -2663701.25046  21224332.0704                   21224326.9884
 -11419175.36747  -8891180.59044  23189789.2034                   23189786.1024
  12541037.20347   9758291.80145  22363096.3914                   22363092.6724
 -14082993.83247 -10970211.94945  22353516.4144                   22353513.7194
 -13408498.39847 -10446005.92844  22942777.1094                   22942775.2274
 11  8 17 17 26  0.0000000  0  9G03G07G10G13G19G28G23G08G11
  10821239.12547   8422668.02344  22877773.1724                   22877772.0354
 -11041833.23047  -8601432.65246  20886702.6724                   20886699.1134
   4573298.13746   3553907.50843  24809453.0704                   24809453.2624
   1948991.19948   1518297.69146  20792009.6724                   20792006.2464
  -3337485.75447  -2594739.05146  21241173.3284                   21241168.0704
 -11422052.42647  -8893422.41844  23189241.5864                   23189238.7894
  12689019.80547   9873602.80545  22391256.6724                   22391253.6604
 -14111160.64147 -10992160.10245  22348155.9224                   22348153.5124
 -13437722.12547 -10468777.60544  22937215.9774                   22937213.9774
 11  8 17 17 26 30.0000000  0  9G03G07G10G13G19G28G23G08G11
  10964012.94947   8533920.27743  22904941.6884                   22904940.3204
 -11040457.55948  -8600360.69946  20886964.3834                   20886960.6484
   4672121.30946   3630912.46543  24828258.0864                   24828258.5824
   2060637.38348   1605294.68046  20813254.7814                   20813251.8284
  -3248443.08647  -2525355.15646  21258117.8594                   21258112.5434
 -11424745.70747  -8895521.03544  23188728.9534                   23188726.6414
  12837231.29747   9989092.15645  22419460.3134                   22419457.4344
 -14139325.20747 -11014106.49245  22342796.5634                   22342793.6254
 -13466775.88347 -10491416.81644  22931686.8984                   22931684.5204
 11  8 17 17 27  0.0000000  0  9G03G07G10G13G19G28G23G08G11
  11107028.30947   8645360.75444  22932157.0784                   22932155.2274
 -11038905.57448  -8599151.35546  20887259.4064                   20887256.1564
   4771062.43746   3708009.34443  24847086.2114                   24847086.7384
   2172751.23448   1692656.07846  20834589.9304                   20834586.2664
  -3158868.18447  -2455556.55146  21275163.1484                   21275158.4574
 -11427263.58647  -8897482.97344  23188249.7344                   23188247.0984
  12985661.59847  10104751.99645  22447705.8204                   22447702.8594
 -14167493.19947 -11036055.54745  22337436.4844                   22337433.9614
 -13495663.75047 -10513926.77344  22926189.4384                   22926187.2304
 11  8 17 17 27 30.0000000  0  9G03G07G10G13G19G28G23G08G11
  11250286.77046   8756990.69143  22959417.8444                   22959415.8324
 -11037170.89848  -8597799.65246  20887589.8444                   20887586.2584
   4870122.44946   3785198.89643  24865936.3284                   24865936.9884
   2285335.08648   1780383.71546  20856013.9064                   20856010.3554
  -3068758.44147  -2385341.17646  21292310.5554                   21292305.3134
 -11429601.93047  -8899305.02744  23187805.0394                   23187802.3134
  13134312.19147  10220583.51245  22475993.0784                   22475990.0314
 -14195658.90647 -11058002.82845  22332076.6174                   22332074.0204
 -13524378.41047 -10536301.77744  22920724.7734                   22920723.0004
 11  8 17 17 28  0.0000000  0  9G03G07G10G13G19G28G23G08G11
  11393783.89547   8868806.54343  22986724.9384                   22986723.0554
 -11035253.47348  -8596305.56246  20887954.7734                   20887950.6564
   4969297.53946   3862478.09443  24884809.8594                   24884809.2734
   2398384.93448   1868474.45746  20877526.3054                   20877523.3164
  -2978117.57448  -2314711.94146  21309558.9774                   21309553.8014
 -11431763.32047  -8900989.20744  23187393.0554                   23187391.1094
  13283178.86347  10336583.37145  22504321.7814                   22504318.4534
 -14223822.65247 -11079948.57845  22326717.0314                   22326714.0314
 -13552918.56347 -10558540.78144  22915294.2114                   22915293.0394
 11  8 17 17 28 30.0000000  0  9G03G07G10G13G19G28G23G08G11
  11537510.92247   8980801.59443  23014075.6644                   23014072.8914
 -11033157.61748  -8594672.42646  20888353.0784                   20888349.5394
   5068578.68446   3939839.95743  24903701.8834                   24903701.8954
   2511892.69148   1956922.02046  20899125.9774                   20899123.0634
  -2886953.21547  -2243674.78546  21326906.4774                   21326901.6414
 -11433754.34847  -8902540.61744  23187014.8594                   23187011.9144
  13432252.53947  10452744.54745  22532689.4774                   22532686.3984
 -14251988.92647 -11101896.31645  22321357.1094                   22321354.3134
 -13581286.80547 -10580645.82844  22909896.2504                   22909894.5434
 11  8 17 17 29  0.0000000  0  9G03G07G10G13G19G28G23G08G11
  11681466.23847   9092974.51643  23041469.3134                   23041466.6954
 -11030879.94148  -8592897.62146  20888786.6724                   20888783.1174
   5167964.78146   4017283.56643  24922614.7894                   24922614.6604
   2625857.58648   2045725.77746  20920812.8754                   20920810.2464
  -2795266.00448  -2172230.21946  21344354.6254                   21344349.6254
 -11435574.18047  -8903958.66044  23186668.3754                   23186665.8634
  13581531.28947  10569065.51245  22561096.2664                   22561093.2424
 -14280155.01247 -11123843.90645  22315997.8204                   22315994.4964
 -13609478.79347 -10602613.52044  22904530.0474                   22904529.2464
 11  8 17 17 29 30.0000000  0 10G03G07G10G13G24G19G28G23G08G11
  11825648.28147   9205324.10143  23068906.2344                   23068904.1724
 -11028417.48848  -8590978.81846  20889255.3834                   20889251.6214
   5267453.78146   4094807.36343  24941546.6804                   24941546.9384
   2740278.43448   2134884.84046  20942586.6484                   20942583.6484
  -9508130.85956  -7402133.02753  24392745.8134                   24392749.2894
  -2703056.57048  -2100378.71646  21361900.9614                   21361896.3914
 -11437222.22347  -8905242.81544  23186354.9614                   23186352.3954
  13731013.70347  10685545.17645  22589541.7734                   22589538.8284
 -14308318.25447 -11145789.27345  22310638.0784                   22310635.3874
 -13637490.60947 -10624440.81644  22899200.2584                   22899198.5084
 11  8 17 17 30  0.0000000  0 10G03G07G10G13G24G19G28G23G08G11
  11970040.87147   9317837.75843  23096382.7424                   23096381.6954
 -11025781.60948  -8588924.88746  20889756.8524                   20889753.3094
   5367030.23846   4172399.30543  24960495.5394                   24960495.8134
   2855139.93048   2224387.25446  20964444.2344                   20964440.8874
  -9537141.84446  -7424738.80543  24387224.7274                   24387228.4774
  -2610339.74647  -2028131.85546  21379544.8364                   21379539.8714
 -11438712.55547  -8906404.07044  23186071.0784                   23186068.3984
  13880684.29747  10802171.48045  22618023.7034                   22618020.2464
 -14336490.41847 -11167741.59445  22305276.9614                   22305274.4304
 -13665332.16847 -10646135.48044  22893902.1564                   22893900.0664
 11  8 17 17 30 30.0000000  0  9G03G07G13G24G19G28G23G08G11
  12114654.71946   9430523.81643  23123902.5164                   23123899.9574
 -11022956.75848  -8586723.69146  20890294.6024                   20890291.4694
   2970453.28948   2314241.76646  20986387.7114                   20986384.6764
  -9566240.80946  -7447413.21543  24381687.5784                   24381691.1334
  -2517104.33248  -1955480.88746  21397286.8444                   21397282.2624
 -11440032.43847  -8907432.53544  23185819.7734                   23185816.6914
  14030553.14147  10918952.26245  22646542.9064                   22646539.4224
 -14364656.92247 -11189689.50445  22299917.5234                   22299914.9224
 -13692986.81347 -10667684.48444  22888639.8054                   22888638.1294
 11  8 17 17 31  0.0000000  0  9G03G07G13G24G19G28G23G08G11
  12259477.99247   9543373.07043  23151461.1024                   23151459.3204
 -11019950.13348  -8584380.86746  20890866.7504                   20890863.1604
   3086207.45748   2404439.77346  21008415.0784                   21008412.2664
  -9595433.96146  -7470160.98843  24376132.5084                   24376136.7114
  -2423361.10247  -1882434.23446  21415125.5314                   21415120.6914
 -11441191.07047  -8908335.32844  23185599.2894                   23185596.7814
  14180608.44547  11035878.32045  22675097.2814                   22675094.5664
 -14392824.82047 -11211638.48845  22294556.4924                   22294554.6094
 -13720460.19547 -10689092.22344  22883411.3754                   22883410.4184
 11  8 17 17 31 30.0000000  0  9G03G07G13G24G19G28G23G08G11
  12404516.65647   9656390.14144  23179061.2974                   23179059.9654
 -11016751.59048  -8581888.49246  20891475.4694                   20891471.4304
   3202408.73848   2494986.16846  21030527.5864                   21030524.3484
  -9624710.15246  -7492973.48843  24370561.1804                   24370565.2154
  -2329103.37147  -1808986.66846  21433062.1644                   21433057.5084
 -11442180.56347  -8909106.32844  23185411.6024                   23185408.3954
  14330855.74647  11152954.00844  22703688.4224                   22703685.3984
 -14420983.93447 -11233580.63345  22289198.5394                   22289195.7194
 -13747741.18847 -10710350.09844  22878220.5944                   22878218.5204
 11  8 17 17 32  0.0000000  0  9G03G07G13G24G19G28G23G08G11
  12549766.34847   9769571.66844  23206701.5944                   23206700.0514
 -11013360.21948  -8579245.87546  20892120.6804                   20892116.8324
   3319053.05548   2585877.79746  21052724.2664                   21052720.7114
  -9654067.75446  -7515849.45343  24364974.9694                   24364977.5314
  -2234334.24647  -1735140.60946  21451096.0864                   21451091.1374
 -11443003.31647  -8909747.40644  23185254.1174                   23185251.1484
  14481291.25047  11270176.32444  22732315.5864                   22732312.4534
 -14449134.10547 -11255515.83245  22283841.8054                   22283839.0704
 -13774827.62947 -10731456.32844  22873066.0704                   22873064.0474
 11  8 17 17 32 30.0000000  0  9G03G07G13G24G19G28G23G08G11
  12695230.65247   9882920.43044  23234382.1094                   23234380.9694
 -11009767.88348  -8576446.64846  20892804.7664                   20892800.9694
   3436144.64548   2677117.94146  21075005.7504                   21075002.8404
  -9683497.73846  -7538781.76643  24359373.4384                   24359377.0234
  -2139049.50447  -1660892.78546  21469228.3284                   21469223.3484
 -11443653.54347  -8910254.03944  23185130.5004                   23185127.4844
  14631918.08647  11387547.75844  22760979.0004                   22760975.9614
 -14477267.57847 -11277437.99245  22278487.9064                   22278485.7194
 -13801710.08347 -10752403.63044  22867950.9384                   22867948.6994
 11  8 17 17 33  0.0000000  0  9G03G07G13G24G19G28G23G08G11
  12840901.14146   9996429.82044  23262102.7194                   23262101.2974
 -11005978.45748  -8573493.85546  20893525.2424                   20893521.9344
   3553675.80548   2768700.61746  21097371.4304                   21097368.2344
  -9713003.14146  -7561772.86743  24353758.6644                   24353761.5554
  -2043257.05547  -1586249.31646  21487456.8984                   21487451.6174
 -11444137.62147  -8910631.21944  23185039.0084                   23185035.6724
  14782727.89147  11505061.73044  22789677.2194                   22789673.9224
 -14505388.61747 -11299350.48445  22273136.8284                   22273133.9144
 -13828391.31347 -10773194.11744  22862872.9304                   22862870.7274
 11  8 17 17 33 30.0000000  0  9G03G07G13G24G19G28G23G08G11
  12986771.16047  10110094.71144  23289861.1094                   23289859.5864
 -11001994.10248  -8570389.15646  20894283.4614                   20894279.9534
   3671640.23048   2860620.89146  21119819.1414                   21119816.1684
  -9742584.83246  -7584823.40642  24348129.1254                   24348132.8834
  -1946962.50847  -1511214.62146  21505781.0394                   21505776.3754
 -11444459.67647  -8910882.13744  23184976.9774                   23184974.5784
  14933713.99247  11622713.09844  22818409.6804                   22818405.6844
 -14533499.58647 -11321255.12545  22267787.6884                   22267784.8834
 -13854871.88347 -10793828.26644  22857833.8914                   22857831.5904
 11  8 17 17 34  0.0000000  0  9G03G07G13G24G19G28G23G08G11
  13132851.06247  10223923.13344  23317659.5474                   23317658.0784
 -10997799.69948  -8567120.80146  20895081.7274                   20895077.7074
   3790048.19948   2952886.78546  21142351.6564                   21142348.6054
  -9772226.73046  -7607920.90643  24342488.5704                   24342492.7934
  -1850154.77048  -1435780.02346  21524203.2034                   21524198.2814
 -11444607.73447  -8910997.49244  23184948.8834                   23184945.4264
  15084886.20747  11740509.48444  22847176.5394                   22847173.1524
 -14561585.79347 -11343140.47345  22262442.8914                   22262440.3404
 -13881135.80547 -10814293.59444  22852835.2034                   22852834.0554
 11  8 17 17 34 30.0000000  0  9G03G07G13G24G19G28G23G08G11
  13279125.03947  10337902.77344  23345494.4144                   23345492.6764
 -10993406.46948  -8563697.50046  20895917.7664                   20895914.4454
   3908884.82048   3045486.70346  21164965.6254                   21164962.3794
  -9801939.18046  -7631073.33242  24336834.9064                   24336838.3204
  -1752849.15248  -1359957.47746  21542720.0944                   21542714.6604
 -11444595.57447  -8910987.98444  23184951.1644                   23184948.7074
  15236228.83247  11858438.63744  22875976.7424                   22875973.2424
 -14589658.64547 -11365015.41045  22257101.0474                   22257097.8674
 -13907193.15247 -10834597.93444  22847877.8594                   22847875.2704
 11  8 17 17 35  0.0000000  0  9G03G07G13G24G19G28G23G08G11
  13425598.54347  10452037.89844  23373367.3674                   23373365.5864
 -10988803.30948  -8560110.62146  20896793.5554                   20896790.0084
   4028156.28548   3138425.45746  21187661.9774                   21187658.9534
  -9831710.59046  -7654271.71542  24331168.9144                   24331173.6804
  -1655038.85948  -1283741.69146  21561332.2034                   21561327.1484
 -11444415.05147  -8910847.28544  23184985.5704                   23184982.3554
  15387747.55147  11976505.02044  22904809.4304                   22904806.4924
 -14617707.48847 -11386871.64145  22251763.3984                   22251761.2234
 -13933031.98847 -10854732.00844  22842960.8364                   22842957.8834
 11  8 17 17 35 30.0000000  0  9G03G07G13G24G19G28G23G08G11
  13572270.21946  10566327.46143  23401277.6414                   23401276.2664
 -10983987.49648  -8556358.03546  20897710.0004                   20897706.5164
   4147861.10548   3231701.89546  21210441.3364                   21210438.4414
  -9861537.19446  -7677513.09942  24325493.4534                   24325497.7894
  -1556725.21548  -1207133.66846  21580041.1414                   21580035.5944
 -11444065.84847  -8910575.16044  23185052.2034                   23185049.1024
  15539440.68747  12094707.29744  22933675.8674                   22933673.0664
 -14645730.06647 -11408707.39545  22246430.7894                   22246428.2734
 -13958648.36747 -10874692.73844  22838085.8524                   22838082.9144
 11  8 17 17 36  0.0000000  0  9G03G07G13G24G19G28G23G08G11
  13719133.59847  10680766.39843  23429225.2584                   23429223.7464
 -10978961.41448  -8552441.61346  20898666.4614                   20898663.0474
   4267993.61348   3325311.59446  21233301.8444                   21233298.8244
  -9891419.62546  -7700798.03142  24319806.5634                   24319811.4774
  -1457913.42248  -1130137.47746  21598843.9534                   21598839.0634
 -11443552.38347  -8910175.02744  23185149.4534                   23185146.6884
  15691301.46547  12213040.18844  22962574.4454                   22962571.1214
 -14673728.27047 -11430524.16045  22241102.8594                   22241100.0744
 -13984042.82047 -10894480.55144  22833253.6564                   22833250.4844
 11  8 17 17 36 30.0000000  0  9G03G07G13G24G19G28G23G08G11
  13866181.30946  10795348.94943  23457207.5554                   23457205.5164
 -10973727.35948  -8548363.11746  20899662.9064                   20899659.1564
   4388546.32448   3419248.71946  21256242.4924                   21256239.4804
  -9921359.98846  -7724128.05542  24314109.3834                   24314113.0744
  -1358610.51248  -1052758.60246  21617740.8284                   21617735.7814
 -11442880.03147  -8909651.09444  23185277.5554                   23185274.1484
  15843322.80547  12331498.21544  22991502.7734                   22991500.2624
 -14701705.48447 -11452324.59845  22235779.1094                   22235776.1214
 -14009216.98847 -10914096.71144  22828462.3674                   22828460.4144
 11  8 17 17 37  0.0000000  0  9G03G07G13G24G19G28G23G08G11
  12437993.60546   9682475.34443  23185432.1724                   23185430.2734
 -12543704.82848  -9771722.18846  20600905.8364                   20600902.2734
   2934099.04348   2285913.13346  20979470.0554                   20979466.9884
 -11526777.78946  -8975102.81642  24008608.7734                   24008611.6804
  -2834237.13348  -2202597.53946  21336938.3984                   21336933.4964
 -13017471.07447 -10136605.12144  22885642.6094                   22885639.9144
  14420085.10547  11222481.63744  22720670.3834                   22720667.3204
 -16305082.25047 -12701709.07045  21930666.4614                   21930663.5664
 -15609590.20747 -12161140.70344  22523921.6414                   22523919.8484
 11  8 17 17 37 30.0000000  0  9G03G07G13G24G19G28G23G08G11
  12585404.77746   9797341.16043  23213483.5314                   23213481.1914
 -12538045.68048  -9767312.45746  20601982.7974                   20601978.7934
   3055488.18048   2380502.01646  21002569.8914                   21002566.8404
 -11556821.64146  -8998513.52743  24002890.8834                   24002893.1174
  -2733955.25448  -2124455.83246  21356021.3984                   21356016.3014
 -13016479.77747 -10135832.64544  22885831.7894                   22885829.2074
  14572421.69147  11341185.29745  22749658.9924                   22749656.8834
 -16333008.86347 -12723470.05945  21925352.0004                   21925349.0314
 -15634311.03947 -12180403.58644  22519217.1644                   22519215.4454
 11  8 17 17 38  0.0000000  0  9G03G07G13G24G19G28G23G08G11
  12732990.29747   9912342.82843  23241568.7504                   23241566.7464
 -12532174.48848  -9762737.50046  20603100.1414                   20603096.2734
   3177288.70348   2475411.46146  21025747.2274                   21025744.6644
 -11586916.12946  -9021963.62543  23997164.8984                   23997166.7814
  -2633190.50448  -2045937.86746  21375196.7424                   21375191.5594
 -13015333.27747 -10134939.23844  22886050.0474                   22886046.9734
  14724908.46547  11460005.95344  22778676.2274                   22778673.6484
 -16360911.14147 -12745212.07045  21920042.9384                   21920039.3524
 -15658803.82847 -12199488.81644  22514556.4844                   22514554.2854
 11  8 17 17 38 30.0000000  0  9G03G07G13G24G19G28G23G08G11
  12880752.41647  10027482.07744  23269686.7734                   23269684.6414
 -12526084.25048  -9757991.86746  20604258.6724                   20604255.1644
   3299503.19148   2570643.48046  21049004.0784                   21049001.2734
 -11617053.32446  -9045447.00043  23991429.1804                   23991431.8874
  -2531939.62548  -1967041.10246  21394464.1414                   21394459.3954
 -13014027.08247 -10133921.38344  22886298.1174                   22886295.3914
  14877547.32447  11578945.13744  22807722.6954                   22807719.1524
 -16388782.16847 -12766929.75445  21914738.8524                   21914735.9734
 -15683060.34447 -12218389.95344  22509940.9454                   22509937.9654
 11  8 17 17 39  0.0000000  0  9G03G07G13G24G19G28G23G08G11
  13028689.43446  10142757.60943  23297837.8674                   23297836.7544
 -12519771.99248  -9753073.23046  20605459.8594                   20605456.3054
   3422130.32048   2666197.03546  21072339.3054                   21072336.8954
 -11647229.30946  -9068960.57443  23985686.8284                   23985689.7664
  -2430204.01648  -1887766.63746  21413823.4064                   21413818.9264
 -13012561.38747 -10132779.24644  22886577.3594                   22886573.8554
  15030336.30547  11698001.31244  22836797.5704                   22836793.9924
 -16416619.39548 -12788621.07445  21909441.5314                   21909438.7384
 -15707076.75847 -12237103.98044  22505370.8204                   22505368.2234
 11  8 17 17 39 30.0000000  0  9G03G07G13G24G19G28G23G08G11
  13176797.64847  10258166.54743  23326022.4144                   23326020.9104
 -12513236.67648  -9747980.77046  20606703.6564                   20606700.2194
   3545166.09448   2762069.02746  21095752.2814                   21095749.7504
 -11677442.17647  -9092502.88344  23979937.9064                   23979940.7624
  -2327986.92648  -1808116.97346  21433275.0784                   21433270.1214
 -13010937.49247 -10131513.83244  22886885.9064                   22886882.9884
  15183272.08447  11817171.84144  22865899.8444                   22865897.0434
 -16444421.89847 -12810285.34845  21904150.7274                   21904147.8524
 -15730850.92247 -12255629.23444  22500846.4304                   22500843.8484
 11  8 17 17 40  0.0000000  0  9G03G07G13G24G19G28G23G08G11
  13325067.90247  10373701.76643  23354237.4224                   23354235.8054
 -12506482.73048  -9742717.96146  20607988.9304                   20607985.3284
   3668602.01248   2858252.80546  21119241.5164                   21119238.9534
 -11707695.32847  -9116076.63744  23974181.2274                   23974182.7704
  -2225296.75848  -1728098.69146  21452816.3524                   21452810.8674
 -13009162.76647 -10130130.88744  22887224.1644                   22887220.6054
  15336345.08247  11936449.31644  22895029.4144                   22895026.8244
 -16472194.32447 -12831926.19545  21898866.2194                   21898863.2774
 -15754385.91847 -12273968.14144  22496367.9144                   22496365.4144
 11  8 17 17 40 30.0000000  0  9G03G07G13G24G19G28G23G08G11
  13473506.83247  10489368.40643  23382485.0944                   23382482.5864
 -12499499.12148  -9737276.19146  20609318.3134                   20609314.5744
   3792444.77347   2954753.61346  21142808.4534                   21142805.1054
 -11737976.66847  -9139672.31343  23968418.6804                   23968420.4534
  -2122126.59048  -1647706.37946  21472448.8674                   21472444.1374
 -13007228.45747 -10128623.59844  22887592.3284                   22887588.7504
  15489561.75047  12055838.72744  22924185.8834                   22924183.2584
 -16499925.71148 -12853535.06645  21893588.6094                   21893586.0824
 -15777669.73847 -12292111.32044  22491937.2114                   22491935.0314
 11  8 17 17 41  0.0000000  0  9G03G07G13G24G19G28G23G08G11
  13622110.82047  10605163.66043  23410762.6564                   23410761.2664
 -12492284.28548  -9731654.25046  20610690.9064                   20610686.8714
   3916691.03547   3051568.84046  21166451.4924                   21166448.6134
 -11768284.07447  -9163288.26643  23962650.3444                   23962653.9384
  -2018479.84847  -1566942.71146  21492172.0234                   21492167.5514
 -13005136.30047 -10126993.29544  22887989.8524                   22887986.6024
  15642918.33647  12175337.17644  22953368.6414                   22953365.6954
 -16527615.37548 -12875111.41445  21888320.0394                   21888317.2584
 -15800700.03947 -12310056.96145  22487554.4304                   22487552.1254
 11  8 17 17 41 30.0000000  0  9G03G07G13G24G19G28G23G08G11
  13770870.69946  10721080.35943  23439071.0394                   23439069.6454
 -12484843.04748  -9725855.89546  20612106.7584                   20612102.6564
   4041332.03147   3148691.63746  21190170.0004                   21190167.0274
 -11798620.67646  -9186927.00043  23956877.8984                   23956880.2034
  -1914364.18848  -1485813.64146  21511984.8524                   21511979.8244
 -13002893.10947 -10125245.33644  22888417.1564                   22888413.7664
  15796405.76247  12294937.57444  22982575.8984                   22982573.7034
 -16555267.30948 -12896658.37945  21883057.5944                   21883054.9344
 -15823479.77747 -12327807.35545  22483219.8444                   22483217.6414
 11  8 17 17 42  0.0000000  0  9G03G07G13G24G19G28G23G08G11
  13919778.68046  10837112.48443  23467407.0084                   23467405.2384
 -12477178.64848  -9719883.63346  20613565.4614                   20613561.7664
   4166360.00447   3246115.98845  21213961.7814                   21213959.1914
 -11828988.97746  -9210590.35944  23951099.1644                   23951102.0634
  -1809787.57048  -1404325.39546  21531884.7894                   21531880.3954
 -13000505.08247 -10123384.50045  22888871.4384                   22888868.4534
  15950015.94947  12414633.61344  23011807.4454                   23011804.4494
 -16582885.48047 -12918179.01245  21877802.1174                   21877799.3754
 -15846011.29747 -12345364.34044  22478932.0314                   22478929.7154
 11  8 17 17 42 30.0000000  0  9G03G07G13G24G19G28G23G08G11
  14068845.97746  10953268.75043  23495774.4064                   23495772.0824
 -12469275.37148  -9713725.24246  20615069.1644                   20615066.0044
   4291785.80147   3343850.31646  21237829.2584                   21237826.9264
 -11859372.24746  -9234265.41343  23945316.8754                   23945319.7154
  -1704738.82848  -1322469.24646  21551874.6484                   21551870.4184
 -12997959.12147 -10121400.57444  22889355.7274                   22889352.8554
  16103759.75047  12534433.78544  23041064.2274                   23041061.8014
 -16610454.07447 -12939661.02345  21872556.0164                   21872552.4884
 -15868277.88747 -12362714.88745  22474694.6724                   22474692.5234
 11  8 17 17 43  0.0000000  0  9G03G07G13G24G19G28G23G08G11
  14218062.24646  11069541.05543  23524168.7894                   23524167.3164
 -12461138.60548  -9707384.91046  20616617.9224                   20616614.0274
   4417599.36747   3441886.80546  21261771.2974                   21261769.0664
 -11889774.79746  -9257955.48043  23939531.5784                   23939533.6604
  -1599227.32048  -1240252.51246  21571953.5394                   21571948.7034
 -12995263.47347 -10119300.03144  22889868.5634                   22889865.4574
  16257626.78947  12654329.95744  23070344.5554                   23070342.8524
 -16637979.12548 -12961109.10545  21867318.1884                   21867315.2704
 -15890284.03547 -12379862.49245  22470507.5704                   22470504.4304
 11  8 17 17 43 30.0000000  0  9G03G07G13G24G19G28G23G08G11
  14367423.82846  11185926.64543  23552591.1174                   23552589.3444
 -12452767.54348  -9700862.00846  20618210.5704                   20618207.0744
   4543797.24247   3540222.76645  21285785.9694                   21285783.2464
 -11920195.06346  -9281659.31343  23933741.2814                   23933745.2114
  -1493256.49647  -1157677.85946  21592118.8754                   21592113.9804
 -12992420.08247 -10117084.36344  22890409.3364                   22890406.6054
  16411613.13747  12774319.09844  23099646.5474                   23099644.8554
 -16665459.97348 -12982522.73845  21862088.9384                   21862085.6334
 -15912027.90247 -12396805.73444  22466369.0864                   22466366.3634
 11  8 17 17 44  0.0000000  0  9G03G07G13G24G19G28G23G08G11
  14516926.16446  11302421.85543  23581040.8134                   23581038.8244
 -12444161.73448  -9694156.19146  20619848.1334                   20619844.5944
   4670375.43448   3638855.08245  21309872.7664                   21309870.4144
 -11950631.42646  -9305375.77343  23927949.4694                   23927952.3524
  -1386830.61748  -1074748.62146  21612371.0234                   21612365.9694
 -12989431.27347 -10114755.37945  22890978.3204                   22890975.3054
  16565714.29747  12894397.72344  23128971.7894                   23128969.2194
 -16692896.11347 -13003901.53145  21856867.6484                   21856864.8404
 -15933507.70747 -12413543.21545  22462282.3834                   22462279.9414
 11  8 17 17 44 30.0000000  0  9G03G07G13G24G19G28G23G08G11
  14666569.23446  11419026.79743  23609517.5784                   23609515.5044
 -12435316.47348  -9687263.78546  20621531.5784                   20621527.7664
   4797333.57847   3737783.44945  21334032.7504                   21334029.8714
 -11981078.53246  -9329100.57743  23922157.1804                   23922159.1604
  -1279949.29348   -991464.48846  21632709.6644                   21632705.0274
 -12986295.28947 -10112311.72345  22891575.1804                   22891571.9064
  16719930.10547  13014565.64844  23158318.7504                   23158316.2974
 -16720283.41847 -13025242.28145  21851656.2274                   21851653.3834
 -15954717.91847 -12430070.58244  22458245.2894                   22458243.5904
 11  8 17 17 45  0.0000000  0  9G03G07G13G24G19G28G23G08G11
  14816348.42247  11535737.80943  23638018.8284                   23638017.2934
 -12426232.61348  -9680185.44946  20623260.3364                   20623256.4064
   4924666.67648   3837003.98845  21358263.0944                   21358260.0824
 -12011535.50046  -9352833.10543  23916360.0944                   23916362.4384
  -1172617.16448   -907829.08646  21653134.5554                   21653129.9384
 -12983014.93847 -10109755.57444  22892199.3914                   22892196.2384
  16874255.21947  13134818.78944  23187685.7664                   23187683.1454
 -16747622.23047 -13046545.24645  21846453.8364                   21846451.1564
 -15975658.00847 -12446387.50444  22454260.5474                   22454258.1914
 11  8 17 17 45 30.0000000  0  9G03G07G13G24G19G28G23G08G11
  14966261.34046  11652552.98043  23666546.2974                   23666545.6524
 -12416906.75448  -9672918.55546  20625034.6884                   20625031.0904
   5052373.35948   3936515.63745  21382564.9384                   21382562.5594
 -12041998.26646  -9376570.13742  23910562.2194                   23910564.8134
  -1064835.64548   -823843.50846  21673645.1174                   21673640.0044
 -12979590.25447 -10107086.96544  22892850.8524                   22892848.1374
  17028688.01247  13255155.78944  23217072.7504                   23217071.7154
 -16774909.95748 -13067808.39545  21841261.1954                   21841258.5594
 -15996323.93447 -12462490.76644  22450328.2114                   22450325.4064
 11  8 17 17 46  0.0000000  0  9G03G07G13G24G19G28G23G08G11
  15116316.80546  11769479.28543  23695101.6884                   23695100.1994
 -12407326.34848  -9665453.30946  20626857.9304                   20626854.2234
   5180461.78548   4036324.75445  21406939.4534                   21406936.7464
 -12072452.85246  -9400300.86342  23904766.4844                   23904769.1564
   -956595.38348   -739500.46546  21694241.9304                   21694237.6294
 -12976011.12147 -10104297.99645  22893532.0084                   22893529.4694
  17183236.62547  13375583.03144  23246482.7114                   23246480.2814
 -16802133.28148 -13089021.35945  21836080.4694                   21836077.8364
 -16016701.56647 -12478369.43044  22446450.4384                   22446447.9924
 11  8 17 17 46 30.0000000  0  9G03G07G13G24G19G28G23G08G11
  15266504.13346  11886508.30143  23723681.0474                   23723680.1094
 -12397497.49648  -9657794.46946  20628728.4774                   20628724.6254
   5308921.01247   4136422.79345  21431384.1484                   21431381.7304
 -12102904.65247  -9424029.33643  23898972.7894                   23898974.2704
   -847908.24648   -654809.21146  21714924.7424                   21714919.1724
 -12972286.60247 -10101395.74645  22894240.9064                   22894237.8524
  17337889.49247  13496091.53544  23275912.1884                   23275910.0204
 -16829298.93048 -13110189.39145  21830910.7344                   21830908.3364
 -16036796.09847 -12494027.44544  22442626.3284                   22442623.3674
 11  8 17 17 47  0.0000000  0  9G03G07G13G24G19G28G23G08G11
  15416818.50446  12003636.32843  23752285.0634                   23752283.1764
 -12387420.00048  -9649941.88346  20630646.0164                   20630642.0274
   5437746.40247   4236806.16045  21455898.8364                   21455896.0044
 -12133352.75047  -9447755.02743  23893178.7194                   23893180.3984
   -738778.03148   -569772.71146  21735691.2584                   21735686.7274
 -12968418.96947 -10098381.97745  22894976.8754                   22894973.7704
  17492642.24647  13616677.84844  23305361.2734                   23305360.1884
 -16856407.19947 -13131312.69545  21825752.7114                   21825749.8164
 -16056606.62547 -12509464.18444  22438856.3754                   22438853.4494
 11  8 17 17 47 30.0000000  0  9G03G07G13G24G19G28G23G08G11
  15567267.10546  12120868.99243  23780914.0164                   23780912.4654
 -12377082.55548  -9641886.73846  20632613.1334                   20632609.5594
   5566944.78548   4337480.16845  21480484.8134                   21480482.0004
 -12163784.39147  -9471467.84843  23887388.0164                   23887390.1174
   -629197.44948   -484385.26246  21756544.1334                   21756539.3324
 -12964400.19547 -10095250.44545  22895741.7114                   22895738.6844
  17647501.05147  13737346.76644  23334829.4694                   23334827.9304
 -16883446.50848 -13152382.27745  21820607.3054                   21820604.4774
 -16076120.84447 -12524670.03144  22435142.1254                   22435139.8794
 11  8 17 17 48  0.0000000  0  9G03G07G13G24G19G28G23G08G11
  15717841.58246  12238199.64843  23809567.9144                   23809567.0984
 -12366488.36748  -9633631.53146  20634629.0634                   20634625.3594
   5696508.43047   4438438.80545  21505139.6174                   21505137.0704
 -12194201.66847  -9495169.46944  23881599.3054                   23881601.6524
   -519174.48448   -398653.10546  21777480.8674                   21777475.8754
 -12960235.59447 -10092005.28545  22896533.8594                   22896530.5354
  17802458.43047  13858092.54744  23364317.6174                   23364314.9414
 -16910420.13348 -13173400.68045  21815474.4774                   21815471.6174
 -16095340.54347 -12539646.37545  22431485.9064                   22431483.3754
 11  8 17 17 48 30.0000000  0  9G03G07G13G24G19G28G23G08G11
  15868542.24246  12355628.73043  23838244.7894                   23838244.7034
 -12355633.08648  -9625172.87146  20636694.6174                   20636690.9304
   5826436.78148   4539681.61345  21529864.4614                   21529861.9414
 -12224599.35947  -9518855.84843  23875814.6334                   23875816.7894
   -408708.79348   -312575.96546  21798501.4694                   21798496.8634
 -12955924.00047 -10088645.58245  22897354.7504                   22897351.3094
  17957513.68047  13978914.57844  23393824.3674                   23393822.2384
 -16937323.44147 -13194364.28545  21810354.5704                   21810351.9264
 -16114260.56347 -12554389.19544  22427884.7424                   22427882.9734
 11  8 17 17 49  0.0000000  0  9G03G07G13G24G19G28G23G08G11
  16019359.51646  12473148.64843  23866944.6414                   23866942.5234
 -12344521.10548  -9616514.19146  20638809.3054                   20638805.9884
   5956721.10947   4641201.82045  21554656.9064                   21554653.8554
 -12254980.68847  -9542529.48043  23870032.9694                   23870034.7114
   -297809.44948   -226160.92646  21819604.7584                   21819600.0004
 -12951472.30947 -10085176.70345  22898201.8204                   22898198.3444
  18112657.75447  14099805.80144  23423346.7034                   23423345.1684
 -16964161.10248 -13215276.73045  21805247.7974                   21805244.5784
 -16132884.14847 -12568901.03944  22424340.8364                   22424338.9264
 11  8 17 17 49 30.0000000  0  9G03G07G13G24G19G28G23G08G11
  16170302.16846  12590766.26243  23895667.2664                   23895666.6604
 -12333139.35248  -9607645.29746  20640975.2424                   20640971.4304
   6087369.68447   4743005.84845  21579518.1644                   21579516.1764
 -12285331.46947  -9566179.35243  23864258.1094                   23864259.2774
   -186467.85948   -139401.25846  21840792.6174                   21840787.9694
 -12946870.36347 -10081590.75445  22899077.5944                   22899074.0664
  18267898.81647  14220772.59444  23452888.7584                   23452887.0514
 -16990920.53547 -13236128.23845  21800155.4304                   21800152.7704
 -16151197.50847 -12583171.13744  22420856.1484                   22420854.1054
 11  8 17 17 50  0.0000000  0  9G03G07G13G24G19G28G23G08G11
  16321355.80946  12708470.32443  23924412.5234                   23924411.6134
 -12321497.58248  -9598573.78946  20643190.4924                   20643186.7934
   6218367.76648   4845082.23045  21604446.5864                   21604444.3364
 -12315660.45747  -9589812.21943  23858486.0944                   23858487.8364
    -74698.14148    -52307.99646  21862061.7734                   21862056.8634
 -12942130.92247 -10077897.65645  22899979.3914                   22899975.9574
  18423221.96947  14341803.37143  23482445.5394                   23482444.2344
 -17017611.16448 -13256926.12545  21795076.5554                   21795073.7384
 -16169209.05547 -12597206.04744  22417428.6334                   22417426.1134
 11  8 17 17 50 30.0000000  0  9G03G07G13G24G19G28G23G08G11
  16472532.01646  12826269.90243  23953181.1884                   23953179.9614
 -12309579.93448  -9589287.31646  20645458.1954                   20645454.2504
   6349726.83648   4947439.87545  21629443.5314                   21629440.7464
 -12345950.34847  -9613414.63743  23852722.3134                   23852723.7544
     37511.28148     35127.89545  21883414.3134                   21883409.3364
 -12937240.38347 -10074086.81644  22900909.7664                   22900906.4344
  18578638.95747  14462907.28544  23512021.1884                   23512019.0984
 -17044216.98848 -13277657.93045  21790013.5784                   21790010.2624
 -16186901.84447 -12610992.61744  22414061.6254                   22414058.8094
 11  8 17 17 51  0.0000000  0  9G03G07G13G24G19G28G23G08G11
  16623820.24646  12944156.74643  23981970.2584                   23981968.9844
 -12297392.13048  -9579790.33546  20647777.7894                   20647773.8014
   6481435.81847   5050070.18745  21654507.1484                   21654504.4024
 -12376206.25047  -9636990.53143  23846964.6884                   23846966.0634
    150149.63348    122898.02145  21904848.9454                   21904844.2194
 -12932207.76647 -10070165.27844  22901867.3444                   22901864.4804
  18734138.58247  14584075.59444  23541611.3364                   23541609.8674
 -17070744.12548 -13298328.42945  21784965.5084                   21784962.6804
 -16204281.45547 -12624535.13445  22410754.8364                   22410752.2894
 11  8 17 17 51 30.0000000  0  9G03G07G13G24G19G28G23G08G11
  16775220.22746  13062130.66443  24010781.5164                   24010779.6134
 -12284929.79748  -9570079.43846  20650149.4304                   20650145.5084
   6613495.00247   5152973.39445  21679636.9144                   21679634.3554
 -12406422.47947  -9660535.50543  23841213.8594                   23841215.5904
    263217.30948    211002.67646  21926365.3284                   21926360.5784
 -12927031.14947 -10066131.52945  22902852.6254                   22902849.7544
  18889720.65647  14705308.08244  23571217.9144                   23571217.3284
 -17097187.75448 -13318933.83645  21779933.5314                   21779930.5944
 -16221341.75447 -12637828.83645  22407508.1094                   22407505.6724
 11  8 17 17 52  0.0000000  0  9G03G07G13G24G19G28G23G08G11
  16926728.44146  13180188.92243  24039611.6954                   24039610.1954
 -12272192.13748  -9560153.99646  20652573.1724                   20652569.4804
   6745900.32048   5256146.30545  21704832.8134                   21704830.1454
 -12436596.93846  -9684047.93043  23835471.6884                   23835473.6604
    376711.00048    299439.29346  21947962.0634                   21947957.2504
 -12921712.74647 -10061987.28945  22903863.9534                   22903861.6334
  19045381.35547  14826601.84444  23600839.6954                   23600838.6884
 -17123547.10947 -13339473.58245  21774917.6024                   21774914.8524
 -16238080.95747 -12650872.31345  22404322.8674                   22404320.0004
 11  8 17 17 52 30.0000000  0  9G03G07G13G24G19G28G23G08G11
  17078339.07047  13298326.98843  24068462.4304                   24068460.7344
 -12259179.90648  -9550014.60246  20655049.3204                   20655045.6604
   6878646.04348   5359584.46545  21730093.5784                   21730091.5164
 -12466729.89147  -9707527.99644  23829738.1414                   23829740.3524
    490624.41848    388202.97746  21969639.0164                   21969634.5004
 -12916256.03547 -10057735.28145  22904903.1644                   22904899.5474
  19201114.84046  14947952.32044  23630474.9694                   23630473.7464
 -17149823.65248 -13359948.79745  21769917.3834                   21769914.4104
 -16254499.26247 -12663665.75045  22401198.8054                   22401196.2114
 11  8 17 17 53  0.0000000  0  9G03G07G13G24G19G28G23G08G11
  17230052.99247  13416545.60243  24097333.1094                   24097331.0354
 -12245888.19148  -9539657.43846  20657578.2344                   20657574.6454
   7011732.61348   5463288.21145  21755419.6174                   21755416.8484
 -12496814.96947  -9730970.74244  23824013.2034                   23824015.4964
    604958.68048    477294.58245  21991396.4774                   21991391.6134
 -12910658.79747 -10053373.77745  22905967.9534                   22905964.8554
  19356921.46547  15069359.78944  23660124.5944                   23660123.0554
 -17176011.96148 -13380355.26245  21764933.5234                   21764930.8364
 -16270590.84847 -12676204.62145  22398136.5554                   22398134.3134
 11  8 17 17 53 30.0000000  0  9G03G07G13G24G19G28G23G08G11
  17381867.46247  13534842.51943  24126222.1414                   24126220.3634
 -12232315.22348  -9529081.10946  20660161.6024                   20660157.6054
   7145156.85248   5567255.08645  21780808.9064                   21780806.6134
 -12526849.21247  -9754373.89444  23818297.6254                   23818299.9384
    719710.93048    566711.90245  22013232.7034                   22013228.1844
 -12904922.02747 -10048903.55944  22907059.7424                   22907056.5784
  19512798.13747  15190821.85944  23689786.3204                   23689785.0044
 -17202110.13748 -13400691.50445  21759967.3754                   21759964.6214
 -16286352.90247 -12688486.69945  22395137.6414                   22395135.1954
 11  8 17 17 54  0.0000000  0  9G03G07G13G24G19G28G23G08G11
  17533781.24647  13653216.89843  24155130.0234                   24155127.9454
 -12218457.63748  -9518282.99646  20662798.0474                   20662794.5474
   7278917.31648   5671483.95345  21806263.0704                   21806260.8594
 -12556828.05447  -9777733.86543  23812592.6334                   23812594.9494
    834880.39848    656454.31245  22035148.8594                   22035144.7424
 -12899045.25847 -10044324.23445  22908177.8134                   22908174.4104
  19668743.41046  15312337.35543  23719462.2344                   23719460.7464
 -17228114.76248 -13420954.82445  21755018.8284                   21755016.3714
 -16301780.89847 -12700508.48445  22392200.6094                   22392198.9384
 11  8 17 17 54 30.0000000  0  9G03G07G13G24G19G28G23G08G11
  17685788.22346  13771663.86743  24184056.5164                   24184054.5704
 -12204317.27748  -9507264.53946  20665489.2194                   20665485.5164
   7413007.62148   5775969.82045  21831779.7344                   21831777.2344
 -12586752.32846  -9801051.39543  23806898.1484                   23806899.8404
    950460.33248    746516.57045  22057142.9844                   22057138.4734
 -12893032.97747 -10039639.30944  22909321.6644                   22909318.4104
  19824750.94546  15433901.36743  23749149.7194                   23749148.1764
 -17254027.59448 -13441146.61745  21750087.6564                   21750085.2344
 -16316875.68047 -12712270.62145  22389328.0554                   22389325.8054
 11  8 17 17 55  0.0000000  0  9G03G07G13G24G19G28G23G08G11
  17837882.59446  13890178.88343  24212998.9924                   24212997.7384
 -12189895.25048  -9496026.59846  20668233.8364                   20668229.7154
   7547421.98047   5880708.19945  21857357.3204                   21857355.8134
 -12616621.85547  -9824326.23443  23801213.8054                   23801215.4224
   1066445.08648    836894.27745  22079214.1564                   22079210.0204
 -12886889.14847 -10034851.90245  22910490.8204                   22910487.4654
  19980814.51246  15555509.08243  23778847.7974                   23778845.9574
 -17279849.73448 -13461267.74645  21745173.7894                   21745171.1454
 -16331637.51647 -12723773.32045  22386519.6024                   22386517.1054
 11  8 17 17 55 30.0000000  0  9G03G07G13G24G19G28G23G08G11
  16414647.68846  12781164.57442  23942165.3594                   23942165.5984
 -13750608.35948 -10712166.69946  20371240.1174                   20371235.9384
   6106741.78147   4758100.18845  21583205.1334                   21583203.1724
 -14221854.15647 -11075156.42243  23495748.4924                   23495749.8244
   -392583.42648   -300011.09045  21801570.4774                   21801565.9224
 -14456033.78947 -11257561.98444  22611892.9774                   22611889.3364
  18561517.25046  14449562.89143  23508764.4384                   23508764.2464
 -18880999.40248 -14708916.82445  21440485.2734                   21440482.5554
 -17921483.55947 -13962614.33245  22083981.7584                   22083980.0594
 11  8 17 17 56  0.0000000  0  9G03G07G13G24G19G28G23G08G11
  16566912.410 6                  23971141.305
 -13735614.19548 -10700482.94146  20374093.3054                   20374089.5744
   6241797.75448   4863338.53545  21608905.9064                   21608903.9694
 -14251602.15246 -11098336.54343  23490087.4844                   23490088.8484
   -275793.86348   -209006.26645  21823794.8754                   21823790.1484
 -14449626.15647 -11252569.01245  22613111.9534                   22613108.7664
  18717687.73047  14571253.85943  23538483.3754                   23538483.2624
 -18906631.07048 -14728889.54345  21435607.4614                   21435604.5664
 -17935568.08647 -13973589.25845  22081301.6724                   22081299.5274
 11  8 17 17 56 30.0000000  0  9G03G07G13G24G19G28G23G08G11
  16719264.37146  12884002.15653  24000132.3834                   24000130.6804
 -13720325.12948 -10688569.39846  20377002.6094                   20376998.8594
   6377176.60947   4968828.46945  21634667.6484                   21634665.4734
 -14281278.71547 -11121461.00443  23484439.7894                   23484441.3714
   -158599.67648   -117686.14545  21846095.9614                   21846091.0944
 -14443082.40647 -11247469.95745  22614357.3134                   22614353.9414
  18873913.02047  14692987.56643  23568212.1094                   23568211.3634
 -18932158.71148 -14748781.21145  21430750.0234                   21430747.1914
 -17949303.71547 -13984292.30945  22078687.8524                   22078685.8714
 11  8 17 17 57  0.0000000  0  9G03G07G13G24G19G28G23G08G11
  16871697.33646  13002781.05142  24029139.0474                   24029138.4654
 -13704742.76648 -10676427.29746  20379968.1414                   20379964.4224
   6512871.50848   5074564.68445  21660489.7814                   21660487.4494
 -14310884.80947 -11144530.56643  23478806.3444                   23478807.7424
    -41007.76648    -26056.10945  21868472.8754                   21868468.0314
 -14436407.03147 -11242268.34445  22615627.9924                   22615624.6134
  19030186.88747  14814759.12543  23597950.0084                   23597949.0514
 -18957583.78548 -14768592.95345  21425911.8204                   21425908.4384
 -17962691.52347 -13994724.34845  22076140.2894                   22076137.9024
 11  8 17 17 57 30.0000000  0  8G07G13G24G19G28G23G08G11
 -13688860.65648 -10664051.63446  20382990.3754                   20382986.5514
   6648884.53947   5180548.78545  21686372.2584                   21686369.6644
 -14340412.20846 -11167538.80843  23473186.7274                   23473188.7194
     76984.32448     65885.75845  21890926.2424                   21890921.8914
 -14429595.80547 -11236960.87745  22616923.5554                   22616920.5394
  19186511.42647  14936570.20343  23627698.0084                   23627696.2624
 -18982899.40648 -14788319.39845  21421094.3284                   21421091.6604
 -17975723.71147 -14004879.28945  22073660.1954                   22073657.6644
 11  8 17 17 58  0.0000000  0  8G07G13G24G19G28G23G08G11
 -13672686.77048 -10651448.61346  20386067.8594                   20386064.2344
   6785202.48448   5286770.48045  21712312.5864                   21712310.6214
 -14369868.09446 -11190491.34043  23467581.4454                   23467582.6414
    195364.11348    158129.70745  21913452.8914                   21913448.5784
 -14422659.57047 -11231556.00445  22618243.7584                   22618240.4534
  19342873.81347  15058410.75843  23657453.9224                   23657452.5984
 -19008113.53948 -14807966.78545  21416296.5314                   21416293.7584
 -17988407.64847 -14014762.85245  22071246.1254                   22071244.4104
 11  8 17 17 58 30.0000000  0  8G07G13G24G19G28G23G08G11
 -13656214.18448 -10638612.83646  20389202.7504                   20389198.9414
   6921827.71948   5393231.62145  21738311.6174                   21738309.2074
 -14399244.09046 -11213381.61743  23461991.2114                   23461992.5824
    314134.08648    250677.71145  21936054.2344                   21936049.6564
 -14415594.00047 -11226050.34845  22619588.2974                   22619584.8054
  19499276.14547  15180282.41843  23687216.3524                   23687215.6604
 -19033218.90648 -14827529.40645  21411519.2114                   21411515.9844
 -18000735.27747 -14024368.73845  22068900.6414                   22068898.5204
 11  8 17 17 59  0.0000000  0  8G07G13G24G19G28G23G08G11
 -13639437.46548 -10625540.07846  20392395.0864                   20392391.5704
   7058760.62147   5499932.50045  21764369.4224                   21764366.6564
 -14428533.79747 -11236204.66443  23456417.4224                   23456418.7034
    433294.59448    343530.02345  21958730.4924                   21958725.6024
 -14408397.12947 -11220442.37145  22620958.1094                   22620954.0594
  19655719.19547  15302185.76643  23716986.3674                   23716986.2304
 -19058210.02047 -14847002.99245  21406762.9844                   21406760.2584
 -18012700.56247 -14033692.32045  22066623.2974                   22066620.6844
 11  8 17 17 59 30.0000000  0  8G07G13G24G19G28G23G08G11
 -13622357.55948 -10612231.05946  20395645.2814                   20395641.6994
   7195995.41847   5606868.63345  21790483.5944                   21790481.6254
 -14457736.92647 -11258960.21544  23450859.9224                   23450862.2624
    552840.43447    436682.59845  21981479.2194                   21981474.2584
 -14401072.22747 -11214734.63745  22622351.5784                   22622348.1454
  19812197.10946  15424116.30543  23746762.8054                   23746762.8164
 -19083087.77348 -14866388.24245  21402029.1334                   21402026.1484
 -18024303.47747 -14042733.53145  22064415.4534                   22064412.4344
 11  8 17 18  0  0.0000000  0  8G07G13G24G19G28G23G08G11
 -13604972.65648 -10598684.39846  20398953.6094                   20398949.7814
   7333529.17248   5714037.70345  21816656.0084                   21816653.6334
 -14486850.55147 -11281646.03544  23445320.2424                   23445322.5394
    672768.52348    530133.03145  22004300.3204                   22004295.7974
 -14393620.41447 -11208928.00445  22623769.2194                   22623766.4384
  19968707.02346  15546071.73843  23776546.3204                   23776546.5554
 -19107850.34448 -14885683.75045  21397316.7894                   21397314.3404
 -18035541.52047 -14051490.42645  22062277.0634                   22062274.2814
 11  8 17 18  0 30.0000000  0  8G07G13G24G19G28G23G08G11
 -13587283.82048 -10584900.89846  20402319.4774                   20402315.9844
   7471356.02347   5821435.15645  21842883.4224                   21842881.2344
 -14515874.44547 -11304261.91844  23439796.5704                   23439799.3364
    793073.47748    623877.11745  22027193.7504                   22027189.0084
 -14386045.64847 -11203025.55545  22625210.6954                   22625207.2074
  20125243.13746  15668047.60943  23806334.1484                   23806334.6024
 -19132498.68748 -14904890.23445  21392626.6334                   21392623.8714
 -18046414.73847 -14059963.02745  22060208.0084                   22060205.4574
 11  8 17 18  1  0.0000000  0  8G07G13G24G19G28G23G08G11
 -13569297.84448 -10570885.86346  20405742.2424                   20405738.6094
   7609464.32447   5929051.93445  21869164.4304                   21869162.4924
 -14544814.00447 -11326812.10544  23434290.0864                   23434291.7384
    913744.20348    717906.21545  22050156.7114                   22050151.6604
 -14378357.31247 -11197034.62944  22626673.7274                   22626670.1884
  20281794.05946  15790035.01243  23836125.2114                   23836125.1094
 -19157038.98048 -14924012.53545  21387956.8674                   21387954.0864
 -18056929.25047 -14068156.10245  22058206.8754                   22058204.9144
 11  8 17 18  1 30.0000000  0  8G07G13G24G19G28G23G08G11
 -13551007.01248 -10556633.27046  20409222.8984                   20409219.3244
   7747857.21547   6036890.47345  21895500.0004                   21895497.9614
 -14573660.41047 -11349289.67643  23428800.5944                   23428801.7504
   1034783.47748    812222.50445  22073189.5944                   22073184.9654
 -14370550.27047 -11190951.20345  22628159.5234                   22628156.3914
  20438362.98447  15912036.43444  23865919.8524                   23865919.2274
 -19181463.21548 -14943044.40245  21383308.7734                   21383306.2304
 -18067076.19147 -14076062.76645  22056275.8984                   22056273.7854
 11  8 17 18  2  0.0000000  0  8G07G13G24G19G28G23G08G11
 -13532404.44048 -10542137.77046  20412762.4064                   20412759.0744
   7886536.35247   6144952.05145  21921889.7814                   21921887.4844
 -14602405.51347 -11371688.30043  23423330.0474                   23423331.7814
   1156193.61848    906827.78145  22096293.2034                   22096288.2274
 -14362620.31847 -11184771.98945  22629668.5004                   22629665.4494
  20594952.05947  16034053.58643  23895717.7034                   23895717.6764
 -19205764.51748 -14961980.46045  21378684.2344                   21378681.6954
 -18076847.97347 -14083677.11245  22054416.4774                   22054414.4304
 11  8 17 18  2 30.0000000  0  8G07G13G24G19G28G23G08G11
 -13513494.17648 -10527402.51246  20416361.3524                   20416357.4844
   8025493.17647   6253230.01245  21948332.6414                   21948330.7894
 -14631052.08647 -11394010.18443  23417878.8364                   23417880.2114
   1277965.95748   1001715.28945  22119465.6884                   22119461.0904
 -14354574.93047 -11178502.83645  22631199.7814                   22631196.3094
  20751552.38746  16156079.46143  23925517.5004                   23925518.0704
 -19229946.34848 -14980823.44145  21374082.4144                   21374079.6724
 -18086247.53947 -14091001.42645  22052627.8054                   22052625.2234
 11  8 17 18  3  0.0000000  0  9G17G07G13G24G19G28G23G08G11
 -12667578.00056  -9856774.28553  24609991.7734                   24609994.8914
 -13494274.94548 -10512426.48846  20420018.9144                   20420014.7974
   8164723.72747   6361721.25445  21974827.7274                   21974825.3954
 -14659597.96946 -11416253.57443  23412445.9614                   23412447.9804
   1400096.95747   1096882.25045  22142706.5944                   22142701.9614
 -14346415.39147 -11172144.72745  22632751.9924                   22632748.8284
  20908160.70747  16278111.58643  23955319.8364                   23955320.1604
 -19254007.80948 -14999572.62946  21369504.3594                   21369501.5744
 -18095273.57847 -14098034.64545  22050909.6804                   22050907.3014
 11  8 17 18  3 30.0000000  0  9G17G07G13G24G19G28G23G08G11
 -12730152.23446  -9905533.11343  24598083.9534                   24598087.4774
 -13474748.96148 -10497211.45746  20423734.4534                   20423730.7894
   8304221.34047   6470420.61345  22001372.7664                   22001370.8834
 -14688044.09846 -11438419.22343  23407033.0004                   23407035.4344
   1522579.90647   1192323.47345  22166014.3674                   22166009.6564
 -14338146.62547 -11165701.52045  22634325.8204                   22634322.0704
  21064770.12546  16400144.54744  23985121.5634                   23985122.4304
 -19277950.21948 -15018229.04945  21364948.0704                   21364944.9494
 -18103927.23447 -14104777.71545  22049263.0394                   22049260.7704
 11  8 17 18  4  0.0000000  0  9G17G07G13G24G19G28G23G08G11
 -12792650.52346  -9954232.74243  24586191.4304                   24586193.8164
 -13454911.87148 -10481753.99646  20427509.1954                   20427505.7504
   8443985.17247   6579327.39845  22027969.2194                   22027967.1174
 -14716384.70747 -11460502.67243  23401639.3364                   23401642.0944
   1645414.84047   1288038.96945  22189388.7664                   22189384.5124
 -14329767.06247 -11159171.96145  22635920.6954                   22635916.9884
  21221380.32847  16522178.08643  24014923.8364                   24014924.0824
 -19301768.93448 -15036789.07445  21360415.6954                   21360412.5044
 -18112203.41047 -14111226.66844  22047688.2034                   22047684.5824
 11  8 17 18  4 30.0000000  0  9G17G07G13G24G19G28G23G08G11
 -12855067.61746 -10002869.17643  24574313.2194                   24574315.5594
 -13434758.09448 -10466049.77046  20431344.4224                   20431340.4774
   8584016.07047   6688442.30545  22054616.6174                   22054614.7424
 -14744613.05147 -11482498.63544  23396268.3134                   23396269.7814
   1768602.44147   1384029.27345  22212830.7974                   22212825.9614
 -14321273.84047 -11152553.84445  22637536.5004                   22637533.1724
  21377991.95747  16644212.79343  24044726.3364                   24044726.6524
 -19325458.53548 -15055248.50046  21355907.2114                   21355904.6954
 -18120095.45347 -14117376.28145  22046186.1024                   22046183.0514
 11  8 17 18  5  0.0000000  0  9G17G07G13G24G19G28G23G08G11
 -12917401.59846 -10051440.81643  24562451.6174                   24562454.2034
 -13414286.57448 -10450097.94946  20435239.8674                   20435235.9024
   8724310.15647   6797762.27345  22081313.1564                   22081311.1684
 -14772726.86747 -11504405.34044  23390918.4144                   23390919.9224
   1892139.07847   1480291.55545  22236339.0944                   22236334.8484
 -14312668.58247 -11145848.42245  22639174.2584                   22639170.6454
  21534601.75846  16766246.05543  24074528.2814                   24074529.0084
 -19349017.35248 -15073606.00846  21351424.1094                   21351421.1214
 -18127601.80147 -14123225.34045  22044758.0634                   22044754.7074
 11  8 17 18  5 30.0000000  0  9G17G07G13G24G19G28G23G08G11
 -12979657.64546 -10099951.77043  24550603.7734                   24550606.5904
 -13393502.62148 -10433902.67646  20439194.9844                   20439191.0594
   8864857.58247   6907279.64845  22108058.9064                   22108056.6604
 -14800729.95747 -11526225.79744  23385589.7194                   23385590.6954
   2016015.22747   1576818.38745  22259911.9774                   22259906.7464
 -14303959.30947 -11139061.94945  22640831.1954                   22640828.0434
  21691199.85546  16888270.20343  24104327.9224                   24104328.1724
 -19372450.23048 -15091865.39546  21346965.1644                   21346962.5394
 -18134726.67647 -14128777.14845  22043402.4144                   22043398.7154
 11  8 17 18  6  0.0000000  0  9G17G07G13G24G19G28G23G08G11
 -13041822.47346 -10148391.59843  24538774.1564                   24538776.9344
 -13372392.88348 -10417453.54346  20443212.1954                   20443208.4734
   9005666.54347   7017000.83645  22134854.0314                   22134851.5554
 -14828607.81247 -11547948.67644  23380284.7814                   23380285.3984
   2140239.38747   1673616.39545  22283551.0004                   22283546.4804
 -14295135.59847 -11132186.31245  22642510.5704                   22642506.8364
  21847794.92646  17010291.95342  24134127.2034                   24134128.3484
 -19395743.75048 -15110016.17646  21342532.7894                   21342529.7974
 -18141456.25448 -14134020.94945  22042122.2274                   22042118.4064
 11  8 17 18  6 30.0000000  0  9G17G07G13G24G19G28G23G08G11
 -13103903.76646 -10196766.36743  24526960.0784                   24526962.6454
 -13350965.90248 -10400757.21146  20447289.5004                   20447285.6684
   9146723.71147   7126915.42645  22161696.2194                   22161694.4694
 -14856367.75447 -11569579.64844  23375002.4774                   23375002.7304
   2264798.29747   1770675.23845  22307253.9614                   22307248.9534
 -14286208.56647 -11125230.15645  22644208.9774                   22644206.2704
  22004374.05145  17132301.32442  24163923.0314                   24163924.0004
 -19418906.13347 -15128064.78146  21338124.9384                   21338121.9964
 -18147798.27347 -14138962.73045  22040915.0864                   22040910.9344
 11  8 17 18  7  0.0000000  0  9G17G07G13G24G19G28G23G08G11
 -13165892.05946 -10245068.66043  24515164.3754                   24515166.3364
 -13329212.21148 -10383806.29346  20451429.2734                   20451425.6414
   9288033.90647   7237027.16045  22188586.4534                   22188585.0984
 -14883999.13647 -11591110.45444  23369743.9844                   23369744.6604
   2389696.98447   1867998.87945  22331021.2814                   22331016.5394
 -14277171.53347 -11118188.29645  22645929.0164                   22645925.8674
  22160941.84446  17254301.76642  24193717.2584                   24193717.5434
 -19441927.25448 -15146003.30946  21333744.0864                   21333741.6134
 -18153742.58247 -14143594.62545  22039783.8204                   22039779.8404
 11  8 17 18  7 30.0000000  0  9G17G07G13G24G19G28G23G08G11
 -13227792.78546 -10293302.75443  24503384.9454                   24503387.0164
 -13307137.67648 -10366605.36746  20455629.7814                   20455625.8014
   9429586.22347   7347327.58245  22215523.3594                   22215521.6484
 -14911506.30147 -11612544.47344  23364509.1334                   23364510.3954
   2514924.86347   1965579.00045  22354851.2424                   22354846.2934
 -14268032.88747 -11111067.25445  22647668.0864                   22647664.4964
  22317487.91446  17376285.35543  24223507.6954                   24223508.9064
 -19464812.69948 -15163836.12546  21329389.5004                   21329386.1374
 -18159294.18447 -14147920.50845  22038727.2194                   22038724.0434
 11  8 17 18  8  0.0000000  0  9G17G07G13G24G19G28G23G08G11
 -13289596.98846 -10341461.61343  24491623.8594                   24491626.3054
 -13284733.28148 -10349147.41446  20459893.2274                   20459889.4924
   9571384.96947   7457820.00045  22242506.9454                   22242505.1524
 -14938879.22347 -11633873.86344  23359300.0084                   23359301.1954
   2640486.40647   2063419.13345  22378744.8914                   22378740.4184
 -14258786.80547 -11103862.49645  22649427.2974                   22649423.8834
  22474016.75046  17498255.49243  24253294.6174                   24253295.2814
 -19487553.21548 -15181556.01246  21325061.9694                   21325058.8324
 -18164443.45747 -14151932.88745  22037747.5634                   22037744.3754
 11  8 17 18  8 30.0000000  0  9G17G07G13G24G19G28G23G08G11
 -13351305.03546 -10389545.52743  24479881.1804                   24479883.4064
 -13261999.82448 -10331433.04346  20464219.1024                   20464215.5204
   9713424.57047   7568500.11745  22269535.6884                   22269534.1454
 -14966117.05547 -11655098.00044  23354117.0084                   23354118.3524
   2766376.02747   2161514.90245  22402700.9774                   22402696.8284
 -14249436.59047 -11096576.59045  22651206.3914                   22651203.6564
  22630522.75846  17620207.81343  24283077.7114                   24283078.5084
 -19510149.17248 -15199163.24646  21320762.0314                   21320759.2154
 -18169190.37547 -14155631.74645  22036843.8284                   22036841.1844
 11  8 17 18  9  0.0000000  0  9G17G07G13G24G19G28G23G08G11
 -13412908.88346 -10437548.25043  24468158.2894                   24468160.3094
 -13238929.62548 -10313456.25846  20468609.2194                   20468605.4694
   9855707.40247   7679369.75845  22296611.7194                   22296609.5394
 -14993211.05147 -11676210.06243  23348960.9534                   23348961.8404
   2892597.02747   2259868.89545  22426720.1804                   22426715.4414
 -14239977.48047 -11089205.82845  22653006.3054                   22653003.5044
  22787009.10947  17742144.82843  24312856.0704                   24312856.8874
 -19532592.27048 -15216651.37946  21316491.1254                   21316488.5354
 -18173526.84447 -14159010.75445  22036018.9384                   22036015.9614
 11  8 17 18  9 30.0000000  0  9G17G07G13G24G19G28G23G08G11
 -13474416.16446 -10485475.75044  24456453.1644                   24456455.9964
 -13215530.74248 -10295223.37146  20473061.8204                   20473058.2034
   9998220.79747   7790419.05545  22323731.4144                   22323729.2074
 -15020168.27046 -11697215.55143  23343830.5234                   23343831.8954
   3019136.39547   2358470.96945  22450799.7584                   22450795.7584
 -14230419.94947 -11081758.39545  22654825.3834                   22654821.8404
  22943463.34446  17864056.83643  24342628.6024                   24342629.1524
 -19554890.07448 -15234026.28946  21312247.8594                   21312245.6334
 -18177460.38747 -14162075.79745  22035270.1484                   22035267.4574
 11  8 17 18 10  0.0000000  0  9G17G07G13G24G19G28G23G08G11
 -13535824.92646 -10533326.50043  24444767.5164                   24444768.7814
 -13191801.14048 -10276732.79146  20477577.6564                   20477574.1174
  10140962.04347   7901645.90244  22350894.0394                   22350891.7304
 -15046984.93447 -11718111.51743  23338727.2504                   23338727.5204
   3145991.93047   2457319.40245  22474939.5944                   22474935.0084
 -14220764.95047 -11074235.00745  22656662.4774                   22656658.9774
  23099883.09446  17985941.92643  24372395.6024                   24372395.6884
 -19577040.25448 -15251286.16446  21308032.8674                   21308030.4024
 -18180987.73047 -14164824.32845  22034598.7664                   22034595.6684
 11  8 17 18 10 30.0000000  0  9G17G07G13G24G19G28G23G08G11
 -13597114.70346 -10581084.51243  24433103.8834                   24433105.5274
 -13167720.46548 -10257968.63746  20482160.3594                   20482156.5394
  10283946.38747   8013062.18445  22378103.4844                   22378101.4414
 -15073639.49647 -11738881.20343  23333655.6564                   23333655.5514
   3273179.29347   2556426.40645  22499143.0864                   22499138.1294
 -14210994.79347 -11066621.85945  22658521.9144                   22658518.4024
  23256283.98046  18107812.28143  24402157.1484                   24402158.1684
 -19599022.06248 -15268414.84846  21303849.8914                   21303847.0594
 -18184087.97347 -14167240.07845  22034009.4454                   22034005.1524
 11  8 17 18 11  0.0000000  0  9G17G07G13G24G19G28G23G08G11
 -13658297.84846 -10628759.42643  24421460.8674                   24421462.9104
 -13143302.15648 -10238941.39146  20486806.7034                   20486803.1214
  10427155.99647   8124653.97744  22405355.3674                   22405353.0824
 -15100143.59847 -11759533.61743  23328611.8754                   23328612.2734
   3400680.80947   2655778.20745  22523405.4224                   22523400.5634
 -14201125.03547 -11058931.12545  22660399.8914                   22660396.5514
  23412648.36346  18229654.25843  24431912.6954                   24431913.9734
 -19620848.07848 -15285422.14146  21299696.7274                   21299693.6844
 -18186773.68447 -14169332.77045  22033498.1254                   22033494.7854
 11  8 17 18 11 30.0000000  0  9G17G07G13G24G19G28G23G08G11
 -13719378.77346 -10676354.69943  24409837.9844                   24409839.3204
 -13118550.60948 -10219654.47746  20491516.5474                   20491513.2114
  10570581.64847   8236414.11744  22432648.0164                   22432646.6024
 -15126500.71147 -11780071.53543  23323595.8204                   23323596.5204
   3528487.13747   2755367.52345  22547725.8134                   22547721.3914
 -14191163.41047 -11051168.80945  22662295.7504                   22662292.3054
  23568967.24246  18351460.74243  24461660.1804                   24461661.2304
 -19642522.48448 -15302311.28146  21295572.2664                   21295569.3524
 -18189048.94948 -14171105.66845  22033064.8054                   22033062.5124
 11  8 17 18 12  0.0000000  0  9G17G07G13G24G19G28G23G08G11
 -13780347.21546 -10723862.33643  24398235.5784                   24398236.6054
 -13093455.48048 -10200099.84046  20496292.1174                   20496288.2974
  10714228.74647   8348346.80545  22459983.3284                   22459981.3054
 -15152699.32447 -11800485.88343  23318610.5634                   23318611.3094
   3656603.90247   2855198.74245  22572105.6254                   22572101.2074
 -14181102.12547 -11043328.83245  22664210.0164                   22664206.3714
  23725246.28146  18473236.19543  24491398.5474                   24491400.6684
 -19664034.49648 -15319073.88346  21291478.5474                   21291475.8134
 -18190902.91847 -14172550.27045  22032711.5314                   22032709.6954
 11  8 17 18 12 30.0000000  0  9G17G07G13G24G19G28G23G08G11
 -13841187.98446 -10771270.48843  24386658.3754                   24386658.9804
 -13068002.78148 -10180266.57846  20501135.4384                   20501132.0274
  10858106.27047   8460459.05144  22487362.1884                   22487360.0984
 -15178723.85947 -11820764.64144  23313658.3834                   23313658.5164
   3785040.92647   2955279.49645  22596546.6484                   22596542.6914
 -14170929.60247 -11035402.16845  22666145.2344                   22666142.2424
  23881495.45346  18594988.33243  24521132.2424                   24521135.1414
 -19685369.43748 -15335698.50446  21287418.6644                   21287416.2894
 -18192320.53547 -14173654.86745  22032442.2734                   22032439.4654
 11  8 17 18 13  0.0000000  0  9G17G07G13G24G19G28G23G08G11
 -13901913.53946 -10818588.84843  24375101.9304                   24375103.5164
 -13042204.59048 -10160164.10946  20506044.8134                   20506041.1174
  11002197.33647   8572737.69944  22514781.7894                   22514780.2234
 -15204585.13747 -11840916.17243  23308736.1804                   23308736.3164
   3913781.34847   3055596.68045  22621044.8984                   22621040.7464
 -14160660.57047 -11027400.31245  22668100.0084                   22668096.2424
  24037698.03946  18716704.16843  24550856.8054                   24550859.4964
 -19706538.90248 -15352194.18746  21283390.3444                   21283387.2544
 -18193313.56647 -14174428.62545  22032253.3524                   22032249.6804
 11  8 17 18 13 30.0000000  0  9G17G07G13G24G19G28G23G08G11
 -13962521.30547 -10865815.44143  24363567.9614                   24363569.4224
 -13016058.43048 -10139790.48846  20511020.3914                   20511016.5904
  11146499.79347   8685181.05944  22542242.1484                   22542239.8874
 -15230279.25047 -11860937.43444  23303847.3674                   23303847.4064
   4042822.89847   3156148.52045  22645600.5084                   22645596.9414
 -14150295.60547 -11019323.72745  22670072.3054                   22670068.8834
  24193851.91046  18838382.06643  24580572.0234                   24580575.5204
 -19727539.86348 -15368558.55946  21279394.0164                   21279390.9924
 -18193878.85948 -14174869.07045  22032145.6484                   22032142.6254
 11  8 17 18 14  0.0000000  0  8G17G07G13G24G19G28G08G11
 -15598422.82846 -12140543.66043  24052266.5004                   24052267.8364
 -14564973.18448 -11346737.05946  20216271.7974                   20216267.9844
   9715603.87147   7570197.10944  22269951.7584                   22269949.8164
 -16831215.54747 -13108420.19144  22999199.2584                   22999199.3914
   2596755.57847   2029342.76645  22370423.6564                   22370419.2464
 -15715246.90247 -12238766.26645  22372272.2034                   22372268.5744
 -21323782.50448 -16612383.98846  20975638.7894                   20975636.2664
 -19769425.58247 -15402567.80145  21732329.4384                   21732325.5474
 11  8 17 18 14 30.0000000  0  8G17G07G13G24G19G28G08G11
 -15658782.55546 -12187576.98844  24040780.1094                   24040781.5944
 -14538120.33648 -11325812.77346  20221381.4774                   20221377.9574
   9860325.51647   7682967.09444  22297491.2344                   22297489.4104
 -16856560.62547 -13128169.48044  22994376.5474                   22994376.6374
   2726396.46947   2130361.60945  22395093.6484                   22395089.0514
 -15704686.92247 -12230537.68045  22374281.4384                   22374278.2304
 -21344433.88348 -16628475.97346  20971709.0864                   20971706.1564
 -19769122.58247 -15402331.66045  21732386.3054                   21732383.1214
 11  8 17 18 15  0.0000000  0  8G17G07G13G24G19G28G08G11
 -15719014.65246 -12234510.87144  24029318.4454                   24029319.1994
 -14510910.85348 -11304610.58746  20226559.4064                   20226555.4384
  10005252.88847   7795897.38644  22325070.3284                   22325068.4224
 -16881726.05147 -13147778.78344  22989587.5084                   22989587.6564
   2856333.51947   2231611.23145  22419819.6024                   22419814.8244
 -15694030.20448 -12222233.74845  22376309.3204                   22376305.4614
 -21364906.60148 -16644428.73446  20967813.3674                   20967810.5044
 -19768381.41048 -15401754.09345  21732527.5554                   21732524.6724
 11  8 17 18 15 30.0000000  0  8G17G07G13G24G19G28G08G11
 -15779111.67646 -12281339.51644  24017882.2424                   24017883.5354
 -14483337.63748 -11283124.98446  20231806.4924                   20231802.5634
  10150388.04347   7908989.61744  22352689.0004                   22352686.4964
 -16906703.23847 -13167241.40244  22984834.2734                   22984835.6414
   2986569.57447   2333093.82845  22444602.5944                   22444598.1254
 -15683272.10547 -12213850.79345  22378356.8204                   22378353.1914
 -21385192.84048 -16660236.20346  20963953.2194                   20963950.3834
 -19767194.33248 -15400829.07445  21732753.7034                   21732750.3914
 11  8 17 18 16  0.0000000  0  8G17G07G13G24G19G28G08G11
 -15839071.68446 -12328061.35944  24006472.0554                   24006472.8284
 -14455398.84448 -11261354.52346  20237123.0554                   20237119.2234
  10295727.94147   8022241.36344  22380345.8984                   22380343.9144
 -16931488.97747 -13186554.85944  22980117.6884                   22980118.6054
   3117101.78147   2434807.21145  22469441.8914                   22469437.3444
 -15672413.43447 -12205389.47745  22380423.1174                   22380419.0234
 -21405290.08248 -16675896.38346  20960128.4844                   20960125.7664
 -19765558.86748 -15399554.67245  21733064.6414                   21733061.7854
 11  8 17 18 16 30.0000000  0  8G17G07G13G24G19G28G08G11
 -15898895.70746 -12374677.27344  23995087.6094                   23995088.9344
 -14427096.27048 -11239300.58246  20242508.7664                   20242505.5314
  10441266.39847   8135647.82844  22408041.1484                   22408039.5784
 -16956083.43847 -13205719.27744  22975437.6414                   22975437.5904
   3247923.62547   2536746.27345  22494337.3204                   22494332.3984
 -15661458.59047 -12196853.20745  22382507.4774                   22382503.9344
 -21425199.14848 -16691409.94146  20956339.8984                   20956337.0824
 -19763476.21947 -15397931.80945  21733461.0394                   21733458.0594
 11  8 17 18 17  0.0000000  0  9G17G26G07G13G24G19G28G08G11
 -15958587.61346 -12421190.23843  23983728.7034                   23983729.2544
 -14238369.36356 -11084412.92653  24138232.8204                   24138232.5004
 -14398433.78548 -11216966.19946  20247963.0944                   20247959.7194
  10586994.75447   8249202.28544  22435772.7664                   22435770.7384
 -16980489.05147 -13224736.54344  22970792.8754                   22970793.4614
   3379026.68047   2638904.44945  22519285.0474                   22519280.4454
 -15650414.14847 -12188247.12545  22384609.3524                   22384605.5204
 -21444923.43048 -16706779.50446  20952586.9144                   20952583.9774
 -19760949.82048 -15395963.17245  21733941.6884                   21733938.7544
 11  8 17 18 17 30.0000000  0  9G17G26G07G13G24G19G28G08G11
 -16018140.02346 -12467594.51243  23972395.3134                   23972396.8794
 -14284881.69546 -11120656.24243  24129381.4454                   24129380.8594
 -14369404.46948 -11194345.96546  20253487.4064                   20253483.4774
  10732915.18047   8362906.37144  22463539.8134                   22463539.1024
 -17004697.72747 -13243600.38744  22966186.1644                   22966186.6454
   3510413.45747   2741283.73045  22544287.0474                   22544282.6914
 -15639275.76247 -12179567.85945  22386728.6414                   22386725.0314
 -21464455.72348 -16721999.47346  20948869.8364                   20948867.2664
 -19757972.01248 -15393642.77745  21734508.8754                   21734505.7974
 11  8 17 18 18  0.0000000  0  9G17G26G07G13G24G19G28G08G11
 -16077559.57446 -12513895.24643  23961088.3914                   23961089.3134
 -14331039.46546 -11156623.27343  24120598.9304                   24120597.2344
 -14340015.57848 -11171445.54346  20259079.4924                   20259076.0164
  10879015.44547   8476750.59444  22491342.0944                   22491340.8954
 -17028715.16047 -13262315.21144  22961615.7974                   22961616.1994
   3642072.57047   2843875.21145  22569341.3204                   22569336.5204
 -15628052.72747 -12170822.61745  22388863.8444                   22388860.9304
 -21483802.24248 -16737074.69146  20945188.1334                   20945185.0514
 -19754549.39547 -15390975.78145  21735160.0554                   21735156.9454
 11  8 17 18 18 30.0000000  0  9G17G26G07G13G24G19G28G08G11
 -16136845.48046 -12560091.88344  23949806.1564                   23949807.2734
 -14376841.37146 -11192313.04343  24111882.3834                   24111881.6884
 -14310266.30548 -11148264.30546  20264740.9384                   20264737.1994
  11025291.68047   8590731.93044  22519177.6414                   22519176.5944
 -17052539.26247 -13280879.34444  22957081.8834                   22957082.5824
   3773999.91447   2946675.71145  22594446.1804                   22594441.3984
 -15616747.48447 -12162013.31645  22391015.4774                   22391012.0314
 -21502961.58648 -16752004.03946  20941542.2894                   20941539.6334
 -19750681.25447 -15387961.64145  21735895.7734                   21735892.6604
 11  8 17 18 19  0.0000000  0  9G17G26G07G13G24G19G28G08G11
 -16195986.67246 -12606175.73844  23938551.5784                   23938553.0044
 -14422275.50846 -11227716.21543  24103235.6954                   24103235.6214
 -14280146.20748 -11124794.12146  20270472.5314                   20270469.0004
  11171749.57447   8704854.83644  22547047.7894                   22547046.7424
 -17076158.07047 -13299283.52744  22952588.0004                   22952587.8404
   3906201.61747   3049689.98045  22619603.1644                   22619598.9494
 -15605351.96547 -12153133.68445  22393183.7034                   22393180.4454
 -21521922.66848 -16766778.89546  20937934.2274                   20937931.0634
 -19746356.00448 -15384591.29745  21736718.7194                   21736715.5514
 11  8 17 18 19 30.0000000  0  9G17G26G07G13G24G19G28G08G11
 -16254988.94946 -12652151.39543  23927324.0634                   23927324.7304
 -14467346.94146 -11262836.78143  24094660.0554                   24094658.9024
 -14249661.39548 -11101039.72746  20276273.5864                   20276269.9104
  11318378.44147   8819110.93044  22574950.7894                   22574949.5664
 -17099576.21947 -13317531.34044  22948131.6564                   22948132.3554
   4038666.86347   3152909.61345  22644810.3754                   22644806.1844
 -15593874.90647 -12144190.51645  22395367.4844                   22395364.5634
 -21540690.70748 -16781403.34846  20934362.4694                   20934359.8484
 -19741579.27048 -15380869.14145  21737627.6254                   21737624.6604
 11  8 17 18 20  0.0000000  0  9G17G26G07G13G24G19G28G08G11
 -16313849.27046 -12698016.41443  23916123.0634                   23916124.2344
 -14512051.76246 -11297671.63343  24086152.7814                   24086151.3014
 -14218809.00048 -11076998.92646  20282145.0314                   20282141.5434
  11465176.03547   8933498.54744  22602885.4144                   22602883.8634
 -17122789.52747 -13335619.53944  22943713.5784                   22943713.4264
   4171394.27347   3256333.54745  22670067.7974                   22670062.8754
 -15582315.87547 -12135183.47345  22397567.8364                   22397564.4384
 -21559261.95748 -16795874.45746  20930829.1414                   20930825.8754
 -19736348.05147 -15376792.85545  21738623.1724                   21738620.5434
 11  8 17 18 20 30.0000000  0  9G17G26G07G13G24G19G28G08G11
 -16372562.21347 -12743766.58243  23904950.8984                   23904950.9184
 -14556383.58446 -11332215.84543  24077716.4614                   24077715.0824
 -14187583.82848 -11052667.63746  20288086.8054                   20288083.2584
  11612143.18947   9048018.24744  22630852.3444                   22630851.5234
 -17145791.39547 -13353542.98043  22939336.6414                   22939335.9454
   4304384.65247   3359962.35945  22695375.2974                   22695370.8754
 -15570672.15147 -12126110.43445  22399783.2734                   22399779.5824
 -21577630.78948 -16810187.84046  20927333.2894                   20927330.7114
 -19730656.62448 -15372357.96545  21739706.1094                   21739702.9024
 11  8 17 18 21  0.0000000  0  9G17G26G07G13G24G19G28G08G11
 -16431129.11347 -12789402.98044  23893805.4534                   23893806.0004
 -14600343.60246 -11366470.35943  24069350.7424                   24069350.0634
 -14155987.98448 -11028047.50446  20294099.3204                   20294095.3714
  11759273.10947   9162664.78944  22658850.1644                   22658849.1374
 -17168582.47747 -13371302.19144  22934999.5084                   22934999.7974
   4437630.79747   3463790.49244  22720730.5554                   22720726.2034
 -15558948.32447 -12116974.98445  22402014.6254                   22402010.7114
 -21595798.42248 -16824344.43446  20923875.9694                   20923872.9304
 -19724506.26648 -15367565.44945  21740876.4534                   21740873.4534
 11  8 17 18 21 30.0000000  0  9G17G26G07G13G24G19G28G08G11
 -16489540.27047 -12834918.02344  23882690.2584                   23882690.8834
 -14643920.90646 -11400426.60543  24061058.0864                   24061057.5784
 -14124011.86748 -11003131.07046  20300184.0084                   20300180.3014
  11906570.82847   9277442.07844  22686880.1564                   22686879.1214
 -17191151.76247 -13388888.54744  22930704.2894                   22930704.7114
   4571138.40647   3567822.35945  22746136.4534                   22746132.3794
 -15547137.27047 -12107771.56645  22404262.1174                   22404258.3834
 -21613754.32448 -16838336.04346  20920459.1414                   20920456.1094
 -19717887.09447 -15362407.63345  21742135.3444                   21742132.6174
 11  8 17 18 22  0.0000000  0  9G17G26G07G13G24G19G28G08G11
 -16547798.00447 -12880313.52744  23871603.9774                   23871604.2344
 -14687117.20346 -11434086.03542  24052837.8674                   24052837.0084
 -14091658.30948 -10977920.52046  20306340.3524                   20306336.8404
  12054028.37947   9392343.93444  22714940.3984                   22714939.7304
 -17213500.38747 -13406302.98044  22926452.3444                   22926451.5234
   4704900.15247   3672052.23844  22771590.2194                   22771585.9224
 -15535244.63347 -12098504.58245  22406525.0944                   22406521.8754
 -21631500.81348 -16852164.47746  20917081.8594                   20917079.3404
 -19710801.51247 -15356886.39145  21743484.1564                   21743481.3484
 11  8 17 18 22 30.0000000  0  9G17G26G07G13G24G19G28G08G11
 -16605901.25847 -12925588.66044  23860547.2664                   23860547.3754
 -14729930.71946 -11467447.16443  24044690.5634                   24044690.3164
 -14058926.79348 -10952415.45346  20312569.1484                   20312566.0434
  12201642.03547   9507367.38744  22743031.0554                   22743029.6054
 -17235626.19547 -13423543.76244  22922241.1724                   22922241.4964
   4838912.24647   3776477.19944  22797092.3594                   22797087.3834
 -15523272.35247 -12089175.52745  22408802.9924                   22408799.7344
 -21649036.58648 -16865828.71946  20913745.0634                   20913742.2424
 -19703248.69948 -15351001.05545  21744921.5634                   21744918.7274
 11  8 17 18 23  0.0000000  0  9G17G26G07G13G24G19G28G08G11
 -16663847.91447 -12970741.75044  23849520.3444                   23849520.2234
 -14772358.22746 -11500507.56643  24036617.2664                   24036616.4414
 -14025815.15648 -10926614.18846  20318870.1724                   20318866.3874
  12349409.31247   9622510.57844  22771150.4614                   22771148.4184
 -17257525.65647 -13440608.18044  22918074.0634                   22918073.9804
   4973172.16447   3881095.27745  22822641.1564                   22822636.9064
 -15511220.52747 -12079784.49245  22411096.7344                   22411093.2934
 -21666358.63348 -16879326.41846  20910448.8674                   20910446.1454
 -19695225.58647 -15344749.26645  21746448.6564                   21746445.2544
 11  8 17 18 23 30.0000000  0  9G17G26G07G13G24G19G28G08G11
 -16721641.27047 -13015775.39844  23838522.2274                   23838522.9144
 -14814402.47746 -11533269.24642  24028615.9384                   24028615.6174
 -13992327.18048 -10900519.68046  20325242.7584                   20325239.2274
  12497321.39847   9737766.59444  22799296.8054                   22799295.6954
 -17279201.39047 -13457498.28544  22913948.4694                   22913948.8244
   5107671.94947   3985900.25444  22848235.4774                   22848230.7974
 -15499095.46947 -12070336.37945  22413403.8204                   22413401.0084
 -21683469.59448 -16892659.64546  20907192.6724                   20907190.0274
 -19686735.57447 -15338133.65645  21748063.6484                   21748060.9064
 11  8 17 18 24  0.0000000  0  9G17G26G07G13G24G19G28G08G11
 -16779271.82947 -13060682.17544  23827555.2034                   23827555.8794
 -14856053.69246 -11565724.71843  24020690.4614                   24020689.0004
 -13958453.96548 -10874124.98046  20331688.7344                   20331685.1254
  12645382.67247   9853138.84444  22827472.4224                   22827470.8714
 -17300643.05247 -13474205.97044  22909868.7034                   22909869.1454
   5242416.01247   4090895.59244  22873877.1024                   22873872.1454
 -15486890.42947 -12060825.96145  22415726.7584                   22415723.3014
 -21700359.92247 -16905820.93446  20903978.6724                   20903975.2624
 -19677769.62947 -15331147.19145  21749769.8204                   21749766.6914
 11  8 17 18 24 30.0000000  0  9G17G26G07G13G24G19G28G08G11
 -16836745.78946 -13105466.93044  23816618.3284                   23816619.0044
 -14897316.82046 -11597877.70343  24012838.2114                   24012837.1294
 -13924202.24648 -10847435.34846  20338206.0234                   20338203.1214
  12793582.21547   9968618.84044  22855673.3284                   22855672.0784
 -17321855.52247 -13490735.07944  22905832.3984                   22905831.0354
   5377393.27447   4196072.65045  22899561.5864                   22899557.5204
 -15474614.50047 -12051260.28945  22418062.4064                   22418059.2154
 -21717035.20348 -16918814.64846  20900805.5784                   20900802.9494
 -19668333.79348 -15323794.58245  21751565.8204                   21751562.7344
 11  8 17 18 25  0.0000000  0  9G17G26G07G13G24G19G28G08G11
 -16894051.75846 -13150120.75844  23805712.9774                   23805713.3634
 -14938179.62946 -11629718.84043  24005062.1564                   24005061.4264
 -13889560.60248 -10820441.86746  20344798.6094                   20344795.3714
  12941926.30547  10084211.47744  22883902.5474                   22883901.6134
 -17342826.03547 -13507075.65644  22901841.5474                   22901841.3094
   5512610.76647   4301436.87145  22925292.6884                   22925288.7734
 -15462259.15647 -12041632.72745  22420414.0474                   22420410.6214
 -21733483.43848 -16931631.45346  20897675.5084                   20897672.5514
 -19658416.67648 -15316066.92245  21753452.6954                   21753450.0354
 11  8 17 18 25 30.0000000  0  9G17G26G07G13G24G19G28G08G11
 -16951196.49646 -13194648.98844  23794838.9384                   23794839.3204
 -14978648.65646 -11661253.09043  23997362.1564                   23997360.1844
 -13854536.44548 -10793150.32046  20351463.6334                   20351460.0394
  13090403.14147  10199907.54343  22912157.4384                   22912155.7504
 -17363560.44547 -13523232.22344  22897895.3594                   22897896.4304
   5648056.68047   4406979.09445  22951067.4224                   22951063.4454
 -15449834.21947 -12031950.94945  22422778.3204                   22422774.8244
 -21749711.07048 -16944276.36746  20894587.7584                   20894584.2934
 -19648025.00047 -15307969.50045  21755430.0234                   21755427.0554
 11  8 17 18 26  0.0000000  0  9G17G26G07G13G24G19G28G08G11
 -17008170.56346 -13239044.20344  23783997.0864                   23783997.8674
 -15018713.51247 -11692472.42243  23989737.9844                   23989736.8014
 -13819120.83648 -10765553.76246  20358202.9774                   20358199.6684
  13239016.78547  10315710.21944  22940437.5394                   22940436.1374
 -17384048.32847 -13539196.71144  22893997.2584                   22893997.4064
   5783735.82047   4512703.05944  22976886.1334                   22976882.6884
 -15437332.91847 -12022209.66845  22425156.9454                   22425153.5984
 -21765708.06648 -16956741.56546  20891543.5944                   20891540.7704
 -19637149.18047 -15299494.81345  21757500.1094                   21757496.9924
 11  8 17 18 26 30.0000000  0  9G17G26G07G13G24G19G28G08G11
 -17064973.45346 -13283306.04344  23773188.1804                   23773188.1844
 -15058373.03947 -11723375.87943  23982190.7584                   23982189.8594
 -13783313.56348 -10737651.99646  20365016.9144                   20365013.2304
  13387763.03547  10431616.21144  22968742.7424                   22968742.1914
 -17404288.03947 -13554967.80944  22890145.6724                   22890146.2074
   5919643.75447   4618605.30544  23002748.7034                   23002744.6644
 -15424757.39847 -12012410.54745  22427549.7894                   22427546.7854
 -21781473.57048 -16969026.37146  20888543.3364                   20888540.6254
 -19625789.03547 -15290642.73845  21759661.5004                   21759658.3524
 11  8 17 18 27  0.0000000  0  9G17G26G07G13G24G19G28G08G11
 -17121602.34847 -13327432.29344  23762411.0004                   23762411.8324
 -15097623.56646 -11753960.66043  23974721.6644                   23974720.6334
 -13747112.42648 -10709443.32846  20371905.6334                   20371902.1804
  13536639.81647  10547623.92244  22997073.2664                   22997072.4654
 -17424275.76247 -13570542.55544  22886341.6954                   22886341.6914
   6055778.66447   4724684.38745  23028654.6254                   23028650.4734
 -15412107.85947 -12002553.75045  22429957.5864                   22429954.5044
 -21797004.32048 -16981128.24646  20885587.9774                   20885585.5664
 -19613941.94947 -15281411.22345  21761916.0944                   21761912.8444
 11  8 17 18 27 30.0000000  0  9G17G26G07G13G24G19G28G08G11
 -17178054.01647 -13371420.47744  23751669.0864                   23751669.5864
 -15136461.26646 -11784223.75843  23967330.9384                   23967330.2774
 -13710514.36348 -10680925.36346  20378869.9454                   20378866.6484
  13685645.46947  10663732.02344  23025428.8834                   23025427.6414
 -17444007.01247 -13585917.46944  22882587.0474                   22882587.0314
   6192139.08647   4830939.23044  23054602.5864                   23054599.2464
 -15399383.63347 -11992638.77745  22432378.7034                   22432375.0274
 -21812296.54748 -16993044.27046  20882677.8364                   20882674.9414
 -19601604.18447 -15271797.38345  21764263.9304                   21764260.7074
 11  8 17 18 28  0.0000000  0  9G17G26G07G13G24G19G28G08G11
 -17234326.46147 -13415268.99244  23740960.1644                   23740960.6054
 -15174883.33247 -11814162.98843  23960019.7664                   23960018.5634
 -13673517.80148 -10652096.88746  20385909.8914                   20385906.3284
  13834777.24647  10779938.42644  23053807.0704                   23053806.9804
 -17463478.50447 -13601089.95744  22878881.6484                   22878882.1024
   6328722.60947   4937367.89544  23080593.8364                   23080590.1374
 -15386585.66847 -11982666.32845  22434814.3054                   22434810.5824
 -21827347.14548 -17004772.00446  20879814.0784                   20879811.5274
 -19588773.87147 -15261799.72745  21766705.6644                   21766702.3244
 11  8 17 18 28 30.0000000  0  9G17G26G07G13G24G19G28G08G11
 -17290426.93047 -13458983.50444  23730284.8054                   23730285.3954
 -15212896.66047 -11843783.71943  23952785.1254                   23952784.9384
 -13636130.52348 -10622963.96146  20393024.9454                   20393021.1994
  13984022.11347  10896232.92244  23082208.2584                   23082207.2704
 -17482696.98047 -13616065.29344  22875224.9924                   22875224.7304
   6465516.84047   5043960.74644  23106625.0164                   23106620.9064
 -15373723.77347 -11972644.06645  22437261.5004                   22437257.6294
 -21842163.47348 -17016317.19546  20876994.4694                   20876991.1294
 -19575458.64147 -15251424.19945  21769239.2734                   21769236.3134
 11  8 17 18 29  0.0000000  0  9G17G26G07G13G24G19G28G08G11
 -17346341.55947 -13502553.18044  23719644.8834                   23719645.0594
 -15250486.38347 -11873074.33643  23945632.3834                   23945630.7704
 -13598338.96148 -10593515.99246  20400216.3134                   20400212.5044
  14133389.77347  11012623.13344  23110631.5704                   23110630.9454
 -17501646.80547 -13630831.28144  22871617.9844                   22871618.2934
   6602531.23047   5150725.17244  23132698.2584                   23132693.8094
 -15360786.66047 -11962563.19945  22439723.5084                   22439719.9844
 -21856730.64148 -17027668.23446  20874221.9924                   20874219.2664
 -19561644.53147 -15240659.95745  21771868.0394                   21771864.8714
 11  8 17 18 29 30.0000000  0  9G17G26G07G13G24G19G28G08G11
 -17402076.45747 -13545982.80944  23709038.1644                   23709038.8134
 -15287657.83646 -11902039.02343  23938558.5634                   23938557.7464
 -13560149.74648 -10563758.17246  20407483.7034                   20407479.8484
  14282869.04747  11129100.30144  23139077.2814                   23139076.0744
 -17520333.10947 -13645391.94144  22868062.3364                   22868062.1054
   6739755.14547   5257652.85944  23158810.9534                   23158806.6764
 -15347783.55147 -11952430.88345  22442197.4774                   22442194.1684
 -21871054.05948 -17038829.33646  20871496.4144                   20871493.9694
 -19547338.02747 -15229512.01245  21774590.5554                   21774587.1484
 11  8 17 18 30  0.0000000  0  9G17G26G07G13G24G19G28G08G11
 -17457624.98847 -13589267.25044  23698467.8984                   23698468.2974
 -15324403.90647 -11930672.27743  23931566.3524                   23931565.3164
 -13521556.61348 -10533685.62146  20414827.4304                   20414823.7974
  14432461.40247  11245665.56244  23167543.9694                   23167542.9224
 -17538748.37547 -13659741.41844  22864558.1484                   22864557.3364
   6877190.10547   5364744.98044  23184964.1724                   23184960.4264
 -15334710.53147 -11942244.10945  22444685.6644                   22444681.6994
 -21885126.71548 -17049795.03546  20868818.8284                   20868815.8834
 -19532532.34447 -15217975.10245  21777408.3054                   21777404.8404
 11  8 17 18 30 30.0000000  0  9G17G26G07G13G24G19G28G08G11
 -17512985.14847 -13632404.89144  23687932.5634                   23687932.6954
 -15360722.23747 -11958972.22543  23924655.7894                   23924654.2384
 -13482558.64148 -10503297.60546  20422248.6254                   20422244.7464
  14582163.66847  11362316.48044  23196031.7424                   23196030.5124
 -17556889.93047 -13673877.59444  22861105.9144                   22861106.0164
   7014833.36347   5471999.41844  23211156.6954                   23211152.7464
 -15321568.25847 -11932003.37545  22447186.0314                   22447182.1684
 -21898946.47748 -17060563.68446  20866188.8054                   20866185.7584
 -19517225.96547 -15206048.03545  21780320.4144                   21780317.0474
 11  8 17 18 31  0.0000000  0  9G17G26G07G13G24G19G28G08G11
 -17568153.68447 -13675393.21944  23677434.9924                   23677434.7464
 -15396608.82446 -11986935.74243  23917825.7194                   23917825.7234
 -13443152.68848 -10472591.68446  20429747.3594                   20429743.6524
  14731974.41847  11479051.94944  23224539.3984                   23224538.8204
 -17574752.87947 -13687796.68044  22857705.9144                   22857706.8874
   7152683.80547   5579415.28944  23237388.6174                   23237384.5784
 -15308356.16847 -11921708.24245  22449700.3524                   22449696.6914
 -21912509.39848 -17071132.19546  20863608.1484                   20863605.0124
 -19501415.68047 -15193728.32845  21783329.3054                   21783326.1644
 11  8 17 18 31 30.0000000  0  9G17G26G07G13G24G19G28G08G11
 -17623132.80947 -13718233.95744  23666972.7194                   23666972.6844
 -15432064.66446 -12014563.64843  23911078.9774                   23911078.2934
 -13403340.96548 -10441569.57846  20437323.2814                   20437319.5004
  14881886.72747  11595866.52744  23253066.9614                   23253066.4574
 -17592338.21946 -13701499.46144  22854359.4694                   22854360.4924
   7290734.29347   5686987.05944  23263659.0474                   23263654.7664
 -15295079.00447 -11911362.38745  22452226.7344                   22452223.2544
 -21925816.12948 -17081501.07446  20861075.8914                   20861072.6294
 -19485103.65647 -15181017.64145  21786432.9614                   21786429.8554
 11  8 17 18 32  0.0000000  0  9G17G26G07G13G24G19G28G08G11
 -17677920.09047 -13760925.19944  23656546.5394                   23656546.1564
 -15467086.94146 -12041853.69943  23904414.2894                   23904413.8014
 -13363121.87948 -10410230.05146  20444976.5394                   20444973.0514
  15031898.21947  11712758.40244  23281613.6564                   23281612.9774
 -17609642.37546 -13714983.11744  22851066.8284                   22851067.2774
   7428982.82847   5794713.14544  23289966.2664                   23289962.6454
 -15281736.91447 -11900965.94945  22454766.2424                   22454762.2424
 -21938864.08248 -17091668.31246  20858592.5084                   20858589.9494
 -19468287.78148 -15167914.34445  21789633.0004                   21789629.6804
 11  8 17 18 32 30.0000000  0  9G17G26G07G13G24G19G28G08G11
 -17732511.35347 -13803463.67944  23646158.2504                   23646158.2034
 -15501671.18047 -12068802.41043  23897832.8524                   23897831.9884
 -13322491.79748 -10378570.26246  20452707.7344                   20452704.6764
  15182007.66547  11829726.58744  23310178.4534                   23310177.7344
 -17626660.62447 -13728244.02544  22847828.4144                   22847828.1994
   7567429.12647   5902593.32744  23316312.6174                   23316308.3834
 -15268328.98447 -11890518.20145  22457317.4144                   22457313.9844
 -21951649.22448 -17101630.75646  20856159.8364                   20856157.0704
 -19450964.05348 -15154415.31545  21792929.5944                   21792926.1174
 11  8 17 18 33  0.0000000  0  9G17G26G07G13G24G19G28G08G11
 -19362333.60947 -15073454.89844  23336013.0554                   23336013.4104
 -17111242.47346 -13323013.74643  23591541.8674                   23591540.5514
 -14856874.85248 -11574193.45346  20160724.8674                   20160721.3874
  13756790.57847  10719167.62543  23038969.6564                   23038968.3324
 -19218816.99647 -14968885.28544  22544850.4454                   22544850.4454
   6130648.07847   4783023.64544  23042902.0704                   23042898.0234
 -16830282.16447 -13107624.57445  22160087.3204                   22160084.2544
 -23539595.57848 -18338991.55946  20553984.1644                   20553980.9734
 -21008557.21548 -16368124.26245  21496529.3524                   21496526.3834
 11  8 17 18 33 30.0000000  0  9G17G26G07G13G24G19G28G08G11
 -19416530.08547 -15115685.74744  23325700.0234                   23325699.7234
 -17144945.32846 -13349275.69543  23585128.4694                   23585127.0004
 -14815421.05948 -11541891.81546  20168613.3054                   20168609.9534
  13907084.78247  10836279.77143  23067568.8754                   23067568.5314
 -19235256.35847 -14981695.10944  22541722.6484                   22541722.1214
   6269478.60247   4891203.21944  23069320.8444                   23069316.0744
 -16816746.87547 -13097077.60145  22162663.2114                   22162659.9614
 -23551848.74948 -18348539.47846  20551652.1024                   20551649.3094
 -20990215.51048 -16353832.01045  21500020.0234                   21500016.9844
 11  8 17 18 34  0.0000000  0  9G17G26G07G13G24G19G28G08G11
 -19470526.75447 -15157760.94944  23315424.7504                   23315424.8134
 -17178204.14546 -13375191.61343  23578798.9774                   23578797.5664
 -14773553.66448 -11509267.89846  20176580.2664                   20176576.9024
  14057466.27047  10953459.96544  23096185.2584                   23096185.0744
 -19251402.33247 -14994276.33244  22538649.9694                   22538649.9494
   6408496.91047   4999529.13744  23095774.7814                   23095771.0434
 -16803149.42247 -13086482.18045  22165250.8364                   22165246.8204
 -23563833.07048 -18357877.91846  20549371.2114                   20549368.0354
 -20971363.05948 -16339141.77045  21503607.4224                   21503604.0634
 11  8 17 18 34 30.0000000  0  9G17G26G07G13G24G19G28G08G11
 -19524325.32047 -15199681.78545  23305187.1804                   23305186.7344
 -17211020.75446 -13400762.96543  23572554.8284                   23572553.0864
 -14731275.61348 -11476323.97746  20184625.6804                   20184622.2504
  14207928.16047  11070702.75444  23124817.7274                   23124817.2274
 -19267256.22347 -15006629.96144  22535632.6334                   22535632.9064
   6547696.18447   5107996.05944  23122263.8444                   23122259.7814
 -16789494.72348 -13075842.15245  22167848.9924                   22167845.2464
 -23575550.13348 -18367008.10246  20547142.0864                   20547138.8594
 -20952002.04347 -16324055.24645  21507291.4384                   21507288.7624
 11  8 17 18 35  0.0000000  0  9G17G26G07G13G24G19G28G08G11
 -19577924.95347 -15241447.60545  23294987.3524                   23294987.2384
 -17243392.83647 -13425987.91443  23566394.4614                   23566392.6684
 -14688586.00848 -11443059.36746  20192749.6804                   20192746.0204
  14358467.00447  11188005.57444  23153464.0164                   23153464.0124
 -19282815.23847 -15018753.80544  22532672.4614                   22532672.0594
   6687073.19147   5216601.48444  23148786.5554                   23148782.2544
 -16775784.19147 -13065158.60945  22170458.1024                   22170454.7814
 -23586997.41048 -18375928.05946  20544963.3674                   20544960.4414
 -20932131.52048 -16308571.70345  21511072.9064                   21511069.9534
 11  8 17 18 35 30.0000000  0  9G17G26G07G13G24G19G28G08G11
 -19631323.45147 -15283056.70345  23284826.1484                   23284825.3054
 -17275317.69347 -13450864.41043  23560319.7664                   23560317.4694
 -14645483.13748 -11409472.73046  20200951.7034                   20200948.1484
  14509080.20547  11305366.28244  23182125.6334                   23182125.1054
 -19298076.06647 -15030645.30544  22529767.7114                   22529767.9734
   6826625.53547   5325343.52244  23175342.9614                   23175339.2504
 -16762018.01347 -13054431.69845  22173078.1414                   22173074.2894
 -23598171.94948 -18384635.48246  20542837.4844                   20542833.8324
 -20911749.37048 -16292689.48045  21514951.1024                   21514948.2894
 11  8 17 18 36  0.0000000  0  9G17G26G07G13G24G19G28G08G11
 -19684506.58647 -15324498.00044  23274705.1644                   23274705.2074
 -17306780.82847 -13475381.10943  23554332.5864                   23554330.2584
 -14601953.27348 -11375553.37546  20209234.7664                   20209231.6884
  14659776.75847  11422791.93443  23210802.3914                   23210802.0314
 -19313023.81347 -15042292.85544  22526924.0084                   22526923.8204
   6966362.65647   5434229.54744  23201934.5314                   23201929.6954
 -16748184.68447 -13043652.48845  22175710.1804                   22175706.2544
 -23609059.14848 -18393119.01646  20540765.1564                   20540762.0164
 -20890841.65648 -16276397.73845  21518930.0004                   21518926.7074
 11  8 17 18 36 30.0000000  0  9G17G26G07G13G24G19G28G08G11
 -19737480.13347 -15365775.98044  23264624.4144                   23264624.3874
 -17337787.27247 -13499541.92843  23548431.1644                   23548430.3364
 -14558002.99448 -11341306.42146  20217598.1884                   20217594.9144
  14810546.49347  11540274.63044  23239492.4774                   23239492.9414
 -19327662.80247 -15053699.81444  22524138.3984                   22524137.9654
   7106274.55547   5543251.75944  23228557.5634                   23228554.2544
 -16734292.68348 -13032827.55545  22178353.6484                   22178349.7304
 -23619664.18148 -18401382.68346  20538747.1094                   20538744.1174
 -20869415.09747 -16259701.71145  21523007.2424                   21523004.1684
 11  8 17 18 37  0.0000000  0  9G17G26G07G13G24G19G28G08G11
 -19790245.19947 -15406891.52344  23254583.3914                   23254583.5354
 -17368337.44147 -13523347.24243  23542618.0474                   23542616.6214
 -14513633.77048 -11306733.01646  20226041.4844                   20226038.1804
  14961383.28547  11657809.55144  23268196.7894                   23268196.0864
 -19341993.12147 -15064866.25844  22521411.7034                   22521410.9694
   7246355.33647   5652405.57044  23255214.3914                   23255210.5164
 -16720345.55547 -13021959.64845  22181007.8674                   22181003.9804
 -23629987.18448 -18409426.57846  20536782.8524                   20536779.8134
 -20847470.83647 -16242602.27745  21527183.1094                   21527180.0904
 11  8 17 18 37 30.0000000  0  9G17G26G07G13G24G19G28G08G11
 -19842799.97347 -15447843.20344  23244582.3754                   23244582.3364
 -17398429.25447 -13546795.38343  23536891.9534                   23536890.3484
 -14468844.22748 -11271832.09446  20234564.8134                   20234561.3014
  15112284.30547  11775394.53943  23296911.5944                   23296911.6684
 -19356011.85547 -15075789.91044  22518743.7664                   22518742.6524
   7386602.24647   5761688.83644  23281902.6724                   23281898.9304
 -16706344.20347 -13011049.50045  22183672.1804                   22183668.4494
 -23640025.52048 -18417248.65646  20534872.3204                   20534869.5084
 -20825007.40248 -16225098.28945  21531457.6724                   21531454.6414
 11  8 17 18 38  0.0000000  0  9G17G26G07G13G24G19G28G08G11
 -19895143.86747 -15488630.55544  23234621.6724                   23234621.4024
 -17428061.30547 -13569885.27043  23531252.7504                   23531251.1564
 -14423634.34848 -11236603.63346  20243167.9774                   20243164.2384
  15263245.33247  11893026.26243  23325638.7424                   23325639.4104
 -19369717.22747 -15086469.34444  22516135.4304                   22516134.6174
   7527011.59847   5871098.65244  23308622.0084                   23308617.7344
 -16692290.71547 -13000098.72345  22186346.1724                   22186342.3524
 -23649778.07048 -18424848.05946  20533016.6094                   20533013.7504
 -20802024.85948 -16207189.79745  21535831.2424                   21535827.7584
 11  8 17 18 38 30.0000000  0  9G17G26G07G13G24G19G28G08G11
 -19947268.20347 -15529246.82044  23224702.6724                   23224702.3284
 -17457224.55547 -13592609.82043  23525703.3204                   23525701.8714
 -14377996.04648 -11201041.34246  20251852.7274                   20251849.1764
  15414270.23047  12010707.75043  23354378.1804                   23354378.6414
 -19383099.63747 -15096897.14544  22513588.4614                   22513588.2584
   7667587.34047   5980638.14544  23335372.1024                   23335368.2304
 -16678178.88347 -12989102.48445  22189031.9694                   22189028.0744
 -23659235.55048 -18432217.52346  20531217.0704                   20531214.4574
 -20778514.39848 -16188869.93445  21540304.9694                   21540302.0124
 11  8 17 18 39  0.0000000  0  9G17G26G07G13G24G19G28G08G11
 -19999178.28147 -15569696.12944  23214824.3914                   23214823.9734
 -17485923.62947 -13614972.69143  23520242.3204                   23520240.2194
 -14331935.01248 -11165149.64846  20260617.9774                   20260614.2154
  15565349.04347  12128431.22343  23383127.4774                   23383128.1804
 -19396163.29347 -15107076.55144  22511102.0554                   22511102.2384
   7808319.89847   6090299.82445  23362152.9454                   23362148.9064
 -16664016.04747 -12978066.50445  22191726.9304                   22191723.4884
 -23668402.41448 -18439360.53946  20529472.5704                   20529469.6214
 -20754481.61747 -16170143.09445  21544878.4924                   21544875.3554
 11  8 17 18 39 30.0000000  0  9G17G26G07G13G24G19G28G08G11
 -20050868.28947 -15609973.96144  23204988.0394                   23204987.3874
 -17514152.36747 -13636969.08643  23514870.2664                   23514869.0044
 -14285446.23848 -11128924.64846  20269464.4534                   20269460.7504
  15716482.70747  12246197.45343  23411888.0314                   23411888.7034
 -19408901.43047 -15117002.32444  22508678.0784                   22508677.6994
   7949210.58647   6200084.71144  23388963.8914                   23388959.3594
 -16649799.12948 -12966988.36745  22194432.6484                   22194428.4844
 -23677272.38748 -18446272.20746  20527784.6884                   20527781.3524
 -20729921.80548 -16151005.57845  21549552.1484                   21549548.7344
 11  8 17 18 40  0.0000000  0  9G17G26G07G13G24G19G28G08G11
 -20102334.15647 -15650077.09444  23195194.3834                   23195193.9304
 -17541905.84447 -13658595.13743  23509589.4064                   23509587.7234
 -14238526.34048 -11092363.71146  20278393.0784                   20278389.8834
  15867670.66047  12364005.97743  23440657.9844                   23440658.8914
 -19421308.45747 -15126670.10944  22506317.0944                   22506316.6134
   8090259.02747   6309992.54744  23415804.2734                   23415799.9614
 -16635526.64147 -12955866.94145  22197148.3204                   22197144.8054
 -23685840.10548 -18452948.34846  20526154.1414                   20526151.1094
 -20704830.89848 -16131454.21545  21554326.7114                   21554323.8714
 11  8 17 18 40 30.0000000  0  9G17G26G07G13G24G19G28G08G11
 -20153572.28947 -15690002.82444  23185443.4614                   23185443.6564
 -17569180.34447 -13679847.96943  23504398.3364                   23504396.7114
 -14191172.09848 -11055464.32446  20287404.2034                   20287400.9104
  16018911.60947  12481855.80943  23469438.9534                   23469439.5474
 -19433380.30547 -15136076.69544  22504020.5554                   22504019.2194
   8231464.42247   6420022.65244  23442674.3444                   23442670.5744
 -16621197.81347 -12944701.61745  22199875.0004                   22199871.4104
 -23694101.87948 -18459386.09046  20524582.1024                   20524579.6484
 -20679206.12548 -16111486.84845  21559202.9534                   21559199.8524
 11  8 17 18 41  0.0000000  0  9G17G26G07G13G24G19G28G08G11
 -20204589.44947 -15729756.34844  23175735.9844                   23175735.1884
 -17595981.91447 -13700732.25843  23499298.4064                   23499295.9574
 -14143390.95748 -11018232.29746  20296496.6174                   20296493.1174
  16170194.12147  12599738.02743  23498227.2274                   23498227.9224
 -19445122.28247 -15145226.24744  22501785.6564                   22501785.3954
   8372815.86247   6530166.59644  23469573.5004                   23469568.9384
 -16606821.71147 -12933499.44545  22202610.3914                   22202607.3244
 -23702063.24248 -18465589.75446  20523066.9224                   20523063.9804
 -20653054.51248 -16091108.96145  21564179.3364                   21564176.1844
 11  8 17 18 41 30.0000000  0  9G17G26G07G13G24G19G28G08G11
 -20255380.85547 -15769334.00045  23166070.7034                   23166069.7734
 -17622305.31347 -13721243.97543  23494289.5944                   23494287.2974
 -14095178.94948 -10980664.52046  20305671.0004                   20305667.4534
  16321518.30947  12717652.71943  23527022.9454                   23527023.6764
 -19456528.57847 -15154114.19544  22499615.1954                   22499615.0044
   8514313.33647   6640424.30545  23496499.3754                   23496495.4884
 -16592396.09448 -12922258.69545  22205355.5394                   22205352.0744
 -23709718.54748 -18471554.93046  20521610.4694                   20521607.4184
 -20626371.66848 -16070317.13745  21569256.4844                   21569253.3244
 11  8 17 18 42  0.0000000  0  9G17G26G07G13G24G19G28G08G11
 -20305948.34847 -15808737.13844  23156448.0084                   23156447.3834
 -17648151.75047 -13741384.02743  23489370.9384                   23489369.4144
 -14046538.12948 -10942762.60546  20314927.2114                   20314923.7344
  16472877.78647  12835594.87743  23555826.3754                   23555826.9494
 -19467599.74247 -15162741.02744  22497508.3284                   22497507.9734
   8655950.84446   6750791.13744  23523451.8834                   23523448.0744
 -16577924.83748 -12910982.38945  22208109.2584                   22208105.9064
 -23717068.94948 -18477282.50846  20520211.7894                   20520208.8324
 -20599159.84448 -16049113.12145  21574435.1884                   21574432.1094
